<?xml version="1.0" encoding="utf-8"?>
<gpx xmlns:xsi="http://www.w3.org/2001/XMLSchema-instance" xmlns:xsd="http://www.w3.org/2001/XMLSchema" version="1.1" creator="Shapelink.com" xmlns="http://www.topografix.com/GPX/1/1" xmlns:gpxtpx="http://www.garmin.com/xmlschemas/TrackPointExtension/v1">
  <metadata>
    <name>Langrenn Classic 24.99 km, 2012-02-02</name>
    <desc></desc>
    <author><name>Andreas Falk-Larssen</name></author> 
    <time>2012-02-02T11:26:00Z</time>
  </metadata>
  <trk>
    <name>Langrenn Classic 24.99 km, 2012-02-02</name>
    <trkseg>
      <trkpt lat="63.389653895" lon="10.3180681895">
        <ele>267.2</ele>
        <time>2012-02-02T11:26:00Z</time>
      </trkpt>
      <trkpt lat="63.3897097184" lon="10.3176863101">
        <ele>267.2</ele>
        <time>2012-02-02T11:26:05Z</time>
      </trkpt>
      <trkpt lat="63.3898378777" lon="10.3173303308">
        <ele>267.2</ele>
        <time>2012-02-02T11:26:10Z</time>
      </trkpt>
      <trkpt lat="63.3899675457" lon="10.3170056999">
        <ele>267.2</ele>
        <time>2012-02-02T11:26:14Z</time>
      </trkpt>
      <trkpt lat="63.390139207" lon="10.31658979">
        <ele>267.2</ele>
        <time>2012-02-02T11:26:22Z</time>
      </trkpt>
      <trkpt lat="63.3902863932" lon="10.3161136142">
        <ele>267.2</ele>
        <time>2012-02-02T11:26:26Z</time>
      </trkpt>
      <trkpt lat="63.3903613273" lon="10.3153993087">
        <ele>266.6</ele>
        <time>2012-02-02T11:26:30Z</time>
      </trkpt>
      <trkpt lat="63.3903728944" lon="10.3143124278">
        <ele>265</ele>
        <time>2012-02-02T11:26:38Z</time>
      </trkpt>
      <trkpt lat="63.3903400373" lon="10.313886292">
        <ele>263.2</ele>
        <time>2012-02-02T11:26:44Z</time>
      </trkpt>
      <trkpt lat="63.3902884048" lon="10.3135235233">
        <ele>261</ele>
        <time>2012-02-02T11:26:50Z</time>
      </trkpt>
      <trkpt lat="63.3902744909" lon="10.313469041">
        <ele>260.6</ele>
        <time>2012-02-02T11:26:51Z</time>
      </trkpt>
      <trkpt lat="63.3902240318" lon="10.3131524566">
        <ele>258.4</ele>
        <time>2012-02-02T11:26:57Z</time>
      </trkpt>
      <trkpt lat="63.3901638498" lon="10.3129214514">
        <ele>256.8</ele>
        <time>2012-02-02T11:27:02Z</time>
      </trkpt>
      <trkpt lat="63.390128562" lon="10.3126894405">
        <ele>255.8</ele>
        <time>2012-02-02T11:27:07Z</time>
      </trkpt>
      <trkpt lat="63.39011096" lon="10.3124644703">
        <ele>254.4</ele>
        <time>2012-02-02T11:27:12Z</time>
      </trkpt>
      <trkpt lat="63.3900795279" lon="10.3121315412">
        <ele>253.4</ele>
        <time>2012-02-02T11:27:19Z</time>
      </trkpt>
      <trkpt lat="63.3900759237" lon="10.3119908091">
        <ele>253.2</ele>
        <time>2012-02-02T11:27:22Z</time>
      </trkpt>
      <trkpt lat="63.3900620097" lon="10.3117292938">
        <ele>253</ele>
        <time>2012-02-02T11:27:28Z</time>
      </trkpt>
      <trkpt lat="63.3900571482" lon="10.3115161421">
        <ele>252.8</ele>
        <time>2012-02-02T11:27:33Z</time>
      </trkpt>
      <trkpt lat="63.3900531249" lon="10.3114771663">
        <ele>252.8</ele>
        <time>2012-02-02T11:27:34Z</time>
      </trkpt>
      <trkpt lat="63.3900532087" lon="10.3112831253">
        <ele>252.8</ele>
        <time>2012-02-02T11:27:38Z</time>
      </trkpt>
      <trkpt lat="63.3900597466" lon="10.3112376954">
        <ele>253</ele>
        <time>2012-02-02T11:27:39Z</time>
      </trkpt>
      <trkpt lat="63.390064189" lon="10.3111950315">
        <ele>253.2</ele>
        <time>2012-02-02T11:27:40Z</time>
      </trkpt>
      <trkpt lat="63.3901079425" lon="10.3109869927">
        <ele>253.8</ele>
        <time>2012-02-02T11:27:45Z</time>
      </trkpt>
      <trkpt lat="63.3901726508" lon="10.3108916067">
        <ele>254.2</ele>
        <time>2012-02-02T11:27:50Z</time>
      </trkpt>
      <trkpt lat="63.3901858942" lon="10.3108764355">
        <ele>254.2</ele>
        <time>2012-02-02T11:27:52Z</time>
      </trkpt>
      <trkpt lat="63.3902224393" lon="10.310847015">
        <ele>254.8</ele>
        <time>2012-02-02T11:27:56Z</time>
      </trkpt>
      <trkpt lat="63.3902392869" lon="10.3108423212">
        <ele>255.2</ele>
        <time>2012-02-02T11:27:58Z</time>
      </trkpt>
      <trkpt lat="63.3902946074" lon="10.3108460092">
        <ele>255.8</ele>
        <time>2012-02-02T11:28:04Z</time>
      </trkpt>
      <trkpt lat="63.3903168195" lon="10.3108465121">
        <ele>256.2</ele>
        <time>2012-02-02T11:28:07Z</time>
      </trkpt>
      <trkpt lat="63.3903430548" lon="10.3108338554">
        <ele>257</ele>
        <time>2012-02-02T11:28:13Z</time>
      </trkpt>
      <trkpt lat="63.3903965313" lon="10.3107983162">
        <ele>257.8</ele>
        <time>2012-02-02T11:28:20Z</time>
      </trkpt>
      <trkpt lat="63.3904619101" lon="10.310740984">
        <ele>258.2</ele>
        <time>2012-02-02T11:28:24Z</time>
      </trkpt>
      <trkpt lat="63.3905491657" lon="10.3106138306">
        <ele>259.2</ele>
        <time>2012-02-02T11:28:29Z</time>
      </trkpt>
      <trkpt lat="63.3906784146" lon="10.3104706677">
        <ele>259.8</ele>
        <time>2012-02-02T11:28:34Z</time>
      </trkpt>
      <trkpt lat="63.3908336474" lon="10.310315854">
        <ele>260.2</ele>
        <time>2012-02-02T11:28:39Z</time>
      </trkpt>
      <trkpt lat="63.3909623934" lon="10.3102360583">
        <ele>260.4</ele>
        <time>2012-02-02T11:28:43Z</time>
      </trkpt>
      <trkpt lat="63.3911062268" lon="10.3102078951">
        <ele>260.6</ele>
        <time>2012-02-02T11:28:47Z</time>
      </trkpt>
      <trkpt lat="63.3912486353" lon="10.310282997">
        <ele>260.6</ele>
        <time>2012-02-02T11:28:51Z</time>
      </trkpt>
      <trkpt lat="63.3914580151" lon="10.3102044586">
        <ele>260.8</ele>
        <time>2012-02-02T11:28:56Z</time>
      </trkpt>
      <trkpt lat="63.3916379745" lon="10.3099628084">
        <ele>260.8</ele>
        <time>2012-02-02T11:29:01Z</time>
      </trkpt>
      <trkpt lat="63.3917448438" lon="10.3098096711">
        <ele>260.8</ele>
        <time>2012-02-02T11:29:04Z</time>
      </trkpt>
      <trkpt lat="63.3918719972" lon="10.3095941724">
        <ele>260.8</ele>
        <time>2012-02-02T11:29:08Z</time>
      </trkpt>
      <trkpt lat="63.3919649525" lon="10.3094555358">
        <ele>260.8</ele>
        <time>2012-02-02T11:29:12Z</time>
      </trkpt>
      <trkpt lat="63.3920802036" lon="10.3092402886">
        <ele>260.8</ele>
        <time>2012-02-02T11:29:20Z</time>
      </trkpt>
      <trkpt lat="63.3920907648" lon="10.3092018995">
        <ele>260.8</ele>
        <time>2012-02-02T11:29:21Z</time>
      </trkpt>
      <trkpt lat="63.3920317562" lon="10.3089678769">
        <ele>260.8</ele>
        <time>2012-02-02T11:29:26Z</time>
      </trkpt>
      <trkpt lat="63.3919127332" lon="10.3088009094">
        <ele>260.8</ele>
        <time>2012-02-02T11:29:30Z</time>
      </trkpt>
      <trkpt lat="63.3917954704" lon="10.308586668">
        <ele>260.8</ele>
        <time>2012-02-02T11:29:34Z</time>
      </trkpt>
      <trkpt lat="63.3917756892" lon="10.3085352032">
        <ele>260.8</ele>
        <time>2012-02-02T11:29:35Z</time>
      </trkpt>
      <trkpt lat="63.391714166" lon="10.3083488735">
        <ele>260.8</ele>
        <time>2012-02-02T11:29:40Z</time>
      </trkpt>
      <trkpt lat="63.3916863381" lon="10.3081797268">
        <ele>260.8</ele>
        <time>2012-02-02T11:29:46Z</time>
      </trkpt>
      <trkpt lat="63.3916855837" lon="10.3081539944">
        <ele>260.8</ele>
        <time>2012-02-02T11:29:47Z</time>
      </trkpt>
      <trkpt lat="63.3916839912" lon="10.3081247415">
        <ele>260.8</ele>
        <time>2012-02-02T11:29:48Z</time>
      </trkpt>
      <trkpt lat="63.3916817281" lon="10.308005048">
        <ele>261.6</ele>
        <time>2012-02-02T11:29:54Z</time>
      </trkpt>
      <trkpt lat="63.3916893556" lon="10.3079091591">
        <ele>262.2</ele>
        <time>2012-02-02T11:29:58Z</time>
      </trkpt>
      <trkpt lat="63.3916937142" lon="10.3078807444">
        <ele>262.6</ele>
        <time>2012-02-02T11:29:59Z</time>
      </trkpt>
      <trkpt lat="63.3916970669" lon="10.3077789043">
        <ele>263.6</ele>
        <time>2012-02-02T11:30:04Z</time>
      </trkpt>
      <trkpt lat="63.3917012579" lon="10.3077529205">
        <ele>263.6</ele>
        <time>2012-02-02T11:30:05Z</time>
      </trkpt>
      <trkpt lat="63.3917172673" lon="10.3076753879">
        <ele>264.4</ele>
        <time>2012-02-02T11:30:09Z</time>
      </trkpt>
      <trkpt lat="63.391738725" lon="10.3075862045">
        <ele>265.2</ele>
        <time>2012-02-02T11:30:13Z</time>
      </trkpt>
      <trkpt lat="63.3918012539" lon="10.3073961868">
        <ele>267.2</ele>
        <time>2012-02-02T11:30:21Z</time>
      </trkpt>
      <trkpt lat="63.3918420738" lon="10.3072653453">
        <ele>268</ele>
        <time>2012-02-02T11:30:27Z</time>
      </trkpt>
      <trkpt lat="63.3918867493" lon="10.3071005572">
        <ele>269.2</ele>
        <time>2012-02-02T11:30:32Z</time>
      </trkpt>
      <trkpt lat="63.3919393877" lon="10.3068034188">
        <ele>270.4</ele>
        <time>2012-02-02T11:30:39Z</time>
      </trkpt>
      <trkpt lat="63.3919680538" lon="10.3065792868">
        <ele>271.4</ele>
        <time>2012-02-02T11:30:44Z</time>
      </trkpt>
      <trkpt lat="63.3919932833" lon="10.3062922067">
        <ele>272.4</ele>
        <time>2012-02-02T11:30:51Z</time>
      </trkpt>
      <trkpt lat="63.3920077001" lon="10.3060766243">
        <ele>273.4</ele>
        <time>2012-02-02T11:30:58Z</time>
      </trkpt>
      <trkpt lat="63.3920085383" lon="10.3059122552">
        <ele>274.2</ele>
        <time>2012-02-02T11:31:03Z</time>
      </trkpt>
      <trkpt lat="63.3919987315" lon="10.3057307033">
        <ele>274.8</ele>
        <time>2012-02-02T11:31:09Z</time>
      </trkpt>
      <trkpt lat="63.3919403097" lon="10.3055212396">
        <ele>275.2</ele>
        <time>2012-02-02T11:31:16Z</time>
      </trkpt>
      <trkpt lat="63.3918443369" lon="10.3053186491">
        <ele>275.2</ele>
        <time>2012-02-02T11:31:21Z</time>
      </trkpt>
      <trkpt lat="63.3915895272" lon="10.3052325669">
        <ele>275.4</ele>
        <time>2012-02-02T11:31:28Z</time>
      </trkpt>
      <trkpt lat="63.3914475378" lon="10.3053717065">
        <ele>275.4</ele>
        <time>2012-02-02T11:31:32Z</time>
      </trkpt>
      <trkpt lat="63.3912797321" lon="10.3055406856">
        <ele>275.4</ele>
        <time>2012-02-02T11:31:36Z</time>
      </trkpt>
      <trkpt lat="63.3911015329" lon="10.3054746362">
        <ele>275.4</ele>
        <time>2012-02-02T11:31:40Z</time>
      </trkpt>
      <trkpt lat="63.3910679215" lon="10.3054408572">
        <ele>275.4</ele>
        <time>2012-02-02T11:31:41Z</time>
      </trkpt>
      <trkpt lat="63.3910026265" lon="10.3053782444">
        <ele>275.4</ele>
        <time>2012-02-02T11:31:43Z</time>
      </trkpt>
      <trkpt lat="63.390899613" lon="10.3052866302">
        <ele>275.4</ele>
        <time>2012-02-02T11:31:47Z</time>
      </trkpt>
      <trkpt lat="63.3908580387" lon="10.3052963532">
        <ele>275.4</ele>
        <time>2012-02-02T11:31:52Z</time>
      </trkpt>
      <trkpt lat="63.3908445439" lon="10.3053044836">
        <ele>275.4</ele>
        <time>2012-02-02T11:31:53Z</time>
      </trkpt>
      <trkpt lat="63.3907520077" lon="10.3053381789">
        <ele>275.4</ele>
        <time>2012-02-02T11:31:56Z</time>
      </trkpt>
      <trkpt lat="63.3907086733" lon="10.3053563676">
        <ele>275.4</ele>
        <time>2012-02-02T11:31:57Z</time>
      </trkpt>
      <trkpt lat="63.3905946794" lon="10.3054884663">
        <ele>275.4</ele>
        <time>2012-02-02T11:32:00Z</time>
      </trkpt>
      <trkpt lat="63.3905016404" lon="10.3056665817">
        <ele>275.4</ele>
        <time>2012-02-02T11:32:03Z</time>
      </trkpt>
      <trkpt lat="63.3903527778" lon="10.3059441064">
        <ele>275.4</ele>
        <time>2012-02-02T11:32:08Z</time>
      </trkpt>
      <trkpt lat="63.3902878181" lon="10.3060694158">
        <ele>275.4</ele>
        <time>2012-02-02T11:32:10Z</time>
      </trkpt>
      <trkpt lat="63.3901669511" lon="10.3063673086">
        <ele>275.4</ele>
        <time>2012-02-02T11:32:14Z</time>
      </trkpt>
      <trkpt lat="63.3901314956" lon="10.3064307595">
        <ele>275.4</ele>
        <time>2012-02-02T11:32:15Z</time>
      </trkpt>
      <trkpt lat="63.3899455851" lon="10.3069688775">
        <ele>275</ele>
        <time>2012-02-02T11:32:22Z</time>
      </trkpt>
      <trkpt lat="63.3898872471" lon="10.3071848791">
        <ele>274.4</ele>
        <time>2012-02-02T11:32:25Z</time>
      </trkpt>
      <trkpt lat="63.3896735925" lon="10.3075059059">
        <ele>274</ele>
        <time>2012-02-02T11:32:31Z</time>
      </trkpt>
      <trkpt lat="63.389624726" lon="10.3075185625">
        <ele>274</ele>
        <time>2012-02-02T11:32:32Z</time>
      </trkpt>
      <trkpt lat="63.3895280827" lon="10.3075289561">
        <ele>273.8</ele>
        <time>2012-02-02T11:32:34Z</time>
      </trkpt>
      <trkpt lat="63.389356589" lon="10.3075941673">
        <ele>273.4</ele>
        <time>2012-02-02T11:32:38Z</time>
      </trkpt>
      <trkpt lat="63.3892890309" lon="10.3076353224">
        <ele>273</ele>
        <time>2012-02-02T11:32:40Z</time>
      </trkpt>
      <trkpt lat="63.3892088161" lon="10.3076714484">
        <ele>272.6</ele>
        <time>2012-02-02T11:32:42Z</time>
      </trkpt>
      <trkpt lat="63.3889711892" lon="10.3076429499">
        <ele>272.2</ele>
        <time>2012-02-02T11:32:47Z</time>
      </trkpt>
      <trkpt lat="63.3888290322" lon="10.3075649144">
        <ele>271.8</ele>
        <time>2012-02-02T11:32:50Z</time>
      </trkpt>
      <trkpt lat="63.3886318061" lon="10.3072998788">
        <ele>271.8</ele>
        <time>2012-02-02T11:32:55Z</time>
      </trkpt>
      <trkpt lat="63.3885929979" lon="10.3072353381">
        <ele>271.6</ele>
        <time>2012-02-02T11:32:56Z</time>
      </trkpt>
      <trkpt lat="63.388429467" lon="10.3069771756">
        <ele>270.8</ele>
        <time>2012-02-02T11:33:00Z</time>
      </trkpt>
      <trkpt lat="63.3882790957" lon="10.306748685">
        <ele>270.4</ele>
        <time>2012-02-02T11:33:03Z</time>
      </trkpt>
      <trkpt lat="63.3881697958" lon="10.3066113895">
        <ele>270</ele>
        <time>2012-02-02T11:33:05Z</time>
      </trkpt>
      <trkpt lat="63.3879295705" lon="10.3063872575">
        <ele>269</ele>
        <time>2012-02-02T11:33:09Z</time>
      </trkpt>
      <trkpt lat="63.387751539" lon="10.3061727647">
        <ele>268</ele>
        <time>2012-02-02T11:33:12Z</time>
      </trkpt>
      <trkpt lat="63.3874477789" lon="10.3052771586">
        <ele>265</ele>
        <time>2012-02-02T11:33:19Z</time>
      </trkpt>
      <trkpt lat="63.3874645427" lon="10.3050985404">
        <ele>264.4</ele>
        <time>2012-02-02T11:33:20Z</time>
      </trkpt>
      <trkpt lat="63.3875217073" lon="10.3048766715">
        <ele>263</ele>
        <time>2012-02-02T11:33:22Z</time>
      </trkpt>
      <trkpt lat="63.3875507925" lon="10.3048118794">
        <ele>261.8</ele>
        <time>2012-02-02T11:33:24Z</time>
      </trkpt>
      <trkpt lat="63.3875569112" lon="10.3048089457">
        <ele>260.8</ele>
        <time>2012-02-02T11:33:25Z</time>
      </trkpt>
      <trkpt lat="63.3875960547" lon="10.3047255458">
        <ele>258.6</ele>
        <time>2012-02-02T11:33:28Z</time>
      </trkpt>
      <trkpt lat="63.3877026725" lon="10.304314246">
        <ele>254.6</ele>
        <time>2012-02-02T11:33:34Z</time>
      </trkpt>
      <trkpt lat="63.3877228729" lon="10.3040035289">
        <ele>252.2</ele>
        <time>2012-02-02T11:33:38Z</time>
      </trkpt>
      <trkpt lat="63.3877356134" lon="10.30381502">
        <ele>250.4</ele>
        <time>2012-02-02T11:33:42Z</time>
      </trkpt>
      <trkpt lat="63.3877430732" lon="10.3037766309">
        <ele>250</ele>
        <time>2012-02-02T11:33:43Z</time>
      </trkpt>
      <trkpt lat="63.3877814623" lon="10.3035442008">
        <ele>248</ele>
        <time>2012-02-02T11:33:48Z</time>
      </trkpt>
      <trkpt lat="63.3878502777" lon="10.3033213261">
        <ele>246.4</ele>
        <time>2012-02-02T11:33:54Z</time>
      </trkpt>
      <trkpt lat="63.3879451609" lon="10.3030724675">
        <ele>244.6</ele>
        <time>2012-02-02T11:34:00Z</time>
      </trkpt>
      <trkpt lat="63.3879935244" lon="10.302868033">
        <ele>244</ele>
        <time>2012-02-02T11:34:04Z</time>
      </trkpt>
      <trkpt lat="63.388040044" lon="10.3025230339">
        <ele>242.6</ele>
        <time>2012-02-02T11:34:09Z</time>
      </trkpt>
      <trkpt lat="63.3880765052" lon="10.3020734288">
        <ele>241.8</ele>
        <time>2012-02-02T11:34:14Z</time>
      </trkpt>
      <trkpt lat="63.3880213523" lon="10.3012717839">
        <ele>241</ele>
        <time>2012-02-02T11:34:23Z</time>
      </trkpt>
      <trkpt lat="63.3879715638" lon="10.3010123641">
        <ele>240.8</ele>
        <time>2012-02-02T11:34:28Z</time>
      </trkpt>
      <trkpt lat="63.3879113818" lon="10.3007713845">
        <ele>240.6</ele>
        <time>2012-02-02T11:34:34Z</time>
      </trkpt>
      <trkpt lat="63.3878800335" lon="10.3006645991">
        <ele>241</ele>
        <time>2012-02-02T11:34:37Z</time>
      </trkpt>
      <trkpt lat="63.3878413929" lon="10.3005584842">
        <ele>241.8</ele>
        <time>2012-02-02T11:34:43Z</time>
      </trkpt>
      <trkpt lat="63.3877118926" lon="10.3002442468">
        <ele>242.2</ele>
        <time>2012-02-02T11:34:47Z</time>
      </trkpt>
      <trkpt lat="63.3876299176" lon="10.3000490323">
        <ele>243.2</ele>
        <time>2012-02-02T11:34:51Z</time>
      </trkpt>
      <trkpt lat="63.3875544805" lon="10.2999377207">
        <ele>243.8</ele>
        <time>2012-02-02T11:34:57Z</time>
      </trkpt>
      <trkpt lat="63.3874566637" lon="10.2997261616">
        <ele>244.2</ele>
        <time>2012-02-02T11:35:02Z</time>
      </trkpt>
      <trkpt lat="63.3872994193" lon="10.2994928095">
        <ele>244.4</ele>
        <time>2012-02-02T11:35:06Z</time>
      </trkpt>
      <trkpt lat="63.3871382353" lon="10.2994591142">
        <ele>244</ele>
        <time>2012-02-02T11:35:09Z</time>
      </trkpt>
      <trkpt lat="63.3869702621" lon="10.2994401711">
        <ele>243.6</ele>
        <time>2012-02-02T11:35:12Z</time>
      </trkpt>
      <trkpt lat="63.3867043044" lon="10.2991066553">
        <ele>242</ele>
        <time>2012-02-02T11:35:19Z</time>
      </trkpt>
      <trkpt lat="63.3866504926" lon="10.2988269513">
        <ele>241</ele>
        <time>2012-02-02T11:35:22Z</time>
      </trkpt>
      <trkpt lat="63.3866431165" lon="10.2987160588">
        <ele>240.6</ele>
        <time>2012-02-02T11:35:23Z</time>
      </trkpt>
      <trkpt lat="63.3866840202" lon="10.2982066907">
        <ele>238.6</ele>
        <time>2012-02-02T11:35:29Z</time>
      </trkpt>
      <trkpt lat="63.3867550149" lon="10.297783321">
        <ele>236.8</ele>
        <time>2012-02-02T11:35:33Z</time>
      </trkpt>
      <trkpt lat="63.3867708567" lon="10.2977148408">
        <ele>236.6</ele>
        <time>2012-02-02T11:35:34Z</time>
      </trkpt>
      <trkpt lat="63.3867913923" lon="10.2976050379">
        <ele>235.6</ele>
        <time>2012-02-02T11:35:36Z</time>
      </trkpt>
      <trkpt lat="63.3868062283" lon="10.2973861865">
        <ele>234</ele>
        <time>2012-02-02T11:35:41Z</time>
      </trkpt>
      <trkpt lat="63.3868296976" lon="10.2971864459">
        <ele>233.2</ele>
        <time>2012-02-02T11:35:46Z</time>
      </trkpt>
      <trkpt lat="63.386882755" lon="10.296900204">
        <ele>232.4</ele>
        <time>2012-02-02T11:35:52Z</time>
      </trkpt>
      <trkpt lat="63.3869582759" lon="10.2966756529">
        <ele>232</ele>
        <time>2012-02-02T11:35:56Z</time>
      </trkpt>
      <trkpt lat="63.3870766284" lon="10.2963266306">
        <ele>231.2</ele>
        <time>2012-02-02T11:36:00Z</time>
      </trkpt>
      <trkpt lat="63.3872088109" lon="10.2960464236">
        <ele>230.8</ele>
        <time>2012-02-02T11:36:03Z</time>
      </trkpt>
      <trkpt lat="63.3872555819" lon="10.2959464276">
        <ele>230.8</ele>
        <time>2012-02-02T11:36:04Z</time>
      </trkpt>
      <trkpt lat="63.3874119044" lon="10.2955047014">
        <ele>230</ele>
        <time>2012-02-02T11:36:07Z</time>
      </trkpt>
      <trkpt lat="63.3874731761" lon="10.2953612033">
        <ele>229.6</ele>
        <time>2012-02-02T11:36:08Z</time>
      </trkpt>
      <trkpt lat="63.3876986492" lon="10.2950476364">
        <ele>228.6</ele>
        <time>2012-02-02T11:36:11Z</time>
      </trkpt>
      <trkpt lat="63.3877764332" lon="10.2950134383">
        <ele>228.2</ele>
        <time>2012-02-02T11:36:12Z</time>
      </trkpt>
      <trkpt lat="63.3879074423" lon="10.294966332">
        <ele>227.6</ele>
        <time>2012-02-02T11:36:14Z</time>
      </trkpt>
      <trkpt lat="63.3880346795" lon="10.2948869554">
        <ele>226.6</ele>
        <time>2012-02-02T11:36:16Z</time>
      </trkpt>
      <trkpt lat="63.3881568876" lon="10.2948356582">
        <ele>225.8</ele>
        <time>2012-02-02T11:36:18Z</time>
      </trkpt>
      <trkpt lat="63.3883065884" lon="10.2945834468">
        <ele>223.8</ele>
        <time>2012-02-02T11:36:22Z</time>
      </trkpt>
      <trkpt lat="63.3883314826" lon="10.2944022301">
        <ele>223.2</ele>
        <time>2012-02-02T11:36:24Z</time>
      </trkpt>
      <trkpt lat="63.3883485817" lon="10.2942766693">
        <ele>222.4</ele>
        <time>2012-02-02T11:36:25Z</time>
      </trkpt>
      <trkpt lat="63.3883818578" lon="10.2939046805">
        <ele>220.4</ele>
        <time>2012-02-02T11:36:29Z</time>
      </trkpt>
      <trkpt lat="63.3883935087" lon="10.2937216199">
        <ele>219.6</ele>
        <time>2012-02-02T11:36:31Z</time>
      </trkpt>
      <trkpt lat="63.3884144634" lon="10.2935278303">
        <ele>218.6</ele>
        <time>2012-02-02T11:36:33Z</time>
      </trkpt>
      <trkpt lat="63.3884911578" lon="10.2931868546">
        <ele>216.8</ele>
        <time>2012-02-02T11:36:37Z</time>
      </trkpt>
      <trkpt lat="63.3886123601" lon="10.292907905">
        <ele>214.6</ele>
        <time>2012-02-02T11:36:42Z</time>
      </trkpt>
      <trkpt lat="63.3886302135" lon="10.2928653249">
        <ele>214.2</ele>
        <time>2012-02-02T11:36:43Z</time>
      </trkpt>
      <trkpt lat="63.3887435368" lon="10.2926240939">
        <ele>213</ele>
        <time>2012-02-02T11:36:48Z</time>
      </trkpt>
      <trkpt lat="63.3888607996" lon="10.2923437193">
        <ele>212.4</ele>
        <time>2012-02-02T11:36:53Z</time>
      </trkpt>
      <trkpt lat="63.3889533358" lon="10.2920418871">
        <ele>211</ele>
        <time>2012-02-02T11:36:58Z</time>
      </trkpt>
      <trkpt lat="63.3889738714" lon="10.2917341037">
        <ele>210.2</ele>
        <time>2012-02-02T11:37:03Z</time>
      </trkpt>
      <trkpt lat="63.3889316267" lon="10.2915044397">
        <ele>209.8</ele>
        <time>2012-02-02T11:37:07Z</time>
      </trkpt>
      <trkpt lat="63.3888126875" lon="10.2912995022">
        <ele>209.6</ele>
        <time>2012-02-02T11:37:12Z</time>
      </trkpt>
      <trkpt lat="63.3886949218" lon="10.2912036971">
        <ele>209.4</ele>
        <time>2012-02-02T11:37:16Z</time>
      </trkpt>
      <trkpt lat="63.388604984" lon="10.2911130888">
        <ele>209.8</ele>
        <time>2012-02-02T11:37:21Z</time>
      </trkpt>
      <trkpt lat="63.3885956801" lon="10.2911161062">
        <ele>209.8</ele>
        <time>2012-02-02T11:37:22Z</time>
      </trkpt>
      <trkpt lat="63.3885803412" lon="10.2910962411">
        <ele>210.2</ele>
        <time>2012-02-02T11:37:25Z</time>
      </trkpt>
      <trkpt lat="63.3885329835" lon="10.2910924693">
        <ele>210.8</ele>
        <time>2012-02-02T11:37:29Z</time>
      </trkpt>
      <trkpt lat="63.388516555" lon="10.2910852608">
        <ele>211.4</ele>
        <time>2012-02-02T11:37:31Z</time>
      </trkpt>
      <trkpt lat="63.388488308" lon="10.2910759569">
        <ele>212</ele>
        <time>2012-02-02T11:37:34Z</time>
      </trkpt>
      <trkpt lat="63.388445225" lon="10.2910418426">
        <ele>213.4</ele>
        <time>2012-02-02T11:37:39Z</time>
      </trkpt>
      <trkpt lat="63.3883645911" lon="10.2909849295">
        <ele>215.6</ele>
        <time>2012-02-02T11:37:47Z</time>
      </trkpt>
      <trkpt lat="63.3883231845" lon="10.2909635557">
        <ele>216.6</ele>
        <time>2012-02-02T11:37:52Z</time>
      </trkpt>
      <trkpt lat="63.3882878129" lon="10.2909451155">
        <ele>217.6</ele>
        <time>2012-02-02T11:37:56Z</time>
      </trkpt>
      <trkpt lat="63.3882764135" lon="10.2909436067">
        <ele>218</ele>
        <time>2012-02-02T11:37:57Z</time>
      </trkpt>
      <trkpt lat="63.3882717197" lon="10.2909422656">
        <ele>218.4</ele>
        <time>2012-02-02T11:37:59Z</time>
      </trkpt>
      <trkpt lat="63.388248418" lon="10.2909214785">
        <ele>219.2</ele>
        <time>2012-02-02T11:38:02Z</time>
      </trkpt>
      <trkpt lat="63.3882117053" lon="10.2908173753">
        <ele>220.8</ele>
        <time>2012-02-02T11:38:08Z</time>
      </trkpt>
      <trkpt lat="63.3881872301" lon="10.2907048064">
        <ele>222.2</ele>
        <time>2012-02-02T11:38:13Z</time>
      </trkpt>
      <trkpt lat="63.3881741544" lon="10.2905359111">
        <ele>223.6</ele>
        <time>2012-02-02T11:38:20Z</time>
      </trkpt>
      <trkpt lat="63.3882311513" lon="10.2903598074">
        <ele>224.6</ele>
        <time>2012-02-02T11:38:26Z</time>
      </trkpt>
      <trkpt lat="63.38832067" lon="10.2900977054">
        <ele>225.2</ele>
        <time>2012-02-02T11:38:30Z</time>
      </trkpt>
      <trkpt lat="63.3883787565" lon="10.2898926003">
        <ele>225.6</ele>
        <time>2012-02-02T11:38:35Z</time>
      </trkpt>
      <trkpt lat="63.3884016391" lon="10.2898146486">
        <ele>226</ele>
        <time>2012-02-02T11:38:39Z</time>
      </trkpt>
      <trkpt lat="63.3884350829" lon="10.289689926">
        <ele>226.2</ele>
        <time>2012-02-02T11:38:46Z</time>
      </trkpt>
      <trkpt lat="63.3884427943" lon="10.2896548896">
        <ele>226.6</ele>
        <time>2012-02-02T11:38:48Z</time>
      </trkpt>
      <trkpt lat="63.3884532716" lon="10.2896087892">
        <ele>227</ele>
        <time>2012-02-02T11:38:50Z</time>
      </trkpt>
      <trkpt lat="63.3884730529" lon="10.2895647004">
        <ele>227.4</ele>
        <time>2012-02-02T11:38:54Z</time>
      </trkpt>
      <trkpt lat="63.3884781659" lon="10.2895470984">
        <ele>227.6</ele>
        <time>2012-02-02T11:38:55Z</time>
      </trkpt>
      <trkpt lat="63.3884885594" lon="10.289483815">
        <ele>227.8</ele>
        <time>2012-02-02T11:38:59Z</time>
      </trkpt>
      <trkpt lat="63.3885219194" lon="10.289334701">
        <ele>228.2</ele>
        <time>2012-02-02T11:39:06Z</time>
      </trkpt>
      <trkpt lat="63.3885765694" lon="10.2890957331">
        <ele>228.8</ele>
        <time>2012-02-02T11:39:12Z</time>
      </trkpt>
      <trkpt lat="63.3885947581" lon="10.2889962399">
        <ele>229.4</ele>
        <time>2012-02-02T11:39:17Z</time>
      </trkpt>
      <trkpt lat="63.3886513359" lon="10.288809575">
        <ele>230</ele>
        <time>2012-02-02T11:39:23Z</time>
      </trkpt>
      <trkpt lat="63.3887182235" lon="10.2886183839">
        <ele>231</ele>
        <time>2012-02-02T11:39:29Z</time>
      </trkpt>
      <trkpt lat="63.3888266015" lon="10.2884508297">
        <ele>231.6</ele>
        <time>2012-02-02T11:39:35Z</time>
      </trkpt>
      <trkpt lat="63.3889673336" lon="10.2882323135">
        <ele>232</ele>
        <time>2012-02-02T11:39:39Z</time>
      </trkpt>
      <trkpt lat="63.3890711853" lon="10.2880937607">
        <ele>232.2</ele>
        <time>2012-02-02T11:39:43Z</time>
      </trkpt>
      <trkpt lat="63.3890870271" lon="10.2880820261">
        <ele>232.2</ele>
        <time>2012-02-02T11:39:46Z</time>
      </trkpt>
      <trkpt lat="63.3890888711" lon="10.2880920005">
        <ele>232.2</ele>
        <time>2012-02-02T11:39:47Z</time>
      </trkpt>
      <trkpt lat="63.3891058864" lon="10.2880945151">
        <ele>232.2</ele>
        <time>2012-02-02T11:39:50Z</time>
      </trkpt>
      <trkpt lat="63.3891284337" lon="10.2880161443">
        <ele>233</ele>
        <time>2012-02-02T11:39:55Z</time>
      </trkpt>
      <trkpt lat="63.389161626" lon="10.2879168188">
        <ele>233.8</ele>
        <time>2012-02-02T11:40:01Z</time>
      </trkpt>
      <trkpt lat="63.389205631" lon="10.2876608356">
        <ele>234.8</ele>
        <time>2012-02-02T11:40:06Z</time>
      </trkpt>
      <trkpt lat="63.3892109116" lon="10.2872424112">
        <ele>235.6</ele>
        <time>2012-02-02T11:40:11Z</time>
      </trkpt>
      <trkpt lat="63.3892016915" lon="10.2868889464">
        <ele>236</ele>
        <time>2012-02-02T11:40:17Z</time>
      </trkpt>
      <trkpt lat="63.3892028649" lon="10.2868574305">
        <ele>236</ele>
        <time>2012-02-02T11:40:18Z</time>
      </trkpt>
      <trkpt lat="63.3891943992" lon="10.2867855976">
        <ele>236.2</ele>
        <time>2012-02-02T11:40:22Z</time>
      </trkpt>
      <trkpt lat="63.3891859335" lon="10.2866824164">
        <ele>236.4</ele>
        <time>2012-02-02T11:40:26Z</time>
      </trkpt>
      <trkpt lat="63.3891877775" lon="10.2864043888">
        <ele>236.4</ele>
        <time>2012-02-02T11:40:33Z</time>
      </trkpt>
      <trkpt lat="63.3892244902" lon="10.2861874652">
        <ele>237.2</ele>
        <time>2012-02-02T11:40:38Z</time>
      </trkpt>
      <trkpt lat="63.3892726862" lon="10.2860200787">
        <ele>237.8</ele>
        <time>2012-02-02T11:40:43Z</time>
      </trkpt>
      <trkpt lat="63.3893524819" lon="10.2857506844">
        <ele>238.8</ele>
        <time>2012-02-02T11:40:49Z</time>
      </trkpt>
      <trkpt lat="63.3894715887" lon="10.2855439029">
        <ele>239.6</ele>
        <time>2012-02-02T11:40:53Z</time>
      </trkpt>
      <trkpt lat="63.3896578345" lon="10.2854266402">
        <ele>240</ele>
        <time>2012-02-02T11:40:57Z</time>
      </trkpt>
      <trkpt lat="63.389744671" lon="10.2854035061">
        <ele>240.2</ele>
        <time>2012-02-02T11:40:59Z</time>
      </trkpt>
      <trkpt lat="63.3899993969" lon="10.28546285">
        <ele>240.4</ele>
        <time>2012-02-02T11:41:04Z</time>
      </trkpt>
      <trkpt lat="63.390194779" lon="10.2855137281">
        <ele>240.6</ele>
        <time>2012-02-02T11:41:07Z</time>
      </trkpt>
      <trkpt lat="63.3903707989" lon="10.2854988921">
        <ele>240.4</ele>
        <time>2012-02-02T11:41:09Z</time>
      </trkpt>
      <trkpt lat="63.3906416181" lon="10.2852511232">
        <ele>240</ele>
        <time>2012-02-02T11:41:12Z</time>
      </trkpt>
      <trkpt lat="63.3907110202" lon="10.2851688129">
        <ele>239.6</ele>
        <time>2012-02-02T11:41:13Z</time>
      </trkpt>
      <trkpt lat="63.3908048975" lon="10.2850901907">
        <ele>239</ele>
        <time>2012-02-02T11:41:15Z</time>
      </trkpt>
      <trkpt lat="63.3909395108" lon="10.2850529751">
        <ele>237.8</ele>
        <time>2012-02-02T11:41:19Z</time>
      </trkpt>
      <trkpt lat="63.3909759721" lon="10.2850328585">
        <ele>237.4</ele>
        <time>2012-02-02T11:41:20Z</time>
      </trkpt>
      <trkpt lat="63.3910677539" lon="10.2849155957">
        <ele>236.6</ele>
        <time>2012-02-02T11:41:23Z</time>
      </trkpt>
      <trkpt lat="63.3912178737" lon="10.2847614526">
        <ele>235.8</ele>
        <time>2012-02-02T11:41:27Z</time>
      </trkpt>
      <trkpt lat="63.3913832486" lon="10.2843834289">
        <ele>234.4</ele>
        <time>2012-02-02T11:41:32Z</time>
      </trkpt>
      <trkpt lat="63.3914895311" lon="10.2841034734">
        <ele>233.6</ele>
        <time>2012-02-02T11:41:36Z</time>
      </trkpt>
      <trkpt lat="63.3915965679" lon="10.2839691116">
        <ele>232.8</ele>
        <time>2012-02-02T11:41:40Z</time>
      </trkpt>
      <trkpt lat="63.3916238091" lon="10.2839442173">
        <ele>232.4</ele>
        <time>2012-02-02T11:41:41Z</time>
      </trkpt>
      <trkpt lat="63.3917217097" lon="10.2838902379">
        <ele>231.8</ele>
        <time>2012-02-02T11:41:45Z</time>
      </trkpt>
      <trkpt lat="63.3918347815" lon="10.2837570495">
        <ele>231</ele>
        <time>2012-02-02T11:41:51Z</time>
      </trkpt>
      <trkpt lat="63.3919274854" lon="10.2835699655">
        <ele>230.6</ele>
        <time>2012-02-02T11:41:56Z</time>
      </trkpt>
      <trkpt lat="63.3919863263" lon="10.2834246233">
        <ele>231</ele>
        <time>2012-02-02T11:42:00Z</time>
      </trkpt>
      <trkpt lat="63.3920535491" lon="10.2831206956">
        <ele>231.6</ele>
        <time>2012-02-02T11:42:06Z</time>
      </trkpt>
      <trkpt lat="63.3920812094" lon="10.2828498765">
        <ele>232.2</ele>
        <time>2012-02-02T11:42:10Z</time>
      </trkpt>
      <trkpt lat="63.3921112166" lon="10.2824322902">
        <ele>233</ele>
        <time>2012-02-02T11:42:14Z</time>
      </trkpt>
      <trkpt lat="63.3921060198" lon="10.2821922326">
        <ele>233.2</ele>
        <time>2012-02-02T11:42:16Z</time>
      </trkpt>
      <trkpt lat="63.3919729991" lon="10.2814506859">
        <ele>234</ele>
        <time>2012-02-02T11:42:28Z</time>
      </trkpt>
      <trkpt lat="63.3919648686" lon="10.2813771766">
        <ele>234.4</ele>
        <time>2012-02-02T11:42:30Z</time>
      </trkpt>
      <trkpt lat="63.3919672156" lon="10.2811338501">
        <ele>235.2</ele>
        <time>2012-02-02T11:42:36Z</time>
      </trkpt>
      <trkpt lat="63.3919953788" lon="10.280888428">
        <ele>236</ele>
        <time>2012-02-02T11:42:41Z</time>
      </trkpt>
      <trkpt lat="63.3920571534" lon="10.280617525">
        <ele>237</ele>
        <time>2012-02-02T11:42:46Z</time>
      </trkpt>
      <trkpt lat="63.3921518688" lon="10.2803069756">
        <ele>237.6</ele>
        <time>2012-02-02T11:42:51Z</time>
      </trkpt>
      <trkpt lat="63.3922506914" lon="10.2801036307">
        <ele>237.8</ele>
        <time>2012-02-02T11:42:55Z</time>
      </trkpt>
      <trkpt lat="63.3923594047" lon="10.2800941592">
        <ele>238</ele>
        <time>2012-02-02T11:42:59Z</time>
      </trkpt>
      <trkpt lat="63.3924589816" lon="10.2801005294">
        <ele>238.6</ele>
        <time>2012-02-02T11:43:03Z</time>
      </trkpt>
      <trkpt lat="63.3925591453" lon="10.2800870346">
        <ele>239.2</ele>
        <time>2012-02-02T11:43:08Z</time>
      </trkpt>
      <trkpt lat="63.3926734745" lon="10.279879834">
        <ele>239.8</ele>
        <time>2012-02-02T11:43:13Z</time>
      </trkpt>
      <trkpt lat="63.3928281205" lon="10.2792632614">
        <ele>240.2</ele>
        <time>2012-02-02T11:43:22Z</time>
      </trkpt>
      <trkpt lat="63.3929319723" lon="10.2790827991">
        <ele>240.2</ele>
        <time>2012-02-02T11:43:25Z</time>
      </trkpt>
      <trkpt lat="63.3930712794" lon="10.2785469443">
        <ele>240.2</ele>
        <time>2012-02-02T11:43:30Z</time>
      </trkpt>
      <trkpt lat="63.3931070701" lon="10.2784129177">
        <ele>240.2</ele>
        <time>2012-02-02T11:43:31Z</time>
      </trkpt>
      <trkpt lat="63.3931889613" lon="10.2781514024">
        <ele>240.2</ele>
        <time>2012-02-02T11:43:33Z</time>
      </trkpt>
      <trkpt lat="63.3932581958" lon="10.2776327304">
        <ele>240.4</ele>
        <time>2012-02-02T11:43:37Z</time>
      </trkpt>
      <trkpt lat="63.3933134325" lon="10.2771440657">
        <ele>240.4</ele>
        <time>2012-02-02T11:43:41Z</time>
      </trkpt>
      <trkpt lat="63.3933361475" lon="10.277031832">
        <ele>240.4</ele>
        <time>2012-02-02T11:43:42Z</time>
      </trkpt>
      <trkpt lat="63.3935037855" lon="10.276658586">
        <ele>240</ele>
        <time>2012-02-02T11:43:46Z</time>
      </trkpt>
      <trkpt lat="63.393738814" lon="10.2765704923">
        <ele>239.4</ele>
        <time>2012-02-02T11:43:49Z</time>
      </trkpt>
      <trkpt lat="63.3938060368" lon="10.2765843224">
        <ele>239.4</ele>
        <time>2012-02-02T11:43:50Z</time>
      </trkpt>
      <trkpt lat="63.3938739302" lon="10.2765947159">
        <ele>239.2</ele>
        <time>2012-02-02T11:43:51Z</time>
      </trkpt>
      <trkpt lat="63.394086579" lon="10.2764953904">
        <ele>238.6</ele>
        <time>2012-02-02T11:43:55Z</time>
      </trkpt>
      <trkpt lat="63.3941386306" lon="10.2764495414">
        <ele>238.4</ele>
        <time>2012-02-02T11:43:56Z</time>
      </trkpt>
      <trkpt lat="63.3942235392" lon="10.2763456059">
        <ele>238</ele>
        <time>2012-02-02T11:43:58Z</time>
      </trkpt>
      <trkpt lat="63.3943242897" lon="10.2761679934">
        <ele>237.4</ele>
        <time>2012-02-02T11:44:01Z</time>
      </trkpt>
      <trkpt lat="63.3943771795" lon="10.2760648122">
        <ele>237.2</ele>
        <time>2012-02-02T11:44:03Z</time>
      </trkpt>
      <trkpt lat="63.3944293149" lon="10.2759778081">
        <ele>236.8</ele>
        <time>2012-02-02T11:44:05Z</time>
      </trkpt>
      <trkpt lat="63.3945314902" lon="10.2758369922">
        <ele>235.8</ele>
        <time>2012-02-02T11:44:09Z</time>
      </trkpt>
      <trkpt lat="63.3945766687" lon="10.2757847729">
        <ele>235.4</ele>
        <time>2012-02-02T11:44:11Z</time>
      </trkpt>
      <trkpt lat="63.3946805204" lon="10.2756204039">
        <ele>234.8</ele>
        <time>2012-02-02T11:44:16Z</time>
      </trkpt>
      <trkpt lat="63.3947406186" lon="10.2755465593">
        <ele>234.6</ele>
        <time>2012-02-02T11:44:18Z</time>
      </trkpt>
      <trkpt lat="63.3948319813" lon="10.2754809291">
        <ele>234.4</ele>
        <time>2012-02-02T11:44:22Z</time>
      </trkpt>
      <trkpt lat="63.3950054029" lon="10.2753862136">
        <ele>234.2</ele>
        <time>2012-02-02T11:44:30Z</time>
      </trkpt>
      <trkpt lat="63.3950301295" lon="10.275367522">
        <ele>234.2</ele>
        <time>2012-02-02T11:44:31Z</time>
      </trkpt>
      <trkpt lat="63.3951573667" lon="10.2752977007">
        <ele>234</ele>
        <time>2012-02-02T11:44:36Z</time>
      </trkpt>
      <trkpt lat="63.3952447061" lon="10.2752558751">
        <ele>234</ele>
        <time>2012-02-02T11:44:40Z</time>
      </trkpt>
      <trkpt lat="63.3952731207" lon="10.2752445595">
        <ele>234</ele>
        <time>2012-02-02T11:44:41Z</time>
      </trkpt>
      <trkpt lat="63.3953791518" lon="10.2751579745">
        <ele>234</ele>
        <time>2012-02-02T11:44:46Z</time>
      </trkpt>
      <trkpt lat="63.3954672455" lon="10.2751298951">
        <ele>234</ele>
        <time>2012-02-02T11:44:50Z</time>
      </trkpt>
      <trkpt lat="63.3955691695" lon="10.2750554638">
        <ele>234.4</ele>
        <time>2012-02-02T11:44:54Z</time>
      </trkpt>
      <trkpt lat="63.3956979993" lon="10.2750021549">
        <ele>235</ele>
        <time>2012-02-02T11:44:59Z</time>
      </trkpt>
      <trkpt lat="63.3958243983" lon="10.2749117981">
        <ele>235.4</ele>
        <time>2012-02-02T11:45:03Z</time>
      </trkpt>
      <trkpt lat="63.395928753" lon="10.2748047612">
        <ele>236</ele>
        <time>2012-02-02T11:45:07Z</time>
      </trkpt>
      <trkpt lat="63.3960266536" lon="10.2746817987">
        <ele>236.8</ele>
        <time>2012-02-02T11:45:11Z</time>
      </trkpt>
      <trkpt lat="63.39612556" lon="10.2745726664">
        <ele>237.2</ele>
        <time>2012-02-02T11:45:15Z</time>
      </trkpt>
      <trkpt lat="63.3962529649" lon="10.2743862529">
        <ele>237.6</ele>
        <time>2012-02-02T11:45:22Z</time>
      </trkpt>
      <trkpt lat="63.3963371191" lon="10.2742883523">
        <ele>238.8</ele>
        <time>2012-02-02T11:45:28Z</time>
      </trkpt>
      <trkpt lat="63.3963845607" lon="10.274228757">
        <ele>239.8</ele>
        <time>2012-02-02T11:45:33Z</time>
      </trkpt>
      <trkpt lat="63.3964401327" lon="10.2741577623">
        <ele>241</ele>
        <time>2012-02-02T11:45:39Z</time>
      </trkpt>
      <trkpt lat="63.3964516997" lon="10.2741535714">
        <ele>241.2</ele>
        <time>2012-02-02T11:45:40Z</time>
      </trkpt>
      <trkpt lat="63.3964835509" lon="10.2741135897">
        <ele>242</ele>
        <time>2012-02-02T11:45:43Z</time>
      </trkpt>
      <trkpt lat="63.3965429786" lon="10.2740826605">
        <ele>243.6</ele>
        <time>2012-02-02T11:45:48Z</time>
      </trkpt>
      <trkpt lat="63.3966369397" lon="10.2740672378">
        <ele>245.8</ele>
        <time>2012-02-02T11:45:56Z</time>
      </trkpt>
      <trkpt lat="63.396709946" lon="10.2740756197">
        <ele>247.8</ele>
        <time>2012-02-02T11:46:02Z</time>
      </trkpt>
      <trkpt lat="63.3968189946" lon="10.2740959877">
        <ele>249.2</ele>
        <time>2012-02-02T11:46:07Z</time>
      </trkpt>
      <trkpt lat="63.3969672704" lon="10.2741123324">
        <ele>250.6</ele>
        <time>2012-02-02T11:46:12Z</time>
      </trkpt>
      <trkpt lat="63.3972183921" lon="10.2741215525">
        <ele>251.6</ele>
        <time>2012-02-02T11:46:18Z</time>
      </trkpt>
      <trkpt lat="63.3974304542" lon="10.2740467022">
        <ele>252</ele>
        <time>2012-02-02T11:46:22Z</time>
      </trkpt>
      <trkpt lat="63.397586609" lon="10.2740142642">
        <ele>252.2</ele>
        <time>2012-02-02T11:46:26Z</time>
      </trkpt>
      <trkpt lat="63.3976586933" lon="10.2739849276">
        <ele>253</ele>
        <time>2012-02-02T11:46:29Z</time>
      </trkpt>
      <trkpt lat="63.3977467871" lon="10.2739473766">
        <ele>253.6</ele>
        <time>2012-02-02T11:46:33Z</time>
      </trkpt>
      <trkpt lat="63.3977683286" lon="10.2739262543">
        <ele>253.6</ele>
        <time>2012-02-02T11:46:34Z</time>
      </trkpt>
      <trkpt lat="63.3978508065" lon="10.2738705146">
        <ele>254</ele>
        <time>2012-02-02T11:46:37Z</time>
      </trkpt>
      <trkpt lat="63.3980088053" lon="10.2737959157">
        <ele>254.2</ele>
        <time>2012-02-02T11:46:42Z</time>
      </trkpt>
      <trkpt lat="63.3981028502" lon="10.273757359">
        <ele>254.4</ele>
        <time>2012-02-02T11:46:45Z</time>
      </trkpt>
      <trkpt lat="63.3983218692" lon="10.2737310398">
        <ele>254.6</ele>
        <time>2012-02-02T11:46:50Z</time>
      </trkpt>
      <trkpt lat="63.398427565" lon="10.2737699318">
        <ele>254.6</ele>
        <time>2012-02-02T11:46:52Z</time>
      </trkpt>
      <trkpt lat="63.3985908444" lon="10.2737650703">
        <ele>254.6</ele>
        <time>2012-02-02T11:46:57Z</time>
      </trkpt>
      <trkpt lat="63.3986181694" lon="10.2737724464">
        <ele>254.6</ele>
        <time>2012-02-02T11:46:58Z</time>
      </trkpt>
      <trkpt lat="63.3987441494" lon="10.2738431058">
        <ele>254.6</ele>
        <time>2012-02-02T11:47:03Z</time>
      </trkpt>
      <trkpt lat="63.3988505157" lon="10.2739428504">
        <ele>254.8</ele>
        <time>2012-02-02T11:47:08Z</time>
      </trkpt>
      <trkpt lat="63.3989702092" lon="10.2741415015">
        <ele>254.8</ele>
        <time>2012-02-02T11:47:14Z</time>
      </trkpt>
      <trkpt lat="63.3990591412" lon="10.2742545733">
        <ele>254.8</ele>
        <time>2012-02-02T11:47:18Z</time>
      </trkpt>
      <trkpt lat="63.399131896" lon="10.2743103967">
        <ele>254.8</ele>
        <time>2012-02-02T11:47:22Z</time>
      </trkpt>
      <trkpt lat="63.3992935829" lon="10.274429755">
        <ele>254.8</ele>
        <time>2012-02-02T11:47:29Z</time>
      </trkpt>
      <trkpt lat="63.399427358" lon="10.2744753525">
        <ele>254.8</ele>
        <time>2012-02-02T11:47:34Z</time>
      </trkpt>
      <trkpt lat="63.3994457144" lon="10.2744702396">
        <ele>254.8</ele>
        <time>2012-02-02T11:47:35Z</time>
      </trkpt>
      <trkpt lat="63.3995057288" lon="10.2744822257">
        <ele>255.2</ele>
        <time>2012-02-02T11:47:37Z</time>
      </trkpt>
      <trkpt lat="63.3996448683" lon="10.2744750173">
        <ele>255.8</ele>
        <time>2012-02-02T11:47:41Z</time>
      </trkpt>
      <trkpt lat="63.399703374" lon="10.27447376">
        <ele>256</ele>
        <time>2012-02-02T11:47:43Z</time>
      </trkpt>
      <trkpt lat="63.3998257497" lon="10.27446169">
        <ele>256.2</ele>
        <time>2012-02-02T11:47:48Z</time>
      </trkpt>
      <trkpt lat="63.3999501371" lon="10.2743041941">
        <ele>257</ele>
        <time>2012-02-02T11:47:54Z</time>
      </trkpt>
      <trkpt lat="63.3999615365" lon="10.2740059661">
        <ele>257.8</ele>
        <time>2012-02-02T11:47:58Z</time>
      </trkpt>
      <trkpt lat="63.399990957" lon="10.2735410221">
        <ele>258</ele>
        <time>2012-02-02T11:48:01Z</time>
      </trkpt>
      <trkpt lat="63.4000259095" lon="10.2731944306">
        <ele>258.2</ele>
        <time>2012-02-02T11:48:03Z</time>
      </trkpt>
      <trkpt lat="63.4000983291" lon="10.2727236192">
        <ele>258.4</ele>
        <time>2012-02-02T11:48:07Z</time>
      </trkpt>
      <trkpt lat="63.4001024362" lon="10.2725600046">
        <ele>258.6</ele>
        <time>2012-02-02T11:48:11Z</time>
      </trkpt>
      <trkpt lat="63.4001021848" lon="10.2725391336">
        <ele>258.6</ele>
        <time>2012-02-02T11:48:12Z</time>
      </trkpt>
      <trkpt lat="63.4001075492" lon="10.272476437">
        <ele>258.6</ele>
        <time>2012-02-02T11:48:15Z</time>
      </trkpt>
      <trkpt lat="63.4001041964" lon="10.2723523849">
        <ele>258.8</ele>
        <time>2012-02-02T11:48:21Z</time>
      </trkpt>
      <trkpt lat="63.4001054537" lon="10.2722637044">
        <ele>258.8</ele>
        <time>2012-02-02T11:48:26Z</time>
      </trkpt>
      <trkpt lat="63.4001021848" lon="10.2722061207">
        <ele>258.8</ele>
        <time>2012-02-02T11:48:29Z</time>
      </trkpt>
      <trkpt lat="63.400082655" lon="10.2720905343">
        <ele>258.8</ele>
        <time>2012-02-02T11:48:35Z</time>
      </trkpt>
      <trkpt lat="63.4000796375" lon="10.2720731838">
        <ele>258.8</ele>
        <time>2012-02-02T11:48:36Z</time>
      </trkpt>
      <trkpt lat="63.4000612811" lon="10.271931865">
        <ele>259.2</ele>
        <time>2012-02-02T11:48:40Z</time>
      </trkpt>
      <trkpt lat="63.4000451041" lon="10.2718051306">
        <ele>260</ele>
        <time>2012-02-02T11:48:45Z</time>
      </trkpt>
      <trkpt lat="63.4000251551" lon="10.2716925617">
        <ele>261</ele>
        <time>2012-02-02T11:48:50Z</time>
      </trkpt>
      <trkpt lat="63.4000269991" lon="10.2716883708">
        <ele>261.2</ele>
        <time>2012-02-02T11:48:51Z</time>
      </trkpt>
      <trkpt lat="63.400020126" lon="10.2716275182">
        <ele>261.8</ele>
        <time>2012-02-02T11:48:55Z</time>
      </trkpt>
      <trkpt lat="63.4000118279" lon="10.2714825951">
        <ele>263.2</ele>
        <time>2012-02-02T11:49:00Z</time>
      </trkpt>
      <trkpt lat="63.400021048" lon="10.2712250193">
        <ele>264</ele>
        <time>2012-02-02T11:49:04Z</time>
      </trkpt>
      <trkpt lat="63.4000977424" lon="10.2707194231">
        <ele>264.4</ele>
        <time>2012-02-02T11:49:08Z</time>
      </trkpt>
      <trkpt lat="63.4001610257" lon="10.2703144097">
        <ele>264.6</ele>
        <time>2012-02-02T11:49:11Z</time>
      </trkpt>
      <trkpt lat="63.4001770352" lon="10.2701591769">
        <ele>264.8</ele>
        <time>2012-02-02T11:49:12Z</time>
      </trkpt>
      <trkpt lat="63.4001764484" lon="10.2697223123">
        <ele>264.8</ele>
        <time>2012-02-02T11:49:15Z</time>
      </trkpt>
      <trkpt lat="63.4001433399" lon="10.2694587016">
        <ele>265</ele>
        <time>2012-02-02T11:49:17Z</time>
      </trkpt>
      <trkpt lat="63.4000328665" lon="10.2689443882">
        <ele>265</ele>
        <time>2012-02-02T11:49:21Z</time>
      </trkpt>
      <trkpt lat="63.3999394921" lon="10.2685722318">
        <ele>265.2</ele>
        <time>2012-02-02T11:49:25Z</time>
      </trkpt>
      <trkpt lat="63.3998829981" lon="10.2683458367">
        <ele>265.2</ele>
        <time>2012-02-02T11:49:28Z</time>
      </trkpt>
      <trkpt lat="63.3998596964" lon="10.2682667954">
        <ele>265</ele>
        <time>2012-02-02T11:49:29Z</time>
      </trkpt>
      <trkpt lat="63.3997620473" lon="10.2678317748">
        <ele>264.2</ele>
        <time>2012-02-02T11:49:35Z</time>
      </trkpt>
      <trkpt lat="63.3997640589" lon="10.267780729">
        <ele>264</ele>
        <time>2012-02-02T11:49:36Z</time>
      </trkpt>
      <trkpt lat="63.3997477142" lon="10.2675729417">
        <ele>263.2</ele>
        <time>2012-02-02T11:49:40Z</time>
      </trkpt>
      <trkpt lat="63.3997250831" lon="10.2672716962">
        <ele>262.4</ele>
        <time>2012-02-02T11:49:44Z</time>
      </trkpt>
      <trkpt lat="63.399699686" lon="10.2668930858">
        <ele>262</ele>
        <time>2012-02-02T11:49:49Z</time>
      </trkpt>
      <trkpt lat="63.399694573" lon="10.2666618292">
        <ele>261.6</ele>
        <time>2012-02-02T11:49:54Z</time>
      </trkpt>
      <trkpt lat="63.3997032902" lon="10.2664703028">
        <ele>261.4</ele>
        <time>2012-02-02T11:49:58Z</time>
      </trkpt>
      <trkpt lat="63.3997054695" lon="10.2664052592">
        <ele>261.4</ele>
        <time>2012-02-02T11:49:59Z</time>
      </trkpt>
      <trkpt lat="63.39970614" lon="10.2660377967">
        <ele>261.2</ele>
        <time>2012-02-02T11:50:03Z</time>
      </trkpt>
      <trkpt lat="63.3996908011" lon="10.2655611181">
        <ele>261.2</ele>
        <time>2012-02-02T11:50:07Z</time>
      </trkpt>
      <trkpt lat="63.3996949083" lon="10.2654628822">
        <ele>261.2</ele>
        <time>2012-02-02T11:50:08Z</time>
      </trkpt>
      <trkpt lat="63.3996999374" lon="10.265373615">
        <ele>261.2</ele>
        <time>2012-02-02T11:50:09Z</time>
      </trkpt>
      <trkpt lat="63.3997277653" lon="10.2651319648">
        <ele>261.2</ele>
        <time>2012-02-02T11:50:12Z</time>
      </trkpt>
      <trkpt lat="63.3998119196" lon="10.2647794221">
        <ele>261.2</ele>
        <time>2012-02-02T11:50:17Z</time>
      </trkpt>
      <trkpt lat="63.3998648094" lon="10.2646824435">
        <ele>261.2</ele>
        <time>2012-02-02T11:50:19Z</time>
      </trkpt>
      <trkpt lat="63.3999922143" lon="10.2645056692">
        <ele>261.2</ele>
        <time>2012-02-02T11:50:23Z</time>
      </trkpt>
      <trkpt lat="63.4001412444" lon="10.264301067">
        <ele>261.2</ele>
        <time>2012-02-02T11:50:28Z</time>
      </trkpt>
      <trkpt lat="63.4001708326" lon="10.2642647734">
        <ele>261.2</ele>
        <time>2012-02-02T11:50:31Z</time>
      </trkpt>
      <trkpt lat="63.4002154243" lon="10.2642351015">
        <ele>261.2</ele>
        <time>2012-02-02T11:50:36Z</time>
      </trkpt>
      <trkpt lat="63.4002499577" lon="10.264211716">
        <ele>261.2</ele>
        <time>2012-02-02T11:50:40Z</time>
      </trkpt>
      <trkpt lat="63.4002528075" lon="10.2642077765">
        <ele>261.2</ele>
        <time>2012-02-02T11:50:41Z</time>
      </trkpt>
      <trkpt lat="63.4002661348" lon="10.2641662023">
        <ele>261.2</ele>
        <time>2012-02-02T11:50:44Z</time>
      </trkpt>
      <trkpt lat="63.4002991594" lon="10.264111217">
        <ele>261.2</ele>
        <time>2012-02-02T11:50:48Z</time>
      </trkpt>
      <trkpt lat="63.4003629457" lon="10.2639522962">
        <ele>261.6</ele>
        <time>2012-02-02T11:50:53Z</time>
      </trkpt>
      <trkpt lat="63.4003761891" lon="10.2638876717">
        <ele>261.6</ele>
        <time>2012-02-02T11:50:54Z</time>
      </trkpt>
      <trkpt lat="63.400376692" lon="10.2635591851">
        <ele>262.4</ele>
        <time>2012-02-02T11:50:59Z</time>
      </trkpt>
      <trkpt lat="63.4003766082" lon="10.2631286069">
        <ele>262.6</ele>
        <time>2012-02-02T11:51:04Z</time>
      </trkpt>
      <trkpt lat="63.4004204455" lon="10.2628605537">
        <ele>262.8</ele>
        <time>2012-02-02T11:51:08Z</time>
      </trkpt>
      <trkpt lat="63.4005138199" lon="10.262638601">
        <ele>263.8</ele>
        <time>2012-02-02T11:51:13Z</time>
      </trkpt>
      <trkpt lat="63.4005928612" lon="10.2625445561">
        <ele>264.4</ele>
        <time>2012-02-02T11:51:18Z</time>
      </trkpt>
      <trkpt lat="63.4006899236" lon="10.2624479966">
        <ele>265.2</ele>
        <time>2012-02-02T11:51:24Z</time>
      </trkpt>
      <trkpt lat="63.4007397959" lon="10.2623781754">
        <ele>266</ele>
        <time>2012-02-02T11:51:29Z</time>
      </trkpt>
      <trkpt lat="63.4007590743" lon="10.2623631718">
        <ele>266.6</ele>
        <time>2012-02-02T11:51:32Z</time>
      </trkpt>
      <trkpt lat="63.4007980501" lon="10.2623319911">
        <ele>267.8</ele>
        <time>2012-02-02T11:51:37Z</time>
      </trkpt>
      <trkpt lat="63.4008046718" lon="10.2623149758">
        <ele>268</ele>
        <time>2012-02-02T11:51:38Z</time>
      </trkpt>
      <trkpt lat="63.4008326674" lon="10.2622578951">
        <ele>268.4</ele>
        <time>2012-02-02T11:51:42Z</time>
      </trkpt>
      <trkpt lat="63.4008630099" lon="10.2621647722">
        <ele>269.4</ele>
        <time>2012-02-02T11:51:47Z</time>
      </trkpt>
      <trkpt lat="63.4008702183" lon="10.2621383692">
        <ele>269.6</ele>
        <time>2012-02-02T11:51:48Z</time>
      </trkpt>
      <trkpt lat="63.400943979" lon="10.261897641">
        <ele>270.4</ele>
        <time>2012-02-02T11:51:53Z</time>
      </trkpt>
      <trkpt lat="63.4010662709" lon="10.2615876784">
        <ele>270.8</ele>
        <time>2012-02-02T11:51:58Z</time>
      </trkpt>
      <trkpt lat="63.4011947655" lon="10.2612753688">
        <ele>271</ele>
        <time>2012-02-02T11:52:02Z</time>
      </trkpt>
      <trkpt lat="63.4013003774" lon="10.2608312957">
        <ele>271.2</ele>
        <time>2012-02-02T11:52:06Z</time>
      </trkpt>
      <trkpt lat="63.4013372578" lon="10.2606002905">
        <ele>271.2</ele>
        <time>2012-02-02T11:52:08Z</time>
      </trkpt>
      <trkpt lat="63.4013355814" lon="10.2600696325">
        <ele>271.4</ele>
        <time>2012-02-02T11:52:13Z</time>
      </trkpt>
      <trkpt lat="63.4013349108" lon="10.26002722">
        <ele>271.4</ele>
        <time>2012-02-02T11:52:14Z</time>
      </trkpt>
      <trkpt lat="63.4013368387" lon="10.2599407188">
        <ele>271.4</ele>
        <time>2012-02-02T11:52:15Z</time>
      </trkpt>
      <trkpt lat="63.4013965178" lon="10.2596837298">
        <ele>271.4</ele>
        <time>2012-02-02T11:52:19Z</time>
      </trkpt>
      <trkpt lat="63.4014084201" lon="10.2596404792">
        <ele>271.4</ele>
        <time>2012-02-02T11:52:20Z</time>
      </trkpt>
      <trkpt lat="63.4014888025" lon="10.2593616134">
        <ele>271.4</ele>
        <time>2012-02-02T11:52:25Z</time>
      </trkpt>
      <trkpt lat="63.4015051472" lon="10.2593050355">
        <ele>271.4</ele>
        <time>2012-02-02T11:52:26Z</time>
      </trkpt>
      <trkpt lat="63.4015572826" lon="10.2589578572">
        <ele>271.4</ele>
        <time>2012-02-02T11:52:33Z</time>
      </trkpt>
      <trkpt lat="63.4015910617" lon="10.258780161">
        <ele>271.4</ele>
        <time>2012-02-02T11:52:36Z</time>
      </trkpt>
      <trkpt lat="63.4016605476" lon="10.2584114412">
        <ele>271.4</ele>
        <time>2012-02-02T11:52:41Z</time>
      </trkpt>
      <trkpt lat="63.4017713564" lon="10.2579972915">
        <ele>271.4</ele>
        <time>2012-02-02T11:52:46Z</time>
      </trkpt>
      <trkpt lat="63.4017879525" lon="10.257897966">
        <ele>271.4</ele>
        <time>2012-02-02T11:52:47Z</time>
      </trkpt>
      <trkpt lat="63.4017778104" lon="10.2573277453">
        <ele>271.4</ele>
        <time>2012-02-02T11:52:52Z</time>
      </trkpt>
      <trkpt lat="63.4016795746" lon="10.2568767991">
        <ele>271.4</ele>
        <time>2012-02-02T11:52:56Z</time>
      </trkpt>
      <trkpt lat="63.4016662473" lon="10.2567623862">
        <ele>271.4</ele>
        <time>2012-02-02T11:52:57Z</time>
      </trkpt>
      <trkpt lat="63.401648813" lon="10.2565108454">
        <ele>271.4</ele>
        <time>2012-02-02T11:52:59Z</time>
      </trkpt>
      <trkpt lat="63.4016442029" lon="10.256307249">
        <ele>271.4</ele>
        <time>2012-02-02T11:53:01Z</time>
      </trkpt>
      <trkpt lat="63.4015657484" lon="10.2559987951">
        <ele>271.2</ele>
        <time>2012-02-02T11:53:06Z</time>
      </trkpt>
      <trkpt lat="63.4015450451" lon="10.2559568018">
        <ele>271.2</ele>
        <time>2012-02-02T11:53:07Z</time>
      </trkpt>
      <trkpt lat="63.4015303767" lon="10.2559245314">
        <ele>271</ele>
        <time>2012-02-02T11:53:08Z</time>
      </trkpt>
      <trkpt lat="63.4013730485" lon="10.2557513614">
        <ele>270.4</ele>
        <time>2012-02-02T11:53:12Z</time>
      </trkpt>
      <trkpt lat="63.4013128664" lon="10.2556609207">
        <ele>270.4</ele>
        <time>2012-02-02T11:53:13Z</time>
      </trkpt>
      <trkpt lat="63.4011487488" lon="10.2553238845">
        <ele>270</ele>
        <time>2012-02-02T11:53:17Z</time>
      </trkpt>
      <trkpt lat="63.4010570508" lon="10.2551421649">
        <ele>269.8</ele>
        <time>2012-02-02T11:53:21Z</time>
      </trkpt>
      <trkpt lat="63.4010484175" lon="10.2551083858">
        <ele>269.8</ele>
        <time>2012-02-02T11:53:22Z</time>
      </trkpt>
      <trkpt lat="63.4010388621" lon="10.255061531">
        <ele>269.8</ele>
        <time>2012-02-02T11:53:23Z</time>
      </trkpt>
      <trkpt lat="63.4010121239" lon="10.2549191225">
        <ele>269.8</ele>
        <time>2012-02-02T11:53:26Z</time>
      </trkpt>
      <trkpt lat="63.4009699629" lon="10.2546996006">
        <ele>269.6</ele>
        <time>2012-02-02T11:53:30Z</time>
      </trkpt>
      <trkpt lat="63.4009174922" lon="10.2544576151">
        <ele>269.6</ele>
        <time>2012-02-02T11:53:35Z</time>
      </trkpt>
      <trkpt lat="63.4008864792" lon="10.2542518395">
        <ele>269.6</ele>
        <time>2012-02-02T11:53:40Z</time>
      </trkpt>
      <trkpt lat="63.4008765885" lon="10.2541959322">
        <ele>269.6</ele>
        <time>2012-02-02T11:53:41Z</time>
      </trkpt>
      <trkpt lat="63.4008350981" lon="10.2539531924">
        <ele>269.6</ele>
        <time>2012-02-02T11:53:46Z</time>
      </trkpt>
      <trkpt lat="63.4008126346" lon="10.2538744025">
        <ele>269.6</ele>
        <time>2012-02-02T11:53:48Z</time>
      </trkpt>
      <trkpt lat="63.400766618" lon="10.2535895856">
        <ele>269.4</ele>
        <time>2012-02-02T11:53:53Z</time>
      </trkpt>
      <trkpt lat="63.4007042567" lon="10.2531562413">
        <ele>269.4</ele>
        <time>2012-02-02T11:53:58Z</time>
      </trkpt>
      <trkpt lat="63.4006942822" lon="10.2528930497">
        <ele>269.4</ele>
        <time>2012-02-02T11:54:01Z</time>
      </trkpt>
      <trkpt lat="63.4006922706" lon="10.2525924747">
        <ele>269.4</ele>
        <time>2012-02-02T11:54:05Z</time>
      </trkpt>
      <trkpt lat="63.4007269716" lon="10.252350154">
        <ele>269.4</ele>
        <time>2012-02-02T11:54:09Z</time>
      </trkpt>
      <trkpt lat="63.4007727368" lon="10.2520416163">
        <ele>269.4</ele>
        <time>2012-02-02T11:54:14Z</time>
      </trkpt>
      <trkpt lat="63.4008133052" lon="10.2517757424">
        <ele>269.4</ele>
        <time>2012-02-02T11:54:19Z</time>
      </trkpt>
      <trkpt lat="63.4008478386" lon="10.2514080285">
        <ele>269.4</ele>
        <time>2012-02-02T11:54:24Z</time>
      </trkpt>
      <trkpt lat="63.4009237786" lon="10.2510250594">
        <ele>269.4</ele>
        <time>2012-02-02T11:54:28Z</time>
      </trkpt>
      <trkpt lat="63.4010687855" lon="10.2506447726">
        <ele>269.4</ele>
        <time>2012-02-02T11:54:32Z</time>
      </trkpt>
      <trkpt lat="63.4010954399" lon="10.2505557569">
        <ele>269.4</ele>
        <time>2012-02-02T11:54:33Z</time>
      </trkpt>
      <trkpt lat="63.4011256148" lon="10.2502924814">
        <ele>269.4</ele>
        <time>2012-02-02T11:54:36Z</time>
      </trkpt>
      <trkpt lat="63.4011562925" lon="10.2500376716">
        <ele>269.4</ele>
        <time>2012-02-02T11:54:39Z</time>
      </trkpt>
      <trkpt lat="63.4011911612" lon="10.2498807625">
        <ele>269.4</ele>
        <time>2012-02-02T11:54:41Z</time>
      </trkpt>
      <trkpt lat="63.4012338251" lon="10.2496617434">
        <ele>269.4</ele>
        <time>2012-02-02T11:54:45Z</time>
      </trkpt>
      <trkpt lat="63.4012572106" lon="10.249525789">
        <ele>269.4</ele>
        <time>2012-02-02T11:54:49Z</time>
      </trkpt>
      <trkpt lat="63.401275567" lon="10.2494407127">
        <ele>269.4</ele>
        <time>2012-02-02T11:54:54Z</time>
      </trkpt>
      <trkpt lat="63.4012911573" lon="10.249428056">
        <ele>269.4</ele>
        <time>2012-02-02T11:55:00Z</time>
      </trkpt>
      <trkpt lat="63.4013272833" lon="10.2493030819">
        <ele>274.8</ele>
        <time>2012-02-02T11:55:53Z</time>
      </trkpt>
      <trkpt lat="63.4013660915" lon="10.2491175905">
        <ele>275.2</ele>
        <time>2012-02-02T11:55:57Z</time>
      </trkpt>
      <trkpt lat="63.4014124434" lon="10.2488615234">
        <ele>275.4</ele>
        <time>2012-02-02T11:56:01Z</time>
      </trkpt>
      <trkpt lat="63.4015397645" lon="10.2485750301">
        <ele>275.4</ele>
        <time>2012-02-02T11:56:05Z</time>
      </trkpt>
      <trkpt lat="63.401674294" lon="10.2482372395">
        <ele>275.6</ele>
        <time>2012-02-02T11:56:08Z</time>
      </trkpt>
      <trkpt lat="63.4017184666" lon="10.2481117625">
        <ele>275.6</ele>
        <time>2012-02-02T11:56:09Z</time>
      </trkpt>
      <trkpt lat="63.4018018665" lon="10.2477273685">
        <ele>275.6</ele>
        <time>2012-02-02T11:56:12Z</time>
      </trkpt>
      <trkpt lat="63.4018531637" lon="10.2473493448">
        <ele>275.6</ele>
        <time>2012-02-02T11:56:16Z</time>
      </trkpt>
      <trkpt lat="63.4018994318" lon="10.246962604">
        <ele>275</ele>
        <time>2012-02-02T11:56:20Z</time>
      </trkpt>
      <trkpt lat="63.4019477115" lon="10.2467383881">
        <ele>274.6</ele>
        <time>2012-02-02T11:56:23Z</time>
      </trkpt>
      <trkpt lat="63.4020339613" lon="10.2464621207">
        <ele>274.4</ele>
        <time>2012-02-02T11:56:27Z</time>
      </trkpt>
      <trkpt lat="63.4020519824" lon="10.2462418444">
        <ele>274.2</ele>
        <time>2012-02-02T11:56:29Z</time>
      </trkpt>
      <trkpt lat="63.4020765413" lon="10.2456842804">
        <ele>274</ele>
        <time>2012-02-02T11:56:34Z</time>
      </trkpt>
      <trkpt lat="63.4020766252" lon="10.2455691131">
        <ele>274</ele>
        <time>2012-02-02T11:56:35Z</time>
      </trkpt>
      <trkpt lat="63.4020492163" lon="10.2453055862">
        <ele>274</ele>
        <time>2012-02-02T11:56:37Z</time>
      </trkpt>
      <trkpt lat="63.4020564248" lon="10.2448903468">
        <ele>273.2</ele>
        <time>2012-02-02T11:56:41Z</time>
      </trkpt>
      <trkpt lat="63.4020759546" lon="10.2447896802">
        <ele>273.2</ele>
        <time>2012-02-02T11:56:42Z</time>
      </trkpt>
      <trkpt lat="63.4021875177" lon="10.2445535621">
        <ele>272.8</ele>
        <time>2012-02-02T11:56:45Z</time>
      </trkpt>
      <trkpt lat="63.4022367194" lon="10.2445019296">
        <ele>272.6</ele>
        <time>2012-02-02T11:56:46Z</time>
      </trkpt>
      <trkpt lat="63.4022910342" lon="10.2444432563">
        <ele>272.6</ele>
        <time>2012-02-02T11:56:47Z</time>
      </trkpt>
      <trkpt lat="63.4024144157" lon="10.2443325314">
        <ele>272.4</ele>
        <time>2012-02-02T11:56:49Z</time>
      </trkpt>
      <trkpt lat="63.4025678883" lon="10.2439734508">
        <ele>272.2</ele>
        <time>2012-02-02T11:56:53Z</time>
      </trkpt>
      <trkpt lat="63.4025366238" lon="10.2436836885">
        <ele>271.6</ele>
        <time>2012-02-02T11:56:56Z</time>
      </trkpt>
      <trkpt lat="63.4024771962" lon="10.2434452235">
        <ele>270.8</ele>
        <time>2012-02-02T11:57:00Z</time>
      </trkpt>
      <trkpt lat="63.4024627793" lon="10.2431982089">
        <ele>270.6</ele>
        <time>2012-02-02T11:57:03Z</time>
      </trkpt>
      <trkpt lat="63.4024455126" lon="10.2427044311">
        <ele>270</ele>
        <time>2012-02-02T11:57:08Z</time>
      </trkpt>
      <trkpt lat="63.4024315148" lon="10.2426156668">
        <ele>270</ele>
        <time>2012-02-02T11:57:09Z</time>
      </trkpt>
      <trkpt lat="63.40233462" lon="10.2426173432">
        <ele>269.8</ele>
        <time>2012-02-02T11:57:13Z</time>
      </trkpt>
      <trkpt lat="63.4023161799" lon="10.2426311733">
        <ele>269.8</ele>
        <time>2012-02-02T11:57:14Z</time>
      </trkpt>
      <trkpt lat="63.402309642" lon="10.2426517928">
        <ele>269.4</ele>
        <time>2012-02-02T11:57:21Z</time>
      </trkpt>
      <trkpt lat="63.4023037746" lon="10.2426849013">
        <ele>267.8</ele>
        <time>2012-02-02T11:57:37Z</time>
      </trkpt>
      <trkpt lat="63.4022569198" lon="10.2427446643">
        <ele>267.6</ele>
        <time>2012-02-02T11:57:44Z</time>
      </trkpt>
      <trkpt lat="63.4022221349" lon="10.2427264755">
        <ele>267.6</ele>
        <time>2012-02-02T11:57:45Z</time>
      </trkpt>
      <trkpt lat="63.4021161039" lon="10.2425598434">
        <ele>267.6</ele>
        <time>2012-02-02T11:57:48Z</time>
      </trkpt>
      <trkpt lat="63.4020886113" lon="10.2420655627">
        <ele>267.2</ele>
        <time>2012-02-02T11:57:52Z</time>
      </trkpt>
      <trkpt lat="63.4021930497" lon="10.2417855234">
        <ele>266.6</ele>
        <time>2012-02-02T11:57:55Z</time>
      </trkpt>
      <trkpt lat="63.4023941315" lon="10.2417360702">
        <ele>265.8</ele>
        <time>2012-02-02T11:57:58Z</time>
      </trkpt>
      <trkpt lat="63.4025716602" lon="10.2415713659">
        <ele>265.2</ele>
        <time>2012-02-02T11:58:00Z</time>
      </trkpt>
      <trkpt lat="63.4027978038" lon="10.2414557795">
        <ele>264.4</ele>
        <time>2012-02-02T11:58:03Z</time>
      </trkpt>
      <trkpt lat="63.4028366958" lon="10.241466676">
        <ele>264</ele>
        <time>2012-02-02T11:58:04Z</time>
      </trkpt>
      <trkpt lat="63.402878773" lon="10.2414781592">
        <ele>263.4</ele>
        <time>2012-02-02T11:58:06Z</time>
      </trkpt>
      <trkpt lat="63.4028946986" lon="10.2414825177">
        <ele>262.6</ele>
        <time>2012-02-02T11:58:11Z</time>
      </trkpt>
      <trkpt lat="63.4028924355" lon="10.2414973537">
        <ele>261.6</ele>
        <time>2012-02-02T11:58:23Z</time>
      </trkpt>
      <trkpt lat="63.4027812077" lon="10.2414363335">
        <ele>260.8</ele>
        <time>2012-02-02T11:58:27Z</time>
      </trkpt>
      <trkpt lat="63.4026065289" lon="10.241406913">
        <ele>260</ele>
        <time>2012-02-02T11:58:30Z</time>
      </trkpt>
      <trkpt lat="63.4023639567" lon="10.2410666079">
        <ele>258.8</ele>
        <time>2012-02-02T11:58:34Z</time>
      </trkpt>
      <trkpt lat="63.4023181915" lon="10.2409335871">
        <ele>258.4</ele>
        <time>2012-02-02T11:58:35Z</time>
      </trkpt>
      <trkpt lat="63.4021717597" lon="10.2405223711">
        <ele>257</ele>
        <time>2012-02-02T11:58:38Z</time>
      </trkpt>
      <trkpt lat="63.4019844243" lon="10.2400953971">
        <ele>255.8</ele>
        <time>2012-02-02T11:58:41Z</time>
      </trkpt>
      <trkpt lat="63.4018281856" lon="10.2398343009">
        <ele>254.6</ele>
        <time>2012-02-02T11:58:43Z</time>
      </trkpt>
      <trkpt lat="63.4016699354" lon="10.2395645714">
        <ele>253.4</ele>
        <time>2012-02-02T11:58:45Z</time>
      </trkpt>
      <trkpt lat="63.4016002818" lon="10.239394335">
        <ele>252.8</ele>
        <time>2012-02-02T11:58:46Z</time>
      </trkpt>
      <trkpt lat="63.4014837734" lon="10.2390259505">
        <ele>251.4</ele>
        <time>2012-02-02T11:58:48Z</time>
      </trkpt>
      <trkpt lat="63.4013468969" lon="10.2385701428">
        <ele>249.4</ele>
        <time>2012-02-02T11:58:51Z</time>
      </trkpt>
      <trkpt lat="63.4012036503" lon="10.2381336134">
        <ele>247.6</ele>
        <time>2012-02-02T11:58:54Z</time>
      </trkpt>
      <trkpt lat="63.4010703781" lon="10.2378130896">
        <ele>245.6</ele>
        <time>2012-02-02T11:58:57Z</time>
      </trkpt>
      <trkpt lat="63.401035677" lon="10.2377369819">
        <ele>245.2</ele>
        <time>2012-02-02T11:58:58Z</time>
      </trkpt>
      <trkpt lat="63.4008863954" lon="10.2374394245">
        <ele>243.4</ele>
        <time>2012-02-02T11:59:02Z</time>
      </trkpt>
      <trkpt lat="63.4008543765" lon="10.2373813379">
        <ele>242.8</ele>
        <time>2012-02-02T11:59:03Z</time>
      </trkpt>
      <trkpt lat="63.4008223576" lon="10.2373253468">
        <ele>242.4</ele>
        <time>2012-02-02T11:59:04Z</time>
      </trkpt>
      <trkpt lat="63.4007150693" lon="10.2371367541">
        <ele>241.2</ele>
        <time>2012-02-02T11:59:07Z</time>
      </trkpt>
      <trkpt lat="63.4006447452" lon="10.2370272864">
        <ele>240.4</ele>
        <time>2012-02-02T11:59:09Z</time>
      </trkpt>
      <trkpt lat="63.4004916079" lon="10.2366571417">
        <ele>238.8</ele>
        <time>2012-02-02T11:59:13Z</time>
      </trkpt>
      <trkpt lat="63.4004574935" lon="10.236550524">
        <ele>238.2</ele>
        <time>2012-02-02T11:59:14Z</time>
      </trkpt>
      <trkpt lat="63.4004047714" lon="10.236369894">
        <ele>237.4</ele>
        <time>2012-02-02T11:59:16Z</time>
      </trkpt>
      <trkpt lat="63.4002773665" lon="10.2358974063">
        <ele>235.4</ele>
        <time>2012-02-02T11:59:21Z</time>
      </trkpt>
      <trkpt lat="63.4002385583" lon="10.2356223124">
        <ele>234.4</ele>
        <time>2012-02-02T11:59:24Z</time>
      </trkpt>
      <trkpt lat="63.4002305117" lon="10.2355245794">
        <ele>234</ele>
        <time>2012-02-02T11:59:25Z</time>
      </trkpt>
      <trkpt lat="63.4002175197" lon="10.2353810813">
        <ele>233.6</ele>
        <time>2012-02-02T11:59:26Z</time>
      </trkpt>
      <trkpt lat="63.4001915358" lon="10.2351446279">
        <ele>233</ele>
        <time>2012-02-02T11:59:28Z</time>
      </trkpt>
      <trkpt lat="63.4001112372" lon="10.2347293886">
        <ele>231</ele>
        <time>2012-02-02T11:59:33Z</time>
      </trkpt>
      <trkpt lat="63.4000881032" lon="10.23467038">
        <ele>230.8</ele>
        <time>2012-02-02T11:59:34Z</time>
      </trkpt>
      <trkpt lat="63.4000600238" lon="10.2345907519">
        <ele>230.4</ele>
        <time>2012-02-02T11:59:35Z</time>
      </trkpt>
      <trkpt lat="63.3999176154" lon="10.2343151551">
        <ele>228.6</ele>
        <time>2012-02-02T11:59:40Z</time>
      </trkpt>
      <trkpt lat="63.3997892885" lon="10.2341069487">
        <ele>227.4</ele>
        <time>2012-02-02T11:59:44Z</time>
      </trkpt>
      <trkpt lat="63.3997630531" lon="10.2340377142">
        <ele>227</ele>
        <time>2012-02-02T11:59:45Z</time>
      </trkpt>
      <trkpt lat="63.3996738697" lon="10.2337119097">
        <ele>225.8</ele>
        <time>2012-02-02T11:59:49Z</time>
      </trkpt>
      <trkpt lat="63.399604719" lon="10.2334883644">
        <ele>224.8</ele>
        <time>2012-02-02T11:59:54Z</time>
      </trkpt>
      <trkpt lat="63.3995912242" lon="10.2334451977">
        <ele>224.6</ele>
        <time>2012-02-02T11:59:55Z</time>
      </trkpt>
      <trkpt lat="63.3994739614" lon="10.2332882047">
        <ele>224</ele>
        <time>2012-02-02T12:00:01Z</time>
      </trkpt>
      <trkpt lat="63.3993770666" lon="10.2332195569">
        <ele>223.8</ele>
        <time>2012-02-02T12:00:06Z</time>
      </trkpt>
      <trkpt lat="63.3992628213" lon="10.233195417">
        <ele>223.6</ele>
        <time>2012-02-02T12:00:12Z</time>
      </trkpt>
      <trkpt lat="63.3991320637" lon="10.2332410984">
        <ele>223.4</ele>
        <time>2012-02-02T12:00:18Z</time>
      </trkpt>
      <trkpt lat="63.3990623263" lon="10.2332892943">
        <ele>223.4</ele>
        <time>2012-02-02T12:00:21Z</time>
      </trkpt>
      <trkpt lat="63.3989379389" lon="10.2334381569">
        <ele>224</ele>
        <time>2012-02-02T12:00:27Z</time>
      </trkpt>
      <trkpt lat="63.3988426367" lon="10.2335299387">
        <ele>224.4</ele>
        <time>2012-02-02T12:00:31Z</time>
      </trkpt>
      <trkpt lat="63.398695702" lon="10.2336950621">
        <ele>225.2</ele>
        <time>2012-02-02T12:00:36Z</time>
      </trkpt>
      <trkpt lat="63.3985327578" lon="10.2338655499">
        <ele>226</ele>
        <time>2012-02-02T12:00:40Z</time>
      </trkpt>
      <trkpt lat="63.3984695583" lon="10.2339448427">
        <ele>226.2</ele>
        <time>2012-02-02T12:00:41Z</time>
      </trkpt>
      <trkpt lat="63.39819832" lon="10.234068811">
        <ele>226.6</ele>
        <time>2012-02-02T12:00:45Z</time>
      </trkpt>
      <trkpt lat="63.3980197017" lon="10.2339704075">
        <ele>227</ele>
        <time>2012-02-02T12:00:48Z</time>
      </trkpt>
      <trkpt lat="63.3979733498" lon="10.2339424958">
        <ele>227</ele>
        <time>2012-02-02T12:00:49Z</time>
      </trkpt>
      <trkpt lat="63.3979378944" lon="10.2339059507">
        <ele>227</ele>
        <time>2012-02-02T12:00:50Z</time>
      </trkpt>
      <trkpt lat="63.3978141775" lon="10.2337568367">
        <ele>227.2</ele>
        <time>2012-02-02T12:00:54Z</time>
      </trkpt>
      <trkpt lat="63.3977879422" lon="10.2337336188">
        <ele>227.2</ele>
        <time>2012-02-02T12:00:55Z</time>
      </trkpt>
      <trkpt lat="63.3977288498" lon="10.2336838304">
        <ele>227.4</ele>
        <time>2012-02-02T12:00:57Z</time>
      </trkpt>
      <trkpt lat="63.3975811607" lon="10.2336140091">
        <ele>227.4</ele>
        <time>2012-02-02T12:01:02Z</time>
      </trkpt>
      <trkpt lat="63.3975187994" lon="10.2335801462">
        <ele>227.4</ele>
        <time>2012-02-02T12:01:06Z</time>
      </trkpt>
      <trkpt lat="63.397509244" lon="10.2335752009">
        <ele>227.6</ele>
        <time>2012-02-02T12:01:07Z</time>
      </trkpt>
      <trkpt lat="63.3974567733" lon="10.2335812359">
        <ele>228.6</ele>
        <time>2012-02-02T12:01:14Z</time>
      </trkpt>
      <trkpt lat="63.3974390875" lon="10.2335831637">
        <ele>228.8</ele>
        <time>2012-02-02T12:01:16Z</time>
      </trkpt>
      <trkpt lat="63.3973860301" lon="10.2336079742">
        <ele>230</ele>
        <time>2012-02-02T12:01:21Z</time>
      </trkpt>
      <trkpt lat="63.3973423604" lon="10.2336472853">
        <ele>230.8</ele>
        <time>2012-02-02T12:01:26Z</time>
      </trkpt>
      <trkpt lat="63.3972581223" lon="10.2336961517">
        <ele>232.2</ele>
        <time>2012-02-02T12:01:32Z</time>
      </trkpt>
      <trkpt lat="63.3971661729" lon="10.233762704">
        <ele>232.8</ele>
        <time>2012-02-02T12:01:36Z</time>
      </trkpt>
      <trkpt lat="63.3970334874" lon="10.2337787973">
        <ele>233.8</ele>
        <time>2012-02-02T12:01:41Z</time>
      </trkpt>
      <trkpt lat="63.3969263667" lon="10.2336905359">
        <ele>234.6</ele>
        <time>2012-02-02T12:01:45Z</time>
      </trkpt>
      <trkpt lat="63.3968250295" lon="10.2335262506">
        <ele>235</ele>
        <time>2012-02-02T12:01:49Z</time>
      </trkpt>
      <trkpt lat="63.3968121214" lon="10.2334949861">
        <ele>235</ele>
        <time>2012-02-02T12:01:50Z</time>
      </trkpt>
      <trkpt lat="63.3967476646" lon="10.2334060542">
        <ele>236.2</ele>
        <time>2012-02-02T12:01:55Z</time>
      </trkpt>
      <trkpt lat="63.3966654382" lon="10.2333382446">
        <ele>237</ele>
        <time>2012-02-02T12:02:02Z</time>
      </trkpt>
      <trkpt lat="63.3965974609" lon="10.2332918927">
        <ele>238.4</ele>
        <time>2012-02-02T12:02:08Z</time>
      </trkpt>
      <trkpt lat="63.3965121332" lon="10.2332489774">
        <ele>239.2</ele>
        <time>2012-02-02T12:02:14Z</time>
      </trkpt>
      <trkpt lat="63.3963934455" lon="10.2332301181">
        <ele>239.6</ele>
        <time>2012-02-02T12:02:20Z</time>
      </trkpt>
      <trkpt lat="63.3962559823" lon="10.2332029607">
        <ele>240.4</ele>
        <time>2012-02-02T12:02:26Z</time>
      </trkpt>
      <trkpt lat="63.3961978958" lon="10.2331618056">
        <ele>240.8</ele>
        <time>2012-02-02T12:02:29Z</time>
      </trkpt>
      <trkpt lat="63.3961202794" lon="10.2330206544">
        <ele>241.4</ele>
        <time>2012-02-02T12:02:34Z</time>
      </trkpt>
      <trkpt lat="63.3960887634" lon="10.2329687705">
        <ele>241.4</ele>
        <time>2012-02-02T12:02:36Z</time>
      </trkpt>
      <trkpt lat="63.3959860852" lon="10.232819405">
        <ele>241.8</ele>
        <time>2012-02-02T12:02:43Z</time>
      </trkpt>
      <trkpt lat="63.3959020147" lon="10.2327650065">
        <ele>242</ele>
        <time>2012-02-02T12:02:48Z</time>
      </trkpt>
      <trkpt lat="63.3957894458" lon="10.2327633301">
        <ele>243</ele>
        <time>2012-02-02T12:02:54Z</time>
      </trkpt>
      <trkpt lat="63.3956998433" lon="10.2327893978">
        <ele>243.4</ele>
        <time>2012-02-02T12:02:58Z</time>
      </trkpt>
      <trkpt lat="63.3955097418" lon="10.2328440478">
        <ele>243.8</ele>
        <time>2012-02-02T12:03:04Z</time>
      </trkpt>
      <trkpt lat="63.3953995198" lon="10.2328852867">
        <ele>243.8</ele>
        <time>2012-02-02T12:03:08Z</time>
      </trkpt>
      <trkpt lat="63.3952411857" lon="10.2329503303">
        <ele>244.6</ele>
        <time>2012-02-02T12:03:14Z</time>
      </trkpt>
      <trkpt lat="63.395039601" lon="10.233013446">
        <ele>245.4</ele>
        <time>2012-02-02T12:03:22Z</time>
      </trkpt>
      <trkpt lat="63.3948602284" lon="10.2332312078">
        <ele>245.8</ele>
        <time>2012-02-02T12:03:27Z</time>
      </trkpt>
      <trkpt lat="63.3946967813" lon="10.2336125842">
        <ele>245.8</ele>
        <time>2012-02-02T12:03:31Z</time>
      </trkpt>
      <trkpt lat="63.394649675" lon="10.2337138376">
        <ele>246</ele>
        <time>2012-02-02T12:03:32Z</time>
      </trkpt>
      <trkpt lat="63.3944856412" lon="10.2339522188">
        <ele>245.4</ele>
        <time>2012-02-02T12:03:35Z</time>
      </trkpt>
      <trkpt lat="63.3943557218" lon="10.2342128959">
        <ele>245</ele>
        <time>2012-02-02T12:03:38Z</time>
      </trkpt>
      <trkpt lat="63.3942469247" lon="10.2343159932">
        <ele>244.8</ele>
        <time>2012-02-02T12:03:42Z</time>
      </trkpt>
      <trkpt lat="63.3941031751" lon="10.234374918">
        <ele>244.4</ele>
        <time>2012-02-02T12:03:47Z</time>
      </trkpt>
      <trkpt lat="63.3940714916" lon="10.2343849763">
        <ele>244.4</ele>
        <time>2012-02-02T12:03:48Z</time>
      </trkpt>
      <trkpt lat="63.3939091342" lon="10.2344516962">
        <ele>244.4</ele>
        <time>2012-02-02T12:03:53Z</time>
      </trkpt>
      <trkpt lat="63.3937754429" lon="10.2345200925">
        <ele>244.2</ele>
        <time>2012-02-02T12:03:58Z</time>
      </trkpt>
      <trkpt lat="63.3936338726" lon="10.2345526143">
        <ele>244.2</ele>
        <time>2012-02-02T12:04:03Z</time>
      </trkpt>
      <trkpt lat="63.3934407536" lon="10.2346310689">
        <ele>244.2</ele>
        <time>2012-02-02T12:04:07Z</time>
      </trkpt>
      <trkpt lat="63.393245623" lon="10.2346987946">
        <ele>244.2</ele>
        <time>2012-02-02T12:04:10Z</time>
      </trkpt>
      <trkpt lat="63.3927271186" lon="10.2347771654">
        <ele>243.2</ele>
        <time>2012-02-02T12:04:18Z</time>
      </trkpt>
      <trkpt lat="63.3925549544" lon="10.2349643332">
        <ele>243</ele>
        <time>2012-02-02T12:04:21Z</time>
      </trkpt>
      <trkpt lat="63.3924583111" lon="10.2351043948">
        <ele>242.4</ele>
        <time>2012-02-02T12:04:23Z</time>
      </trkpt>
      <trkpt lat="63.3922388729" lon="10.2355594481">
        <ele>241</ele>
        <time>2012-02-02T12:04:28Z</time>
      </trkpt>
      <trkpt lat="63.3921144855" lon="10.2358685726">
        <ele>240.2</ele>
        <time>2012-02-02T12:04:31Z</time>
      </trkpt>
      <trkpt lat="63.3920587459" lon="10.2359824826">
        <ele>239.8</ele>
        <time>2012-02-02T12:04:32Z</time>
      </trkpt>
      <trkpt lat="63.392008706" lon="10.23609019">
        <ele>239.4</ele>
        <time>2012-02-02T12:04:33Z</time>
      </trkpt>
      <trkpt lat="63.3918743441" lon="10.2364519528">
        <ele>238.2</ele>
        <time>2012-02-02T12:04:36Z</time>
      </trkpt>
      <trkpt lat="63.3917825623" lon="10.2369864666">
        <ele>236.4</ele>
        <time>2012-02-02T12:04:40Z</time>
      </trkpt>
      <trkpt lat="63.3917753539" lon="10.2371208284">
        <ele>236.2</ele>
        <time>2012-02-02T12:04:41Z</time>
      </trkpt>
      <trkpt lat="63.3917408204" lon="10.2376132651">
        <ele>234.4</ele>
        <time>2012-02-02T12:04:45Z</time>
      </trkpt>
      <trkpt lat="63.3916828177" lon="10.2381217111">
        <ele>233.2</ele>
        <time>2012-02-02T12:04:49Z</time>
      </trkpt>
      <trkpt lat="63.3916721727" lon="10.2382503733">
        <ele>232.8</ele>
        <time>2012-02-02T12:04:50Z</time>
      </trkpt>
      <trkpt lat="63.3916308499" lon="10.2386558896">
        <ele>232</ele>
        <time>2012-02-02T12:04:53Z</time>
      </trkpt>
      <trkpt lat="63.3916123259" lon="10.2388598212">
        <ele>231.4</ele>
        <time>2012-02-02T12:04:55Z</time>
      </trkpt>
      <trkpt lat="63.3914948117" lon="10.2391715441">
        <ele>230.4</ele>
        <time>2012-02-02T12:04:59Z</time>
      </trkpt>
      <trkpt lat="63.3914417543" lon="10.2391792554">
        <ele>230.2</ele>
        <time>2012-02-02T12:05:01Z</time>
      </trkpt>
      <trkpt lat="63.3913988389" lon="10.2391788364">
        <ele>229.8</ele>
        <time>2012-02-02T12:05:03Z</time>
      </trkpt>
      <trkpt lat="63.3912858509" lon="10.2391266171">
        <ele>229.2</ele>
        <time>2012-02-02T12:05:08Z</time>
      </trkpt>
      <trkpt lat="63.3912615434" lon="10.2391142957">
        <ele>229</ele>
        <time>2012-02-02T12:05:09Z</time>
      </trkpt>
      <trkpt lat="63.3911574402" lon="10.2390389424">
        <ele>228</ele>
        <time>2012-02-02T12:05:14Z</time>
      </trkpt>
      <trkpt lat="63.391094073" lon="10.2389729769">
        <ele>227.6</ele>
        <time>2012-02-02T12:05:17Z</time>
      </trkpt>
      <trkpt lat="63.3908960926" lon="10.2388801893">
        <ele>227</ele>
        <time>2012-02-02T12:05:27Z</time>
      </trkpt>
      <trkpt lat="63.3908740482" lon="10.2388646827">
        <ele>227</ele>
        <time>2012-02-02T12:05:28Z</time>
      </trkpt>
      <trkpt lat="63.3907315559" lon="10.2388129664">
        <ele>227.4</ele>
        <time>2012-02-02T12:05:33Z</time>
      </trkpt>
      <trkpt lat="63.3905625768" lon="10.2388171574">
        <ele>227.8</ele>
        <time>2012-02-02T12:05:37Z</time>
      </trkpt>
      <trkpt lat="63.3903433063" lon="10.2388106195">
        <ele>228.2</ele>
        <time>2012-02-02T12:05:42Z</time>
      </trkpt>
      <trkpt lat="63.3902819508" lon="10.2388552112">
        <ele>228.2</ele>
        <time>2012-02-02T12:05:43Z</time>
      </trkpt>
      <trkpt lat="63.3900899214" lon="10.2390258667">
        <ele>228.4</ele>
        <time>2012-02-02T12:05:46Z</time>
      </trkpt>
      <trkpt lat="63.3898891749" lon="10.2392387669">
        <ele>228.4</ele>
        <time>2012-02-02T12:05:49Z</time>
      </trkpt>
      <trkpt lat="63.3898404761" lon="10.2392937522">
        <ele>228.4</ele>
        <time>2012-02-02T12:05:50Z</time>
      </trkpt>
      <trkpt lat="63.3896937928" lon="10.2395583688">
        <ele>228</ele>
        <time>2012-02-02T12:05:54Z</time>
      </trkpt>
      <trkpt lat="63.3895531445" lon="10.2397442793">
        <ele>227.6</ele>
        <time>2012-02-02T12:05:58Z</time>
      </trkpt>
      <trkpt lat="63.3893856742" lon="10.2401712533">
        <ele>226.8</ele>
        <time>2012-02-02T12:06:02Z</time>
      </trkpt>
      <trkpt lat="63.3893384841" lon="10.2403058666">
        <ele>226.6</ele>
        <time>2012-02-02T12:06:03Z</time>
      </trkpt>
      <trkpt lat="63.3892352191" lon="10.2405673819">
        <ele>226.2</ele>
        <time>2012-02-02T12:06:05Z</time>
      </trkpt>
      <trkpt lat="63.3890536671" lon="10.2411453139">
        <ele>225.2</ele>
        <time>2012-02-02T12:06:08Z</time>
      </trkpt>
      <trkpt lat="63.3889328001" lon="10.2415261874">
        <ele>224.6</ele>
        <time>2012-02-02T12:06:10Z</time>
      </trkpt>
      <trkpt lat="63.3887670061" lon="10.241975122">
        <ele>223.6</ele>
        <time>2012-02-02T12:06:12Z</time>
      </trkpt>
      <trkpt lat="63.3886830195" lon="10.2421733539">
        <ele>223</ele>
        <time>2012-02-02T12:06:13Z</time>
      </trkpt>
      <trkpt lat="63.3884142958" lon="10.2425823068">
        <ele>221.2</ele>
        <time>2012-02-02T12:06:16Z</time>
      </trkpt>
      <trkpt lat="63.3882163991" lon="10.2426740048">
        <ele>220</ele>
        <time>2012-02-02T12:06:18Z</time>
      </trkpt>
      <trkpt lat="63.3881195044" lon="10.24269848">
        <ele>219.2</ele>
        <time>2012-02-02T12:06:19Z</time>
      </trkpt>
      <trkpt lat="63.3880331708" lon="10.2427269784">
        <ele>218.6</ele>
        <time>2012-02-02T12:06:20Z</time>
      </trkpt>
      <trkpt lat="63.3877044327" lon="10.2429364421">
        <ele>216</ele>
        <time>2012-02-02T12:06:24Z</time>
      </trkpt>
      <trkpt lat="63.3876366231" lon="10.2429564749">
        <ele>215.4</ele>
        <time>2012-02-02T12:06:25Z</time>
      </trkpt>
      <trkpt lat="63.3874311827" lon="10.2429661979">
        <ele>213.6</ele>
        <time>2012-02-02T12:06:28Z</time>
      </trkpt>
      <trkpt lat="63.3872123313" lon="10.2429749989">
        <ele>211.6</ele>
        <time>2012-02-02T12:06:32Z</time>
      </trkpt>
      <trkpt lat="63.3871707571" lon="10.242983716">
        <ele>211.2</ele>
        <time>2012-02-02T12:06:33Z</time>
      </trkpt>
      <trkpt lat="63.3869837569" lon="10.2429265515">
        <ele>209</ele>
        <time>2012-02-02T12:06:38Z</time>
      </trkpt>
      <trkpt lat="63.3869046318" lon="10.2428893358">
        <ele>207.8</ele>
        <time>2012-02-02T12:06:42Z</time>
      </trkpt>
      <trkpt lat="63.3868719424" lon="10.2428664533">
        <ele>207.2</ele>
        <time>2012-02-02T12:06:45Z</time>
      </trkpt>
      <trkpt lat="63.3868062283" lon="10.2428233703">
        <ele>206.6</ele>
        <time>2012-02-02T12:06:49Z</time>
      </trkpt>
      <trkpt lat="63.3867607984" lon="10.2427754258">
        <ele>206.4</ele>
        <time>2012-02-02T12:06:51Z</time>
      </trkpt>
      <trkpt lat="63.38667019" lon="10.2427020842">
        <ele>206.2</ele>
        <time>2012-02-02T12:06:54Z</time>
      </trkpt>
      <trkpt lat="63.3865566991" lon="10.2426796207">
        <ele>206</ele>
        <time>2012-02-02T12:06:58Z</time>
      </trkpt>
      <trkpt lat="63.3863579643" lon="10.2425667165">
        <ele>205.8</ele>
        <time>2012-02-02T12:07:05Z</time>
      </trkpt>
      <trkpt lat="63.3862412882" lon="10.2424977335">
        <ele>205.8</ele>
        <time>2012-02-02T12:07:11Z</time>
      </trkpt>
      <trkpt lat="63.3861650967" lon="10.2424633677">
        <ele>205.8</ele>
        <time>2012-02-02T12:07:17Z</time>
      </trkpt>
      <trkpt lat="63.3861534459" lon="10.2424585062">
        <ele>205.6</ele>
        <time>2012-02-02T12:07:18Z</time>
      </trkpt>
      <trkpt lat="63.3861086866" lon="10.242473426">
        <ele>205.6</ele>
        <time>2012-02-02T12:07:22Z</time>
      </trkpt>
      <trkpt lat="63.3860382786" lon="10.2424636191">
        <ele>205.6</ele>
        <time>2012-02-02T12:07:28Z</time>
      </trkpt>
      <trkpt lat="63.3859990513" lon="10.2424725878">
        <ele>205.6</ele>
        <time>2012-02-02T12:07:32Z</time>
      </trkpt>
      <trkpt lat="63.3859918429" lon="10.2424653793">
        <ele>205.6</ele>
        <time>2012-02-02T12:07:33Z</time>
      </trkpt>
      <trkpt lat="63.3859545434" lon="10.2424554887">
        <ele>206</ele>
        <time>2012-02-02T12:07:36Z</time>
      </trkpt>
      <trkpt lat="63.3859030786" lon="10.2424167643">
        <ele>206.8</ele>
        <time>2012-02-02T12:07:41Z</time>
      </trkpt>
      <trkpt lat="63.3858952834" lon="10.2424041077">
        <ele>206.8</ele>
        <time>2012-02-02T12:07:42Z</time>
      </trkpt>
      <trkpt lat="63.3858372806" lon="10.2423549897">
        <ele>207.2</ele>
        <time>2012-02-02T12:07:47Z</time>
      </trkpt>
      <trkpt lat="63.3857537131" lon="10.2423020161">
        <ele>208</ele>
        <time>2012-02-02T12:07:52Z</time>
      </trkpt>
      <trkpt lat="63.3856831375" lon="10.2422754455">
        <ele>208.8</ele>
        <time>2012-02-02T12:07:57Z</time>
      </trkpt>
      <trkpt lat="63.3856426529" lon="10.2422533173">
        <ele>209</ele>
        <time>2012-02-02T12:08:00Z</time>
      </trkpt>
      <trkpt lat="63.385605102" lon="10.2422515571">
        <ele>210</ele>
        <time>2012-02-02T12:08:04Z</time>
      </trkpt>
      <trkpt lat="63.3855622705" lon="10.2422455221">
        <ele>210.4</ele>
        <time>2012-02-02T12:08:07Z</time>
      </trkpt>
      <trkpt lat="63.3855145775" lon="10.2422105696">
        <ele>211.2</ele>
        <time>2012-02-02T12:08:11Z</time>
      </trkpt>
      <trkpt lat="63.3854264837" lon="10.2421385691">
        <ele>212.6</ele>
        <time>2012-02-02T12:08:19Z</time>
      </trkpt>
      <trkpt lat="63.3854159225" lon="10.2421304386">
        <ele>212.8</ele>
        <time>2012-02-02T12:08:20Z</time>
      </trkpt>
      <trkpt lat="63.3853404016" lon="10.242074699">
        <ele>214.4</ele>
        <time>2012-02-02T12:08:27Z</time>
      </trkpt>
      <trkpt lat="63.3852590972" lon="10.2420655627">
        <ele>215.2</ele>
        <time>2012-02-02T12:08:33Z</time>
      </trkpt>
      <trkpt lat="63.3852046986" lon="10.2420623776">
        <ele>215.8</ele>
        <time>2012-02-02T12:08:38Z</time>
      </trkpt>
      <trkpt lat="63.3851559998" lon="10.2421009343">
        <ele>216.6</ele>
        <time>2012-02-02T12:08:42Z</time>
      </trkpt>
      <trkpt lat="63.385145271" lon="10.2421088971">
        <ele>216.8</ele>
        <time>2012-02-02T12:08:43Z</time>
      </trkpt>
      <trkpt lat="63.3850990867" lon="10.2421914588">
        <ele>217.4</ele>
        <time>2012-02-02T12:08:50Z</time>
      </trkpt>
      <trkpt lat="63.3850938061" lon="10.2422090608">
        <ele>217.6</ele>
        <time>2012-02-02T12:08:51Z</time>
      </trkpt>
      <trkpt lat="63.3850485438" lon="10.2423581748">
        <ele>218.6</ele>
        <time>2012-02-02T12:08:57Z</time>
      </trkpt>
      <trkpt lat="63.385042006" lon="10.24238265">
        <ele>218.8</ele>
        <time>2012-02-02T12:08:58Z</time>
      </trkpt>
      <trkpt lat="63.3849965761" lon="10.2425657945">
        <ele>220</ele>
        <time>2012-02-02T12:09:05Z</time>
      </trkpt>
      <trkpt lat="63.3849570973" lon="10.242702168">
        <ele>221.2</ele>
        <time>2012-02-02T12:09:11Z</time>
      </trkpt>
      <trkpt lat="63.3849272578" lon="10.2428163295">
        <ele>222.8</ele>
        <time>2012-02-02T12:09:17Z</time>
      </trkpt>
      <trkpt lat="63.3848889525" lon="10.242967539">
        <ele>224.6</ele>
        <time>2012-02-02T12:09:24Z</time>
      </trkpt>
      <trkpt lat="63.3848448637" lon="10.2431244481">
        <ele>225.8</ele>
        <time>2012-02-02T12:09:30Z</time>
      </trkpt>
      <trkpt lat="63.3848044629" lon="10.2432790942">
        <ele>227</ele>
        <time>2012-02-02T12:09:35Z</time>
      </trkpt>
      <trkpt lat="63.3847519922" lon="10.2434472351">
        <ele>228.6</ele>
        <time>2012-02-02T12:09:41Z</time>
      </trkpt>
      <trkpt lat="63.3846908882" lon="10.243641779">
        <ele>229.8</ele>
        <time>2012-02-02T12:09:47Z</time>
      </trkpt>
      <trkpt lat="63.384627521" lon="10.2438837645">
        <ele>231.2</ele>
        <time>2012-02-02T12:09:53Z</time>
      </trkpt>
      <trkpt lat="63.3845625613" lon="10.2441405021">
        <ele>232.6</ele>
        <time>2012-02-02T12:09:59Z</time>
      </trkpt>
      <trkpt lat="63.3844980207" lon="10.244433198">
        <ele>233.6</ele>
        <time>2012-02-02T12:10:05Z</time>
      </trkpt>
      <trkpt lat="63.3844390121" lon="10.2446651252">
        <ele>234.2</ele>
        <time>2012-02-02T12:10:10Z</time>
      </trkpt>
      <trkpt lat="63.3843625692" lon="10.2449323402">
        <ele>234.6</ele>
        <time>2012-02-02T12:10:15Z</time>
      </trkpt>
      <trkpt lat="63.3842633275" lon="10.2452734835">
        <ele>234.6</ele>
        <time>2012-02-02T12:10:20Z</time>
      </trkpt>
      <trkpt lat="63.3841650078" lon="10.245605742">
        <ele>234.8</ele>
        <time>2012-02-02T12:10:25Z</time>
      </trkpt>
      <trkpt lat="63.3840981202" lon="10.2458088354">
        <ele>234.8</ele>
        <time>2012-02-02T12:10:28Z</time>
      </trkpt>
      <trkpt lat="63.3840030695" lon="10.2460889585">
        <ele>234.4</ele>
        <time>2012-02-02T12:10:33Z</time>
      </trkpt>
      <trkpt lat="63.3838977928" lon="10.2463572632">
        <ele>234</ele>
        <time>2012-02-02T12:10:37Z</time>
      </trkpt>
      <trkpt lat="63.3837895825" lon="10.2466782899">
        <ele>233.2</ele>
        <time>2012-02-02T12:10:41Z</time>
      </trkpt>
      <trkpt lat="63.3836641892" lon="10.2470340178">
        <ele>231.8</ele>
        <time>2012-02-02T12:10:46Z</time>
      </trkpt>
      <trkpt lat="63.3835618462" lon="10.2473068486">
        <ele>230.6</ele>
        <time>2012-02-02T12:10:50Z</time>
      </trkpt>
      <trkpt lat="63.3834132352" lon="10.2477183161">
        <ele>229.4</ele>
        <time>2012-02-02T12:10:56Z</time>
      </trkpt>
      <trkpt lat="63.3833329366" lon="10.2479685996">
        <ele>228.2</ele>
        <time>2012-02-02T12:11:01Z</time>
      </trkpt>
      <trkpt lat="63.3832591758" lon="10.2482068132">
        <ele>227.6</ele>
        <time>2012-02-02T12:11:06Z</time>
      </trkpt>
      <trkpt lat="63.3831612752" lon="10.2485583501">
        <ele>227.2</ele>
        <time>2012-02-02T12:11:11Z</time>
      </trkpt>
      <trkpt lat="63.3830742711" lon="10.2489094679">
        <ele>227</ele>
        <time>2012-02-02T12:11:15Z</time>
      </trkpt>
      <trkpt lat="63.3829772925" lon="10.2493070214">
        <ele>226.8</ele>
        <time>2012-02-02T12:11:19Z</time>
      </trkpt>
      <trkpt lat="63.3829266659" lon="10.2495027388">
        <ele>226.8</ele>
        <time>2012-02-02T12:11:21Z</time>
      </trkpt>
      <trkpt lat="63.3828306093" lon="10.2498076723">
        <ele>226.6</ele>
        <time>2012-02-02T12:11:26Z</time>
      </trkpt>
      <trkpt lat="63.3827806532" lon="10.2499438782">
        <ele>226.6</ele>
        <time>2012-02-02T12:11:28Z</time>
      </trkpt>
      <trkpt lat="63.3826882008" lon="10.250206064">
        <ele>226.8</ele>
        <time>2012-02-02T12:11:33Z</time>
      </trkpt>
      <trkpt lat="63.382603376" lon="10.2504048827">
        <ele>227.4</ele>
        <time>2012-02-02T12:11:37Z</time>
      </trkpt>
      <trkpt lat="63.3825930662" lon="10.2504541682">
        <ele>227.6</ele>
        <time>2012-02-02T12:11:38Z</time>
      </trkpt>
      <trkpt lat="63.3825324651" lon="10.2506090657">
        <ele>228.2</ele>
        <time>2012-02-02T12:11:42Z</time>
      </trkpt>
      <trkpt lat="63.3824807488" lon="10.2507531506">
        <ele>229</ele>
        <time>2012-02-02T12:11:46Z</time>
      </trkpt>
      <trkpt lat="63.382396846" lon="10.2509984888">
        <ele>230.8</ele>
        <time>2012-02-02T12:11:52Z</time>
      </trkpt>
      <trkpt lat="63.3823240911" lon="10.2511936195">
        <ele>232.6</ele>
        <time>2012-02-02T12:11:58Z</time>
      </trkpt>
      <trkpt lat="63.3822499113" lon="10.2513911808">
        <ele>234.8</ele>
        <time>2012-02-02T12:12:04Z</time>
      </trkpt>
      <trkpt lat="63.3822079179" lon="10.251523531">
        <ele>236.2</ele>
        <time>2012-02-02T12:12:08Z</time>
      </trkpt>
      <trkpt lat="63.3821055749" lon="10.2519179832">
        <ele>240</ele>
        <time>2012-02-02T12:12:20Z</time>
      </trkpt>
      <trkpt lat="63.3820751486" lon="10.252051926">
        <ele>241.6</ele>
        <time>2012-02-02T12:12:26Z</time>
      </trkpt>
      <trkpt lat="63.3820604803" lon="10.2521512515">
        <ele>243.2</ele>
        <time>2012-02-02T12:12:31Z</time>
      </trkpt>
      <trkpt lat="63.3820468178" lon="10.2522395129">
        <ele>244.6</ele>
        <time>2012-02-02T12:12:36Z</time>
      </trkpt>
      <trkpt lat="63.3820349993" lon="10.2523049756">
        <ele>245.4</ele>
        <time>2012-02-02T12:12:39Z</time>
      </trkpt>
      <trkpt lat="63.3820184032" lon="10.2523948295">
        <ele>247.2</ele>
        <time>2012-02-02T12:12:44Z</time>
      </trkpt>
      <trkpt lat="63.3820118653" lon="10.2524244176">
        <ele>247.8</ele>
        <time>2012-02-02T12:12:46Z</time>
      </trkpt>
      <trkpt lat="63.3819961911" lon="10.2524753796">
        <ele>249.4</ele>
        <time>2012-02-02T12:12:51Z</time>
      </trkpt>
      <trkpt lat="63.3819620768" lon="10.2526916326">
        <ele>251.2</ele>
        <time>2012-02-02T12:12:58Z</time>
      </trkpt>
      <trkpt lat="63.3819296389" lon="10.2528250725">
        <ele>252.6</ele>
        <time>2012-02-02T12:13:04Z</time>
      </trkpt>
      <trkpt lat="63.3819278787" lon="10.2528496314">
        <ele>252.6</ele>
        <time>2012-02-02T12:13:05Z</time>
      </trkpt>
      <trkpt lat="63.3819122883" lon="10.2529192012">
        <ele>253.2</ele>
        <time>2012-02-02T12:13:09Z</time>
      </trkpt>
      <trkpt lat="63.3819077621" lon="10.2529384796">
        <ele>253.4</ele>
        <time>2012-02-02T12:13:10Z</time>
      </trkpt>
      <trkpt lat="63.3818811915" lon="10.2530453488">
        <ele>254.8</ele>
        <time>2012-02-02T12:13:17Z</time>
      </trkpt>
      <trkpt lat="63.3818544532" lon="10.2531565766">
        <ele>255.2</ele>
        <time>2012-02-02T12:13:21Z</time>
      </trkpt>
      <trkpt lat="63.3818131304" lon="10.2533413137">
        <ele>256.4</ele>
        <time>2012-02-02T12:13:27Z</time>
      </trkpt>
      <trkpt lat="63.3817430578" lon="10.2535143999">
        <ele>257.2</ele>
        <time>2012-02-02T12:13:33Z</time>
      </trkpt>
      <trkpt lat="63.3817329157" lon="10.2535397971">
        <ele>257.4</ele>
        <time>2012-02-02T12:13:34Z</time>
      </trkpt>
      <trkpt lat="63.3816766731" lon="10.2536564731">
        <ele>258.6</ele>
        <time>2012-02-02T12:13:39Z</time>
      </trkpt>
      <trkpt lat="63.3816107914" lon="10.2537771725">
        <ele>259.2</ele>
        <time>2012-02-02T12:13:44Z</time>
      </trkpt>
      <trkpt lat="63.3815661997" lon="10.2538744863">
        <ele>260</ele>
        <time>2012-02-02T12:13:48Z</time>
      </trkpt>
      <trkpt lat="63.3815071073" lon="10.2539771646">
        <ele>261</ele>
        <time>2012-02-02T12:13:53Z</time>
      </trkpt>
      <trkpt lat="63.3814892538" lon="10.254012201">
        <ele>261.2</ele>
        <time>2012-02-02T12:13:55Z</time>
      </trkpt>
      <trkpt lat="63.3814202708" lon="10.254158046">
        <ele>262.4</ele>
        <time>2012-02-02T12:14:00Z</time>
      </trkpt>
      <trkpt lat="63.3813239628" lon="10.2543128597">
        <ele>263.6</ele>
        <time>2012-02-02T12:14:07Z</time>
      </trkpt>
      <trkpt lat="63.3812805445" lon="10.2543736285">
        <ele>264.6</ele>
        <time>2012-02-02T12:14:12Z</time>
      </trkpt>
      <trkpt lat="63.3812614338" lon="10.2544013726">
        <ele>265</ele>
        <time>2012-02-02T12:14:14Z</time>
      </trkpt>
      <trkpt lat="63.3811965579" lon="10.254526682">
        <ele>266.6</ele>
        <time>2012-02-02T12:14:23Z</time>
      </trkpt>
      <trkpt lat="63.3811544807" lon="10.2546074835">
        <ele>267.4</ele>
        <time>2012-02-02T12:14:29Z</time>
      </trkpt>
      <trkpt lat="63.3811016748" lon="10.2547089883">
        <ele>269.2</ele>
        <time>2012-02-02T12:14:35Z</time>
      </trkpt>
      <trkpt lat="63.3810575022" lon="10.2547997643">
        <ele>270.2</ele>
        <time>2012-02-02T12:14:40Z</time>
      </trkpt>
      <trkpt lat="63.3809985774" lon="10.2549350482">
        <ele>271.6</ele>
        <time>2012-02-02T12:14:46Z</time>
      </trkpt>
      <trkpt lat="63.3809397365" lon="10.2550301827">
        <ele>272.6</ele>
        <time>2012-02-02T12:14:51Z</time>
      </trkpt>
      <trkpt lat="63.3808560851" lon="10.2552028499">
        <ele>273.8</ele>
        <time>2012-02-02T12:14:57Z</time>
      </trkpt>
      <trkpt lat="63.3807875212" lon="10.2553618545">
        <ele>274.2</ele>
        <time>2012-02-02T12:15:01Z</time>
      </trkpt>
      <trkpt lat="63.3806944821" lon="10.2555289896">
        <ele>275.4</ele>
        <time>2012-02-02T12:15:08Z</time>
      </trkpt>
      <trkpt lat="63.3805888701" lon="10.2557332565">
        <ele>276</ele>
        <time>2012-02-02T12:15:13Z</time>
      </trkpt>
      <trkpt lat="63.3804288597" lon="10.2560277126">
        <ele>276.6</ele>
        <time>2012-02-02T12:15:22Z</time>
      </trkpt>
      <trkpt lat="63.3803526682" lon="10.2561778325">
        <ele>276.8</ele>
        <time>2012-02-02T12:15:27Z</time>
      </trkpt>
      <trkpt lat="63.3803364911" lon="10.256194261">
        <ele>276.8</ele>
        <time>2012-02-02T12:15:28Z</time>
      </trkpt>
      <trkpt lat="63.3802984373" lon="10.2562874677">
        <ele>276.8</ele>
        <time>2012-02-02T12:15:31Z</time>
      </trkpt>
      <trkpt lat="63.3802830146" lon="10.2563183969">
        <ele>277.2</ele>
        <time>2012-02-02T12:15:32Z</time>
      </trkpt>
      <trkpt lat="63.3802044762" lon="10.2564826822">
        <ele>278</ele>
        <time>2012-02-02T12:15:38Z</time>
      </trkpt>
      <trkpt lat="63.3801427854" lon="10.2566007831">
        <ele>278.4</ele>
        <time>2012-02-02T12:15:42Z</time>
      </trkpt>
      <trkpt lat="63.380061481" lon="10.2567674991">
        <ele>279.8</ele>
        <time>2012-02-02T12:15:48Z</time>
      </trkpt>
      <trkpt lat="63.3799920789" lon="10.2568959098">
        <ele>280.4</ele>
        <time>2012-02-02T12:15:53Z</time>
      </trkpt>
      <trkpt lat="63.3798968605" lon="10.2570783">
        <ele>281.6</ele>
        <time>2012-02-02T12:15:59Z</time>
      </trkpt>
      <trkpt lat="63.379828548" lon="10.2572181101">
        <ele>282.4</ele>
        <time>2012-02-02T12:16:04Z</time>
      </trkpt>
      <trkpt lat="63.3797294739" lon="10.2574393922">
        <ele>283.6</ele>
        <time>2012-02-02T12:16:10Z</time>
      </trkpt>
      <trkpt lat="63.3795661107" lon="10.2577386261">
        <ele>284.8</ele>
        <time>2012-02-02T12:16:18Z</time>
      </trkpt>
      <trkpt lat="63.379464103" lon="10.2578826271">
        <ele>285.6</ele>
        <time>2012-02-02T12:16:22Z</time>
      </trkpt>
      <trkpt lat="63.379348768" lon="10.2580272149">
        <ele>286.4</ele>
        <time>2012-02-02T12:16:26Z</time>
      </trkpt>
      <trkpt lat="63.3792407253" lon="10.2581635884">
        <ele>286.8</ele>
        <time>2012-02-02T12:16:30Z</time>
      </trkpt>
      <trkpt lat="63.3791424057" lon="10.258299459">
        <ele>287</ele>
        <time>2012-02-02T12:16:34Z</time>
      </trkpt>
      <trkpt lat="63.3790647893" lon="10.2584090942">
        <ele>287.2</ele>
        <time>2012-02-02T12:16:39Z</time>
      </trkpt>
      <trkpt lat="63.378978288" lon="10.2586601322">
        <ele>287.4</ele>
        <time>2012-02-02T12:16:43Z</time>
      </trkpt>
      <trkpt lat="63.3788706645" lon="10.2589809913">
        <ele>287.4</ele>
        <time>2012-02-02T12:16:48Z</time>
      </trkpt>
      <trkpt lat="63.3787937186" lon="10.2592492121">
        <ele>287.4</ele>
        <time>2012-02-02T12:16:53Z</time>
      </trkpt>
      <trkpt lat="63.3787889409" lon="10.2592954802">
        <ele>287.4</ele>
        <time>2012-02-02T12:16:54Z</time>
      </trkpt>
      <trkpt lat="63.3787578441" lon="10.259435877">
        <ele>287.6</ele>
        <time>2012-02-02T12:16:57Z</time>
      </trkpt>
      <trkpt lat="63.3786619551" lon="10.2598092906">
        <ele>287.6</ele>
        <time>2012-02-02T12:17:04Z</time>
      </trkpt>
      <trkpt lat="63.3786494661" lon="10.259865617">
        <ele>287.6</ele>
        <time>2012-02-02T12:17:05Z</time>
      </trkpt>
      <trkpt lat="63.3785706763" lon="10.2601174931">
        <ele>287.6</ele>
        <time>2012-02-02T12:17:10Z</time>
      </trkpt>
      <trkpt lat="63.3785571814" lon="10.2601747415">
        <ele>287.6</ele>
        <time>2012-02-02T12:17:11Z</time>
      </trkpt>
      <trkpt lat="63.3784780563" lon="10.2604484105">
        <ele>287.6</ele>
        <time>2012-02-02T12:17:17Z</time>
      </trkpt>
      <trkpt lat="63.3784400024" lon="10.260728366">
        <ele>287.6</ele>
        <time>2012-02-02T12:17:21Z</time>
      </trkpt>
      <trkpt lat="63.3784377393" lon="10.2611148554">
        <ele>287.6</ele>
        <time>2012-02-02T12:17:26Z</time>
      </trkpt>
      <trkpt lat="63.378472608" lon="10.2614384805">
        <ele>287.4</ele>
        <time>2012-02-02T12:17:30Z</time>
      </trkpt>
      <trkpt lat="63.3785190437" lon="10.2618760157">
        <ele>286.6</ele>
        <time>2012-02-02T12:17:35Z</time>
      </trkpt>
      <trkpt lat="63.3785372325" lon="10.2623568853">
        <ele>286.2</ele>
        <time>2012-02-02T12:17:39Z</time>
      </trkpt>
      <trkpt lat="63.378538825" lon="10.262849322">
        <ele>286</ele>
        <time>2012-02-02T12:17:42Z</time>
      </trkpt>
      <trkpt lat="63.3785317842" lon="10.2632510664">
        <ele>285.4</ele>
        <time>2012-02-02T12:17:44Z</time>
      </trkpt>
      <trkpt lat="63.3785192114" lon="10.2636762802">
        <ele>285</ele>
        <time>2012-02-02T12:17:46Z</time>
      </trkpt>
      <trkpt lat="63.3785074767" lon="10.264144577">
        <ele>284.2</ele>
        <time>2012-02-02T12:17:48Z</time>
      </trkpt>
      <trkpt lat="63.3784905453" lon="10.264543723">
        <ele>283.6</ele>
        <time>2012-02-02T12:17:50Z</time>
      </trkpt>
      <trkpt lat="63.3784810737" lon="10.2646985367">
        <ele>283.4</ele>
        <time>2012-02-02T12:17:51Z</time>
      </trkpt>
      <trkpt lat="63.3784873602" lon="10.2650765604">
        <ele>282.4</ele>
        <time>2012-02-02T12:17:54Z</time>
      </trkpt>
      <trkpt lat="63.3785901223" lon="10.265432875">
        <ele>281.2</ele>
        <time>2012-02-02T12:17:58Z</time>
      </trkpt>
      <trkpt lat="63.3787181139" lon="10.2657340367">
        <ele>280.2</ele>
        <time>2012-02-02T12:18:01Z</time>
      </trkpt>
      <trkpt lat="63.3788367178" lon="10.2662082007">
        <ele>279</ele>
        <time>2012-02-02T12:18:05Z</time>
      </trkpt>
      <trkpt lat="63.3788494582" lon="10.2666090232">
        <ele>278.4</ele>
        <time>2012-02-02T12:18:08Z</time>
      </trkpt>
      <trkpt lat="63.3788414954" lon="10.266723939">
        <ele>278.2</ele>
        <time>2012-02-02T12:18:09Z</time>
      </trkpt>
      <trkpt lat="63.3788357958" lon="10.2668459795">
        <ele>277.8</ele>
        <time>2012-02-02T12:18:10Z</time>
      </trkpt>
      <trkpt lat="63.3787785474" lon="10.2673884561">
        <ele>276.4</ele>
        <time>2012-02-02T12:18:15Z</time>
      </trkpt>
      <trkpt lat="63.3787425052" lon="10.267877959">
        <ele>275.2</ele>
        <time>2012-02-02T12:18:19Z</time>
      </trkpt>
      <trkpt lat="63.3787297647" lon="10.2683555597">
        <ele>274.2</ele>
        <time>2012-02-02T12:18:23Z</time>
      </trkpt>
      <trkpt lat="63.3787255738" lon="10.268799968">
        <ele>273</ele>
        <time>2012-02-02T12:18:28Z</time>
      </trkpt>
      <trkpt lat="63.378731022" lon="10.2691410275">
        <ele>272.2</ele>
        <time>2012-02-02T12:18:32Z</time>
      </trkpt>
      <trkpt lat="63.3788005918" lon="10.269460797">
        <ele>271.4</ele>
        <time>2012-02-02T12:18:37Z</time>
      </trkpt>
      <trkpt lat="63.3788513023" lon="10.2697394114">
        <ele>271</ele>
        <time>2012-02-02T12:18:40Z</time>
      </trkpt>
      <trkpt lat="63.3788724247" lon="10.2698586858">
        <ele>270.6</ele>
        <time>2012-02-02T12:18:41Z</time>
      </trkpt>
      <trkpt lat="63.3789913638" lon="10.2704436586">
        <ele>269.8</ele>
        <time>2012-02-02T12:18:45Z</time>
      </trkpt>
      <trkpt lat="63.3790303396" lon="10.2706068542">
        <ele>269.8</ele>
        <time>2012-02-02T12:18:46Z</time>
      </trkpt>
      <trkpt lat="63.3792041803" lon="10.2711898154">
        <ele>268.6</ele>
        <time>2012-02-02T12:18:50Z</time>
      </trkpt>
      <trkpt lat="63.3792310862" lon="10.2713471436">
        <ele>268.4</ele>
        <time>2012-02-02T12:18:51Z</time>
      </trkpt>
      <trkpt lat="63.3792280687" lon="10.2718443579">
        <ele>267.6</ele>
        <time>2012-02-02T12:18:54Z</time>
      </trkpt>
      <trkpt lat="63.3791242169" lon="10.2722163467">
        <ele>266.6</ele>
        <time>2012-02-02T12:18:57Z</time>
      </trkpt>
      <trkpt lat="63.3790844029" lon="10.2723232997">
        <ele>266.4</ele>
        <time>2012-02-02T12:18:58Z</time>
      </trkpt>
      <trkpt lat="63.379053809" lon="10.272432935">
        <ele>266</ele>
        <time>2012-02-02T12:18:59Z</time>
      </trkpt>
      <trkpt lat="63.3789503763" lon="10.2727210209">
        <ele>265</ele>
        <time>2012-02-02T12:19:02Z</time>
      </trkpt>
      <trkpt lat="63.3787684891" lon="10.2731694525">
        <ele>263.4</ele>
        <time>2012-02-02T12:19:07Z</time>
      </trkpt>
      <trkpt lat="63.378590709" lon="10.2734914013">
        <ele>261.6</ele>
        <time>2012-02-02T12:19:11Z</time>
      </trkpt>
      <trkpt lat="63.3785394956" lon="10.2735607196">
        <ele>261.2</ele>
        <time>2012-02-02T12:19:12Z</time>
      </trkpt>
      <trkpt lat="63.3783573569" lon="10.2738150264">
        <ele>259.6</ele>
        <time>2012-02-02T12:19:16Z</time>
      </trkpt>
      <trkpt lat="63.3783147768" lon="10.2738823331">
        <ele>259</ele>
        <time>2012-02-02T12:19:17Z</time>
      </trkpt>
      <trkpt lat="63.3782354003" lon="10.2740347999">
        <ele>258.2</ele>
        <time>2012-02-02T12:19:19Z</time>
      </trkpt>
      <trkpt lat="63.378154934" lon="10.2744778671">
        <ele>255.8</ele>
        <time>2012-02-02T12:19:24Z</time>
      </trkpt>
      <trkpt lat="63.3781571971" lon="10.2745721635">
        <ele>255.6</ele>
        <time>2012-02-02T12:19:25Z</time>
      </trkpt>
      <trkpt lat="63.3781665849" lon="10.2746763505">
        <ele>255</ele>
        <time>2012-02-02T12:19:26Z</time>
      </trkpt>
      <trkpt lat="63.3781737095" lon="10.2751258718">
        <ele>253.4</ele>
        <time>2012-02-02T12:19:30Z</time>
      </trkpt>
      <trkpt lat="63.3781854441" lon="10.2756301269">
        <ele>252.2</ele>
        <time>2012-02-02T12:19:34Z</time>
      </trkpt>
      <trkpt lat="63.3782019565" lon="10.2761047939">
        <ele>250.8</ele>
        <time>2012-02-02T12:19:38Z</time>
      </trkpt>
      <trkpt lat="63.3782017888" lon="10.2762176143">
        <ele>250.6</ele>
        <time>2012-02-02T12:19:39Z</time>
      </trkpt>
      <trkpt lat="63.3781818399" lon="10.2766231306">
        <ele>249.8</ele>
        <time>2012-02-02T12:19:42Z</time>
      </trkpt>
      <trkpt lat="63.3782557683" lon="10.2772031581">
        <ele>248.6</ele>
        <time>2012-02-02T12:19:46Z</time>
      </trkpt>
      <trkpt lat="63.3783941534" lon="10.2776536014">
        <ele>247.4</ele>
        <time>2012-02-02T12:19:49Z</time>
      </trkpt>
      <trkpt lat="63.3784441096" lon="10.2777823474">
        <ele>247</ele>
        <time>2012-02-02T12:19:50Z</time>
      </trkpt>
      <trkpt lat="63.3786162738" lon="10.2782170327">
        <ele>246</ele>
        <time>2012-02-02T12:19:53Z</time>
      </trkpt>
      <trkpt lat="63.3786649726" lon="10.2783804797">
        <ele>245.6</ele>
        <time>2012-02-02T12:19:54Z</time>
      </trkpt>
      <trkpt lat="63.3787946406" lon="10.2788805439">
        <ele>244.2</ele>
        <time>2012-02-02T12:19:57Z</time>
      </trkpt>
      <trkpt lat="63.3788435071" lon="10.2790576534">
        <ele>243.8</ele>
        <time>2012-02-02T12:19:58Z</time>
      </trkpt>
      <trkpt lat="63.3790487798" lon="10.279539948">
        <ele>242</ele>
        <time>2012-02-02T12:20:01Z</time>
      </trkpt>
      <trkpt lat="63.3791298328" lon="10.2796582166">
        <ele>241.6</ele>
        <time>2012-02-02T12:20:02Z</time>
      </trkpt>
      <trkpt lat="63.3792813776" lon="10.2798561132">
        <ele>240.2</ele>
        <time>2012-02-02T12:20:04Z</time>
      </trkpt>
      <trkpt lat="63.3793961258" lon="10.2802100809">
        <ele>238.8</ele>
        <time>2012-02-02T12:20:07Z</time>
      </trkpt>
      <trkpt lat="63.3793899232" lon="10.2803907108">
        <ele>237.6</ele>
        <time>2012-02-02T12:20:09Z</time>
      </trkpt>
      <trkpt lat="63.3793635202" lon="10.2805970732">
        <ele>236.6</ele>
        <time>2012-02-02T12:20:11Z</time>
      </trkpt>
      <trkpt lat="63.3792180104" lon="10.2811412261">
        <ele>234.4</ele>
        <time>2012-02-02T12:20:16Z</time>
      </trkpt>
      <trkpt lat="63.3791486921" lon="10.2813391228">
        <ele>233.6</ele>
        <time>2012-02-02T12:20:18Z</time>
      </trkpt>
      <trkpt lat="63.3789004202" lon="10.2822970902">
        <ele>230.2</ele>
        <time>2012-02-02T12:20:26Z</time>
      </trkpt>
      <trkpt lat="63.3788505479" lon="10.2827053725">
        <ele>229.2</ele>
        <time>2012-02-02T12:20:28Z</time>
      </trkpt>
      <trkpt lat="63.3788389809" lon="10.282909807">
        <ele>228.8</ele>
        <time>2012-02-02T12:20:29Z</time>
      </trkpt>
      <trkpt lat="63.3788815609" lon="10.2834432312">
        <ele>227.2</ele>
        <time>2012-02-02T12:20:32Z</time>
      </trkpt>
      <trkpt lat="63.3789041921" lon="10.283596117">
        <ele>226.8</ele>
        <time>2012-02-02T12:20:33Z</time>
      </trkpt>
      <trkpt lat="63.3790135758" lon="10.2840981928">
        <ele>224.6</ele>
        <time>2012-02-02T12:20:37Z</time>
      </trkpt>
      <trkpt lat="63.3791069502" lon="10.2843739573">
        <ele>222.8</ele>
        <time>2012-02-02T12:20:41Z</time>
      </trkpt>
      <trkpt lat="63.379157074" lon="10.2844740372">
        <ele>221.6</ele>
        <time>2012-02-02T12:20:44Z</time>
      </trkpt>
      <trkpt lat="63.3791653721" lon="10.2844823353">
        <ele>220</ele>
        <time>2012-02-02T12:20:51Z</time>
      </trkpt>
      <trkpt lat="63.3791007476" lon="10.2843356521">
        <ele>218.6</ele>
        <time>2012-02-02T12:21:48Z</time>
      </trkpt>
      <trkpt lat="63.3790198623" lon="10.2841478975">
        <ele>218.6</ele>
        <time>2012-02-02T12:21:52Z</time>
      </trkpt>
      <trkpt lat="63.3789192795" lon="10.2838158066">
        <ele>218.6</ele>
        <time>2012-02-02T12:21:57Z</time>
      </trkpt>
      <trkpt lat="63.3788558285" lon="10.2835133038">
        <ele>218.6</ele>
        <time>2012-02-02T12:22:02Z</time>
      </trkpt>
      <trkpt lat="63.3788266595" lon="10.2834010702">
        <ele>218.6</ele>
        <time>2012-02-02T12:22:07Z</time>
      </trkpt>
      <trkpt lat="63.378837053" lon="10.2834210191">
        <ele>218.6</ele>
        <time>2012-02-02T12:23:03Z</time>
      </trkpt>
      <trkpt lat="63.3788465246" lon="10.2834428121">
        <ele>218.6</ele>
        <time>2012-02-02T12:23:04Z</time>
      </trkpt>
      <trkpt lat="63.3789321876" lon="10.2835292295">
        <ele>218.6</ele>
        <time>2012-02-02T12:23:08Z</time>
      </trkpt>
      <trkpt lat="63.3790756857" lon="10.2835930157">
        <ele>218.6</ele>
        <time>2012-02-02T12:23:13Z</time>
      </trkpt>
      <trkpt lat="63.3792785277" lon="10.2836283035">
        <ele>218.6</ele>
        <time>2012-02-02T12:23:18Z</time>
      </trkpt>
      <trkpt lat="63.379474748" lon="10.2836888208">
        <ele>218.2</ele>
        <time>2012-02-02T12:23:23Z</time>
      </trkpt>
      <trkpt lat="63.3796851337" lon="10.2837723046">
        <ele>217.6</ele>
        <time>2012-02-02T12:23:27Z</time>
      </trkpt>
      <trkpt lat="63.3798700384" lon="10.2838500048">
        <ele>216.4</ele>
        <time>2012-02-02T12:23:31Z</time>
      </trkpt>
      <trkpt lat="63.3799639157" lon="10.283891579">
        <ele>216</ele>
        <time>2012-02-02T12:23:33Z</time>
      </trkpt>
      <trkpt lat="63.3801639916" lon="10.2839771582">
        <ele>214.6</ele>
        <time>2012-02-02T12:23:37Z</time>
      </trkpt>
      <trkpt lat="63.3802802486" lon="10.2840289583">
        <ele>213.4</ele>
        <time>2012-02-02T12:23:41Z</time>
      </trkpt>
      <trkpt lat="63.3804183823" lon="10.2840903138">
        <ele>211.6</ele>
        <time>2012-02-02T12:23:48Z</time>
      </trkpt>
      <trkpt lat="63.3805540853" lon="10.2840979414">
        <ele>210.4</ele>
        <time>2012-02-02T12:23:54Z</time>
      </trkpt>
      <trkpt lat="63.380679227" lon="10.2840987796">
        <ele>209.4</ele>
        <time>2012-02-02T12:23:59Z</time>
      </trkpt>
      <trkpt lat="63.3808036144" lon="10.2841753901">
        <ele>208.8</ele>
        <time>2012-02-02T12:24:04Z</time>
      </trkpt>
      <trkpt lat="63.3809496271" lon="10.2843547628">
        <ele>208.4</ele>
        <time>2012-02-02T12:24:10Z</time>
      </trkpt>
      <trkpt lat="63.3810448455" lon="10.2844638951">
        <ele>208.2</ele>
        <time>2012-02-02T12:24:15Z</time>
      </trkpt>
      <trkpt lat="63.3811907744" lon="10.2846127577">
        <ele>208</ele>
        <time>2012-02-02T12:24:22Z</time>
      </trkpt>
      <trkpt lat="63.3813740865" lon="10.284807553">
        <ele>208</ele>
        <time>2012-02-02T12:24:29Z</time>
      </trkpt>
      <trkpt lat="63.3815394614" lon="10.2849635402">
        <ele>208.4</ele>
        <time>2012-02-02T12:24:34Z</time>
      </trkpt>
      <trkpt lat="63.3817399565" lon="10.2851614368">
        <ele>209</ele>
        <time>2012-02-02T12:24:39Z</time>
      </trkpt>
      <trkpt lat="63.3818705465" lon="10.2852841479">
        <ele>209.2</ele>
        <time>2012-02-02T12:24:42Z</time>
      </trkpt>
      <trkpt lat="63.3820836982" lon="10.2854467567">
        <ele>209.4</ele>
        <time>2012-02-02T12:24:46Z</time>
      </trkpt>
      <trkpt lat="63.382206493" lon="10.2856099523">
        <ele>209.6</ele>
        <time>2012-02-02T12:24:48Z</time>
      </trkpt>
      <trkpt lat="63.3823648271" lon="10.2861703661">
        <ele>209.4</ele>
        <time>2012-02-02T12:24:52Z</time>
      </trkpt>
      <trkpt lat="63.3823748016" lon="10.2863166303">
        <ele>209.2</ele>
        <time>2012-02-02T12:24:53Z</time>
      </trkpt>
      <trkpt lat="63.3824245062" lon="10.2869724302">
        <ele>208.6</ele>
        <time>2012-02-02T12:24:58Z</time>
      </trkpt>
      <trkpt lat="63.3824283619" lon="10.2870792994">
        <ele>208.6</ele>
        <time>2012-02-02T12:24:59Z</time>
      </trkpt>
      <trkpt lat="63.3823951696" lon="10.2874153297">
        <ele>208.2</ele>
        <time>2012-02-02T12:25:03Z</time>
      </trkpt>
      <trkpt lat="63.3823609714" lon="10.2876399647">
        <ele>207.6</ele>
        <time>2012-02-02T12:25:06Z</time>
      </trkpt>
      <trkpt lat="63.3822908987" lon="10.2880142165">
        <ele>206.8</ele>
        <time>2012-02-02T12:25:11Z</time>
      </trkpt>
      <trkpt lat="63.3822562815" lon="10.2882038151">
        <ele>206.4</ele>
        <time>2012-02-02T12:25:14Z</time>
      </trkpt>
      <trkpt lat="63.3821901483" lon="10.2884975169">
        <ele>206.2</ele>
        <time>2012-02-02T12:25:18Z</time>
      </trkpt>
      <trkpt lat="63.3820955167" lon="10.2889390753">
        <ele>205.2</ele>
        <time>2012-02-02T12:25:23Z</time>
      </trkpt>
      <trkpt lat="63.3820797587" lon="10.2890297675">
        <ele>205</ele>
        <time>2012-02-02T12:25:24Z</time>
      </trkpt>
      <trkpt lat="63.3819895694" lon="10.2894104734">
        <ele>203.6</ele>
        <time>2012-02-02T12:25:30Z</time>
      </trkpt>
      <trkpt lat="63.3818861368" lon="10.2897554724">
        <ele>202.4</ele>
        <time>2012-02-02T12:25:35Z</time>
      </trkpt>
      <trkpt lat="63.3817749928" lon="10.2901553729">
        <ele>201</ele>
        <time>2012-02-02T12:25:40Z</time>
      </trkpt>
      <trkpt lat="63.3817451532" lon="10.2902649243">
        <ele>200.8</ele>
        <time>2012-02-02T12:25:41Z</time>
      </trkpt>
      <trkpt lat="63.3816865638" lon="10.2905617274">
        <ele>200.4</ele>
        <time>2012-02-02T12:25:44Z</time>
      </trkpt>
      <trkpt lat="63.3815511123" lon="10.2910992586">
        <ele>200</ele>
        <time>2012-02-02T12:25:49Z</time>
      </trkpt>
      <trkpt lat="63.3814813748" lon="10.2915696508">
        <ele>199.8</ele>
        <time>2012-02-02T12:25:53Z</time>
      </trkpt>
      <trkpt lat="63.3814749208" lon="10.2916959661">
        <ele>199.6</ele>
        <time>2012-02-02T12:25:54Z</time>
      </trkpt>
      <trkpt lat="63.3814771001" lon="10.2921749078">
        <ele>199.6</ele>
        <time>2012-02-02T12:25:58Z</time>
      </trkpt>
      <trkpt lat="63.3814871584" lon="10.2922963616">
        <ele>199.4</ele>
        <time>2012-02-02T12:25:59Z</time>
      </trkpt>
      <trkpt lat="63.3814907626" lon="10.2926801688">
        <ele>199.4</ele>
        <time>2012-02-02T12:26:02Z</time>
      </trkpt>
      <trkpt lat="63.3813490246" lon="10.2931746171">
        <ele>199.4</ele>
        <time>2012-02-02T12:26:06Z</time>
      </trkpt>
      <trkpt lat="63.3812945423" lon="10.2932906226">
        <ele>199.4</ele>
        <time>2012-02-02T12:26:07Z</time>
      </trkpt>
      <trkpt lat="63.3811309276" lon="10.2936411536">
        <ele>199.4</ele>
        <time>2012-02-02T12:26:10Z</time>
      </trkpt>
      <trkpt lat="63.3810808877" lon="10.2937798741">
        <ele>199.4</ele>
        <time>2012-02-02T12:26:11Z</time>
      </trkpt>
      <trkpt lat="63.3809841605" lon="10.2942184989">
        <ele>199.2</ele>
        <time>2012-02-02T12:26:14Z</time>
      </trkpt>
      <trkpt lat="63.3809031914" lon="10.2946007973">
        <ele>198.8</ele>
        <time>2012-02-02T12:26:16Z</time>
      </trkpt>
      <trkpt lat="63.3807774629" lon="10.2950823375">
        <ele>198.4</ele>
        <time>2012-02-02T12:26:19Z</time>
      </trkpt>
      <trkpt lat="63.3807461984" lon="10.2952276796">
        <ele>198.2</ele>
        <time>2012-02-02T12:26:20Z</time>
      </trkpt>
      <trkpt lat="63.3806603677" lon="10.2956365487">
        <ele>197.4</ele>
        <time>2012-02-02T12:26:23Z</time>
      </trkpt>
      <trkpt lat="63.3805762973" lon="10.2960262233">
        <ele>196.8</ele>
        <time>2012-02-02T12:26:26Z</time>
      </trkpt>
      <trkpt lat="63.380552828" lon="10.2961417258">
        <ele>196.6</ele>
        <time>2012-02-02T12:26:27Z</time>
      </trkpt>
      <trkpt lat="63.3804038816" lon="10.2966215058">
        <ele>196</ele>
        <time>2012-02-02T12:26:32Z</time>
      </trkpt>
      <trkpt lat="63.3803815019" lon="10.2967147963">
        <ele>195.6</ele>
        <time>2012-02-02T12:26:33Z</time>
      </trkpt>
      <trkpt lat="63.3803540931" lon="10.2968193186">
        <ele>195.4</ele>
        <time>2012-02-02T12:26:34Z</time>
      </trkpt>
      <trkpt lat="63.3802924862" lon="10.2970036366">
        <ele>194.8</ele>
        <time>2012-02-02T12:26:36Z</time>
      </trkpt>
      <trkpt lat="63.3801779056" lon="10.2974941454">
        <ele>194.2</ele>
        <time>2012-02-02T12:26:40Z</time>
      </trkpt>
      <trkpt lat="63.3800848665" lon="10.2978757733">
        <ele>193.8</ele>
        <time>2012-02-02T12:26:43Z</time>
      </trkpt>
      <trkpt lat="63.3800564518" lon="10.2980145776">
        <ele>193.8</ele>
        <time>2012-02-02T12:26:44Z</time>
      </trkpt>
      <trkpt lat="63.3799652568" lon="10.2985414638">
        <ele>193.4</ele>
        <time>2012-02-02T12:26:48Z</time>
      </trkpt>
      <trkpt lat="63.3799076731" lon="10.2987700382">
        <ele>193.4</ele>
        <time>2012-02-02T12:26:50Z</time>
      </trkpt>
      <trkpt lat="63.3798476587" lon="10.2990017139">
        <ele>193.2</ele>
        <time>2012-02-02T12:26:52Z</time>
      </trkpt>
      <trkpt lat="63.379726205" lon="10.2995386585">
        <ele>193.2</ele>
        <time>2012-02-02T12:26:56Z</time>
      </trkpt>
      <trkpt lat="63.3796434756" lon="10.3000108109">
        <ele>193.2</ele>
        <time>2012-02-02T12:26:59Z</time>
      </trkpt>
      <trkpt lat="63.3795746602" lon="10.3004300735">
        <ele>192.6</ele>
        <time>2012-02-02T12:27:02Z</time>
      </trkpt>
      <trkpt lat="63.379502995" lon="10.3008963586">
        <ele>192</ele>
        <time>2012-02-02T12:27:06Z</time>
      </trkpt>
      <trkpt lat="63.3794900869" lon="10.3010360011">
        <ele>192</ele>
        <time>2012-02-02T12:27:07Z</time>
      </trkpt>
      <trkpt lat="63.379451111" lon="10.3013531722">
        <ele>191.6</ele>
        <time>2012-02-02T12:27:10Z</time>
      </trkpt>
      <trkpt lat="63.3793462535" lon="10.3021780349">
        <ele>191.2</ele>
        <time>2012-02-02T12:27:22Z</time>
      </trkpt>
      <trkpt lat="63.3792903462" lon="10.3026254608">
        <ele>190</ele>
        <time>2012-02-02T12:27:28Z</time>
      </trkpt>
      <trkpt lat="63.3792549746" lon="10.3029929233">
        <ele>189.6</ele>
        <time>2012-02-02T12:27:33Z</time>
      </trkpt>
      <trkpt lat="63.3792370373" lon="10.3032515887">
        <ele>189.4</ele>
        <time>2012-02-02T12:27:37Z</time>
      </trkpt>
      <trkpt lat="63.3792240454" lon="10.3034944962">
        <ele>189.2</ele>
        <time>2012-02-02T12:27:40Z</time>
      </trkpt>
      <trkpt lat="63.3792477661" lon="10.3037389962">
        <ele>188.6</ele>
        <time>2012-02-02T12:27:44Z</time>
      </trkpt>
      <trkpt lat="63.3793388774" lon="10.3040016011">
        <ele>187.6</ele>
        <time>2012-02-02T12:27:50Z</time>
      </trkpt>
      <trkpt lat="63.3794155718" lon="10.3041362144">
        <ele>186.8</ele>
        <time>2012-02-02T12:27:54Z</time>
      </trkpt>
      <trkpt lat="63.3795021568" lon="10.3042987395">
        <ele>185.6</ele>
        <time>2012-02-02T12:28:00Z</time>
      </trkpt>
      <trkpt lat="63.3795672842" lon="10.3044135715">
        <ele>185.2</ele>
        <time>2012-02-02T12:28:05Z</time>
      </trkpt>
      <trkpt lat="63.3796624187" lon="10.304530499">
        <ele>184.8</ele>
        <time>2012-02-02T12:28:11Z</time>
      </trkpt>
      <trkpt lat="63.3797468245" lon="10.3046092889">
        <ele>184.8</ele>
        <time>2012-02-02T12:28:16Z</time>
      </trkpt>
      <trkpt lat="63.3798785041" lon="10.3046497734">
        <ele>184.6</ele>
        <time>2012-02-02T12:28:24Z</time>
      </trkpt>
      <trkpt lat="63.3799962698" lon="10.304630998">
        <ele>184.6</ele>
        <time>2012-02-02T12:28:31Z</time>
      </trkpt>
      <trkpt lat="63.3801099284" lon="10.3046355242">
        <ele>184.6</ele>
        <time>2012-02-02T12:28:38Z</time>
      </trkpt>
      <trkpt lat="63.3802000338" lon="10.304743986">
        <ele>184.6</ele>
        <time>2012-02-02T12:28:43Z</time>
      </trkpt>
      <trkpt lat="63.3802549352" lon="10.3049597361">
        <ele>184.6</ele>
        <time>2012-02-02T12:28:49Z</time>
      </trkpt>
      <trkpt lat="63.3802503252" lon="10.3052009672">
        <ele>184.6</ele>
        <time>2012-02-02T12:28:53Z</time>
      </trkpt>
      <trkpt lat="63.3802072422" lon="10.305575219">
        <ele>184.6</ele>
        <time>2012-02-02T12:28:59Z</time>
      </trkpt>
      <trkpt lat="63.3801270274" lon="10.305786862">
        <ele>184.6</ele>
        <time>2012-02-02T12:29:04Z</time>
      </trkpt>
      <trkpt lat="63.3799973595" lon="10.3059568469">
        <ele>184.6</ele>
        <time>2012-02-02T12:29:09Z</time>
      </trkpt>
      <trkpt lat="63.3798769954" lon="10.306099423">
        <ele>184.6</ele>
        <time>2012-02-02T12:29:13Z</time>
      </trkpt>
      <trkpt lat="63.3797503449" lon="10.3062336173">
        <ele>184.6</ele>
        <time>2012-02-02T12:29:18Z</time>
      </trkpt>
      <trkpt lat="63.3796485048" lon="10.306299499">
        <ele>184.6</ele>
        <time>2012-02-02T12:29:24Z</time>
      </trkpt>
      <trkpt lat="63.379564099" lon="10.3063551548">
        <ele>184.6</ele>
        <time>2012-02-02T12:29:29Z</time>
      </trkpt>
      <trkpt lat="63.3794604988" lon="10.306436124">
        <ele>184.6</ele>
        <time>2012-02-02T12:29:34Z</time>
      </trkpt>
      <trkpt lat="63.3793476784" lon="10.3065419035">
        <ele>184.6</ele>
        <time>2012-02-02T12:29:39Z</time>
      </trkpt>
      <trkpt lat="63.3792431561" lon="10.3066558136">
        <ele>184.6</ele>
        <time>2012-02-02T12:29:44Z</time>
      </trkpt>
      <trkpt lat="63.3790898511" lon="10.3069166583">
        <ele>184.6</ele>
        <time>2012-02-02T12:29:52Z</time>
      </trkpt>
      <trkpt lat="63.3790879233" lon="10.3069652733">
        <ele>184.6</ele>
        <time>2012-02-02T12:29:53Z</time>
      </trkpt>
      <trkpt lat="63.3790807987" lon="10.3072516828">
        <ele>184.6</ele>
        <time>2012-02-02T12:29:58Z</time>
      </trkpt>
      <trkpt lat="63.379084822" lon="10.3074133697">
        <ele>184.6</ele>
        <time>2012-02-02T12:30:04Z</time>
      </trkpt>
      <trkpt lat="63.3790880071" lon="10.3075973524">
        <ele>184.6</ele>
        <time>2012-02-02T12:30:09Z</time>
      </trkpt>
      <trkpt lat="63.3790958023" lon="10.3079224863">
        <ele>184.6</ele>
        <time>2012-02-02T12:30:15Z</time>
      </trkpt>
      <trkpt lat="63.3791032622" lon="10.308170842">
        <ele>184.6</ele>
        <time>2012-02-02T12:30:19Z</time>
      </trkpt>
      <trkpt lat="63.3791094648" lon="10.3085232171">
        <ele>184.6</ele>
        <time>2012-02-02T12:30:24Z</time>
      </trkpt>
      <trkpt lat="63.3790797929" lon="10.3089343493">
        <ele>184.6</ele>
        <time>2012-02-02T12:30:28Z</time>
      </trkpt>
      <trkpt lat="63.3790642025" lon="10.3091470819">
        <ele>184.6</ele>
        <time>2012-02-02T12:30:30Z</time>
      </trkpt>
      <trkpt lat="63.3789999134" lon="10.3096630716">
        <ele>184.6</ele>
        <time>2012-02-02T12:30:35Z</time>
      </trkpt>
      <trkpt lat="63.378979713" lon="10.3098317155">
        <ele>184.6</ele>
        <time>2012-02-02T12:30:37Z</time>
      </trkpt>
      <trkpt lat="63.3789350374" lon="10.3100317076">
        <ele>184.6</ele>
        <time>2012-02-02T12:30:40Z</time>
      </trkpt>
      <trkpt lat="63.3787855044" lon="10.310411743">
        <ele>184.2</ele>
        <time>2012-02-02T12:30:45Z</time>
      </trkpt>
      <trkpt lat="63.3787399906" lon="10.3104881021">
        <ele>184.2</ele>
        <time>2012-02-02T12:30:46Z</time>
      </trkpt>
      <trkpt lat="63.378697662" lon="10.3105398184">
        <ele>184</ele>
        <time>2012-02-02T12:30:47Z</time>
      </trkpt>
      <trkpt lat="63.3785021961" lon="10.3106213743">
        <ele>183.2</ele>
        <time>2012-02-02T12:30:51Z</time>
      </trkpt>
      <trkpt lat="63.378458275" lon="10.310632606">
        <ele>182.8</ele>
        <time>2012-02-02T12:30:52Z</time>
      </trkpt>
      <trkpt lat="63.3783870288" lon="10.3106302591">
        <ele>182.2</ele>
        <time>2012-02-02T12:30:55Z</time>
      </trkpt>
      <trkpt lat="63.3783727796" lon="10.3106444245">
        <ele>181</ele>
        <time>2012-02-02T12:31:00Z</time>
      </trkpt>
      <trkpt lat="63.3783431077" lon="10.3106093043">
        <ele>181.6</ele>
        <time>2012-02-02T12:32:25Z</time>
      </trkpt>
      <trkpt lat="63.3782305388" lon="10.3106365455">
        <ele>181.8</ele>
        <time>2012-02-02T12:32:32Z</time>
      </trkpt>
      <trkpt lat="63.3781329734" lon="10.3106200332">
        <ele>182</ele>
        <time>2012-02-02T12:32:39Z</time>
      </trkpt>
      <trkpt lat="63.3780364139" lon="10.3106013415">
        <ele>182</ele>
        <time>2012-02-02T12:32:46Z</time>
      </trkpt>
      <trkpt lat="63.3779008786" lon="10.3105775369">
        <ele>182.2</ele>
        <time>2012-02-02T12:32:56Z</time>
      </trkpt>
      <trkpt lat="63.3778034809" lon="10.3106292533">
        <ele>182.2</ele>
        <time>2012-02-02T12:33:04Z</time>
      </trkpt>
      <trkpt lat="63.3777088493" lon="10.3106745155">
        <ele>182.2</ele>
        <time>2012-02-02T12:33:12Z</time>
      </trkpt>
      <trkpt lat="63.3776135471" lon="10.3107240525">
        <ele>182.2</ele>
        <time>2012-02-02T12:33:20Z</time>
      </trkpt>
      <trkpt lat="63.3775336676" lon="10.3107548979">
        <ele>182.2</ele>
        <time>2012-02-02T12:33:27Z</time>
      </trkpt>
      <trkpt lat="63.377423278" lon="10.310764118">
        <ele>182.2</ele>
        <time>2012-02-02T12:33:36Z</time>
      </trkpt>
      <trkpt lat="63.3773118825" lon="10.3107333565">
        <ele>183.2</ele>
        <time>2012-02-02T12:33:46Z</time>
      </trkpt>
      <trkpt lat="63.3772161612" lon="10.3107323506">
        <ele>183.8</ele>
        <time>2012-02-02T12:33:54Z</time>
      </trkpt>
      <trkpt lat="63.3771866569" lon="10.3107511261">
        <ele>183.8</ele>
        <time>2012-02-02T12:33:57Z</time>
      </trkpt>
      <trkpt lat="63.3771263072" lon="10.3107879226">
        <ele>184</ele>
        <time>2012-02-02T12:34:02Z</time>
      </trkpt>
      <trkpt lat="63.3770415662" lon="10.3109630205">
        <ele>184</ele>
        <time>2012-02-02T12:34:12Z</time>
      </trkpt>
      <trkpt lat="63.377029161" lon="10.3109904293">
        <ele>184.2</ele>
        <time>2012-02-02T12:34:14Z</time>
      </trkpt>
      <trkpt lat="63.3770256406" lon="10.3109905131">
        <ele>184.6</ele>
        <time>2012-02-02T12:34:25Z</time>
      </trkpt>
      <trkpt lat="63.377000914" lon="10.3110584904">
        <ele>185.4</ele>
        <time>2012-02-02T12:34:32Z</time>
      </trkpt>
      <trkpt lat="63.3769622735" lon="10.3112067662">
        <ele>185.8</ele>
        <time>2012-02-02T12:34:38Z</time>
      </trkpt>
      <trkpt lat="63.3768883451" lon="10.3112866457">
        <ele>186</ele>
        <time>2012-02-02T12:34:43Z</time>
      </trkpt>
      <trkpt lat="63.3768554042" lon="10.3113397869">
        <ele>186</ele>
        <time>2012-02-02T12:34:48Z</time>
      </trkpt>
      <trkpt lat="63.3768779515" lon="10.3113275493">
        <ele>186.2</ele>
        <time>2012-02-02T12:35:13Z</time>
      </trkpt>
      <trkpt lat="63.3769575796" lon="10.3114992945">
        <ele>186.2</ele>
        <time>2012-02-02T12:35:19Z</time>
      </trkpt>
      <trkpt lat="63.3769538916" lon="10.3116793377">
        <ele>186.2</ele>
        <time>2012-02-02T12:35:24Z</time>
      </trkpt>
      <trkpt lat="63.3769149995" lon="10.3119052299">
        <ele>186.2</ele>
        <time>2012-02-02T12:35:29Z</time>
      </trkpt>
      <trkpt lat="63.3768810529" lon="10.3122083194">
        <ele>186.2</ele>
        <time>2012-02-02T12:35:34Z</time>
      </trkpt>
      <trkpt lat="63.3767955575" lon="10.3123537454">
        <ele>186.2</ele>
        <time>2012-02-02T12:35:38Z</time>
      </trkpt>
      <trkpt lat="63.3767336152" lon="10.3123876921">
        <ele>186.2</ele>
        <time>2012-02-02T12:35:40Z</time>
      </trkpt>
      <trkpt lat="63.3765940566" lon="10.3122246641">
        <ele>186.2</ele>
        <time>2012-02-02T12:35:45Z</time>
      </trkpt>
      <trkpt lat="63.3764279273" lon="10.3121290266">
        <ele>186.2</ele>
        <time>2012-02-02T12:35:50Z</time>
      </trkpt>
      <trkpt lat="63.3763131791" lon="10.3120675873">
        <ele>186.2</ele>
        <time>2012-02-02T12:35:54Z</time>
      </trkpt>
      <trkpt lat="63.376165993" lon="10.3119732071">
        <ele>185.8</ele>
        <time>2012-02-02T12:35:59Z</time>
      </trkpt>
      <trkpt lat="63.3759947507" lon="10.3118752227">
        <ele>185</ele>
        <time>2012-02-02T12:36:05Z</time>
      </trkpt>
      <trkpt lat="63.3758572876" lon="10.3117725444">
        <ele>184.6</ele>
        <time>2012-02-02T12:36:10Z</time>
      </trkpt>
      <trkpt lat="63.3757188186" lon="10.3116348298">
        <ele>184</ele>
        <time>2012-02-02T12:36:15Z</time>
      </trkpt>
      <trkpt lat="63.3756116141" lon="10.3114914993">
        <ele>183.4</ele>
        <time>2012-02-02T12:36:19Z</time>
      </trkpt>
      <trkpt lat="63.3755147193" lon="10.3113630886">
        <ele>182.8</ele>
        <time>2012-02-02T12:36:23Z</time>
      </trkpt>
      <trkpt lat="63.3754770008" lon="10.3113024875">
        <ele>182.8</ele>
        <time>2012-02-02T12:36:25Z</time>
      </trkpt>
      <trkpt lat="63.3753497635" lon="10.3111516133">
        <ele>182.4</ele>
        <time>2012-02-02T12:36:31Z</time>
      </trkpt>
      <trkpt lat="63.3752453251" lon="10.3110161618">
        <ele>182.2</ele>
        <time>2012-02-02T12:36:37Z</time>
      </trkpt>
      <trkpt lat="63.3751570637" lon="10.310897977">
        <ele>182.2</ele>
        <time>2012-02-02T12:36:43Z</time>
      </trkpt>
      <trkpt lat="63.3750848117" lon="10.3108225399">
        <ele>182</ele>
        <time>2012-02-02T12:36:48Z</time>
      </trkpt>
      <trkpt lat="63.3750755078" lon="10.3107936223">
        <ele>182</ele>
        <time>2012-02-02T12:36:49Z</time>
      </trkpt>
      <trkpt lat="63.3750359452" lon="10.3107575801">
        <ele>182</ele>
        <time>2012-02-02T12:36:53Z</time>
      </trkpt>
      <trkpt lat="63.3749937842" lon="10.3107316801">
        <ele>182</ele>
        <time>2012-02-02T12:36:59Z</time>
      </trkpt>
      <trkpt lat="63.3749372902" lon="10.3107197778">
        <ele>182</ele>
        <time>2012-02-02T12:37:04Z</time>
      </trkpt>
      <trkpt lat="63.3749307524" lon="10.310719694">
        <ele>182</ele>
        <time>2012-02-02T12:37:05Z</time>
      </trkpt>
      <trkpt lat="63.3748652059" lon="10.3106970628">
        <ele>182</ele>
        <time>2012-02-02T12:37:11Z</time>
      </trkpt>
      <trkpt lat="63.3748394735" lon="10.3106932072">
        <ele>182</ele>
        <time>2012-02-02T12:37:13Z</time>
      </trkpt>
      <trkpt lat="63.3747859969" lon="10.310703936">
        <ele>182</ele>
        <time>2012-02-02T12:37:18Z</time>
      </trkpt>
      <trkpt lat="63.3747115657" lon="10.3107047742">
        <ele>183</ele>
        <time>2012-02-02T12:37:25Z</time>
      </trkpt>
      <trkpt lat="63.3746492882" lon="10.310740984">
        <ele>183.6</ele>
        <time>2012-02-02T12:37:31Z</time>
      </trkpt>
      <trkpt lat="63.374586843" lon="10.3107750983">
        <ele>184</ele>
        <time>2012-02-02T12:37:37Z</time>
      </trkpt>
      <trkpt lat="63.3745207098" lon="10.3108035968">
        <ele>185</ele>
        <time>2012-02-02T12:37:43Z</time>
      </trkpt>
      <trkpt lat="63.3744508048" lon="10.3108544749">
        <ele>186</ele>
        <time>2012-02-02T12:37:49Z</time>
      </trkpt>
      <trkpt lat="63.3743829114" lon="10.3108758488">
        <ele>187</ele>
        <time>2012-02-02T12:37:54Z</time>
      </trkpt>
      <trkpt lat="63.3742602842" lon="10.3108964682">
        <ele>188.2</ele>
        <time>2012-02-02T12:38:01Z</time>
      </trkpt>
      <trkpt lat="63.3741687538" lon="10.3109023356">
        <ele>189.2</ele>
        <time>2012-02-02T12:38:06Z</time>
      </trkpt>
      <trkpt lat="63.374045959" lon="10.3108757649">
        <ele>189.8</ele>
        <time>2012-02-02T12:38:13Z</time>
      </trkpt>
      <trkpt lat="63.3739136088" lon="10.3108340231">
        <ele>191.4</ele>
        <time>2012-02-02T12:38:21Z</time>
      </trkpt>
      <trkpt lat="63.3738136127" lon="10.3108173431">
        <ele>192.4</ele>
        <time>2012-02-02T12:38:28Z</time>
      </trkpt>
      <trkpt lat="63.3737187296" lon="10.3107908563">
        <ele>193.6</ele>
        <time>2012-02-02T12:38:35Z</time>
      </trkpt>
      <trkpt lat="63.3736867108" lon="10.3107828097">
        <ele>193.8</ele>
        <time>2012-02-02T12:38:38Z</time>
      </trkpt>
      <trkpt lat="63.3736473158" lon="10.3107651239">
        <ele>195</ele>
        <time>2012-02-02T12:38:44Z</time>
      </trkpt>
      <trkpt lat="63.373598617" lon="10.3107697339">
        <ele>195.8</ele>
        <time>2012-02-02T12:38:49Z</time>
      </trkpt>
      <trkpt lat="63.3735572942" lon="10.3107625255">
        <ele>196.6</ele>
        <time>2012-02-02T12:38:53Z</time>
      </trkpt>
      <trkpt lat="63.3735189051" lon="10.3107093004">
        <ele>197.6</ele>
        <time>2012-02-02T12:38:59Z</time>
      </trkpt>
      <trkpt lat="63.3734970284" lon="10.3106999127">
        <ele>199.2</ele>
        <time>2012-02-02T12:39:05Z</time>
      </trkpt>
      <trkpt lat="63.3734798455" lon="10.3107829773">
        <ele>201.2</ele>
        <time>2012-02-02T12:39:15Z</time>
      </trkpt>
      <trkpt lat="63.3734267042" lon="10.3109957937">
        <ele>201.8</ele>
        <time>2012-02-02T12:39:20Z</time>
      </trkpt>
      <trkpt lat="63.3733784245" lon="10.3112408805">
        <ele>203.4</ele>
        <time>2012-02-02T12:39:27Z</time>
      </trkpt>
      <trkpt lat="63.3733422985" lon="10.3115410363">
        <ele>203.8</ele>
        <time>2012-02-02T12:39:30Z</time>
      </trkpt>
      <trkpt lat="63.3733500937" lon="10.3116855403">
        <ele>204</ele>
        <time>2012-02-02T12:39:31Z</time>
      </trkpt>
      <trkpt lat="63.3734852937" lon="10.3121243328">
        <ele>204.2</ele>
        <time>2012-02-02T12:39:34Z</time>
      </trkpt>
      <trkpt lat="63.3736608945" lon="10.3124204653">
        <ele>204.6</ele>
        <time>2012-02-02T12:39:37Z</time>
      </trkpt>
      <trkpt lat="63.3737157121" lon="10.3124907894">
        <ele>204.6</ele>
        <time>2012-02-02T12:39:38Z</time>
      </trkpt>
      <trkpt lat="63.3739095017" lon="10.3127077968">
        <ele>204.8</ele>
        <time>2012-02-02T12:39:42Z</time>
      </trkpt>
      <trkpt lat="63.3740792351" lon="10.3128916119">
        <ele>204.6</ele>
        <time>2012-02-02T12:39:46Z</time>
      </trkpt>
      <trkpt lat="63.3741776386" lon="10.312988339">
        <ele>204.2</ele>
        <time>2012-02-02T12:39:48Z</time>
      </trkpt>
      <trkpt lat="63.3743600288" lon="10.3132413048">
        <ele>203.8</ele>
        <time>2012-02-02T12:39:52Z</time>
      </trkpt>
      <trkpt lat="63.3744763696" lon="10.3135470765">
        <ele>203</ele>
        <time>2012-02-02T12:39:57Z</time>
      </trkpt>
      <trkpt lat="63.3744845" lon="10.3135842921">
        <ele>202.8</ele>
        <time>2012-02-02T12:39:58Z</time>
      </trkpt>
      <trkpt lat="63.3745183629" lon="10.3137398602">
        <ele>202</ele>
        <time>2012-02-02T12:40:04Z</time>
      </trkpt>
      <trkpt lat="63.3745533154" lon="10.3138370902">
        <ele>201.8</ele>
        <time>2012-02-02T12:40:10Z</time>
      </trkpt>
      <trkpt lat="63.3746170178" lon="10.3139651656">
        <ele>203</ele>
        <time>2012-02-02T12:40:18Z</time>
      </trkpt>
      <trkpt lat="63.374870235" lon="10.3142524972">
        <ele>205.4</ele>
        <time>2012-02-02T12:40:29Z</time>
      </trkpt>
      <trkpt lat="63.3750900923" lon="10.314313685">
        <ele>206.2</ele>
        <time>2012-02-02T12:40:34Z</time>
      </trkpt>
      <trkpt lat="63.3752845524" lon="10.3142409301">
        <ele>206.4</ele>
        <time>2012-02-02T12:40:37Z</time>
      </trkpt>
      <trkpt lat="63.3754615781" lon="10.3141073227">
        <ele>206.6</ele>
        <time>2012-02-02T12:40:39Z</time>
      </trkpt>
      <trkpt lat="63.3755697884" lon="10.3140183907">
        <ele>206.6</ele>
        <time>2012-02-02T12:40:40Z</time>
      </trkpt>
      <trkpt lat="63.3759135301" lon="10.3139722064">
        <ele>206.8</ele>
        <time>2012-02-02T12:40:43Z</time>
      </trkpt>
      <trkpt lat="63.3760639852" lon="10.3141092505">
        <ele>206.4</ele>
        <time>2012-02-02T12:40:45Z</time>
      </trkpt>
      <trkpt lat="63.3761622211" lon="10.3142672493">
        <ele>206.2</ele>
        <time>2012-02-02T12:40:47Z</time>
      </trkpt>
      <trkpt lat="63.3761943238" lon="10.314323911">
        <ele>206</ele>
        <time>2012-02-02T12:40:49Z</time>
      </trkpt>
      <trkpt lat="63.3762178769" lon="10.3143731127">
        <ele>205.8</ele>
        <time>2012-02-02T12:40:52Z</time>
      </trkpt>
      <trkpt lat="63.3763705951" lon="10.3145601129">
        <ele>205.4</ele>
        <time>2012-02-02T12:41:01Z</time>
      </trkpt>
      <trkpt lat="63.3764787217" lon="10.3147442632">
        <ele>205.2</ele>
        <time>2012-02-02T12:41:06Z</time>
      </trkpt>
      <trkpt lat="63.3765047894" lon="10.3149179362">
        <ele>205.2</ele>
        <time>2012-02-02T12:41:09Z</time>
      </trkpt>
      <trkpt lat="63.376454498" lon="10.3152131467">
        <ele>205.2</ele>
        <time>2012-02-02T12:41:17Z</time>
      </trkpt>
      <trkpt lat="63.3764441044" lon="10.3153512804">
        <ele>205.2</ele>
        <time>2012-02-02T12:41:23Z</time>
      </trkpt>
      <trkpt lat="63.3764254966" lon="10.3154432299">
        <ele>205.2</ele>
        <time>2012-02-02T12:41:27Z</time>
      </trkpt>
      <trkpt lat="63.3763909632" lon="10.3154739915">
        <ele>205.2</ele>
        <time>2012-02-02T12:41:32Z</time>
      </trkpt>
      <trkpt lat="63.3763545019" lon="10.3155452376">
        <ele>205.2</ele>
        <time>2012-02-02T12:41:37Z</time>
      </trkpt>
      <trkpt lat="63.3763477126" lon="10.3155656894">
        <ele>205.2</ele>
        <time>2012-02-02T12:41:38Z</time>
      </trkpt>
      <trkpt lat="63.3763443598" lon="10.3155862251">
        <ele>205.2</ele>
        <time>2012-02-02T12:41:39Z</time>
      </trkpt>
      <trkpt lat="63.3763172024" lon="10.3156780069">
        <ele>205.2</ele>
        <time>2012-02-02T12:41:44Z</time>
      </trkpt>
      <trkpt lat="63.3762783104" lon="10.315833575">
        <ele>205.2</ele>
        <time>2012-02-02T12:41:50Z</time>
      </trkpt>
      <trkpt lat="63.3762114229" lon="10.3161893866">
        <ele>205.6</ele>
        <time>2012-02-02T12:41:56Z</time>
      </trkpt>
      <trkpt lat="63.376136321" lon="10.3166357228">
        <ele>206.2</ele>
        <time>2012-02-02T12:42:01Z</time>
      </trkpt>
      <trkpt lat="63.3760612192" lon="10.3170118186">
        <ele>206.6</ele>
        <time>2012-02-02T12:42:04Z</time>
      </trkpt>
      <trkpt lat="63.3759829323" lon="10.3174093722">
        <ele>206.8</ele>
        <time>2012-02-02T12:42:08Z</time>
      </trkpt>
      <trkpt lat="63.3759779869" lon="10.3174233699">
        <ele>206.8</ele>
        <time>2012-02-02T12:42:09Z</time>
      </trkpt>
      <trkpt lat="63.375957116" lon="10.3175097035">
        <ele>207</ele>
        <time>2012-02-02T12:42:14Z</time>
      </trkpt>
      <trkpt lat="63.375945549" lon="10.3175682092">
        <ele>207</ele>
        <time>2012-02-02T12:42:16Z</time>
      </trkpt>
      <trkpt lat="63.3758939165" lon="10.3177661058">
        <ele>207</ele>
        <time>2012-02-02T12:42:24Z</time>
      </trkpt>
      <trkpt lat="63.3758143723" lon="10.3180339914">
        <ele>207.2</ele>
        <time>2012-02-02T12:42:31Z</time>
      </trkpt>
      <trkpt lat="63.375683447" lon="10.318406483">
        <ele>207.2</ele>
        <time>2012-02-02T12:42:43Z</time>
      </trkpt>
      <trkpt lat="63.3756480754" lon="10.318427773">
        <ele>207.2</ele>
        <time>2012-02-02T12:42:50Z</time>
      </trkpt>
      <trkpt lat="63.3756234326" lon="10.3184267672">
        <ele>207.2</ele>
        <time>2012-02-02T12:42:54Z</time>
      </trkpt>
      <trkpt lat="63.3756179843" lon="10.3184370769">
        <ele>208.2</ele>
        <time>2012-02-02T12:43:03Z</time>
      </trkpt>
      <trkpt lat="63.3756034837" lon="10.3184087461">
        <ele>213</ele>
        <time>2012-02-02T12:43:51Z</time>
      </trkpt>
      <trkpt lat="63.3755452294" lon="10.3183706085">
        <ele>213.2</ele>
        <time>2012-02-02T12:43:57Z</time>
      </trkpt>
      <trkpt lat="63.3754836225" lon="10.3183132763">
        <ele>213.2</ele>
        <time>2012-02-02T12:44:03Z</time>
      </trkpt>
      <trkpt lat="63.3754300621" lon="10.318243455">
        <ele>214</ele>
        <time>2012-02-02T12:44:09Z</time>
      </trkpt>
      <trkpt lat="63.3753972051" lon="10.3181943371">
        <ele>214.4</ele>
        <time>2012-02-02T12:44:13Z</time>
      </trkpt>
      <trkpt lat="63.3753651862" lon="10.3181402738">
        <ele>214.8</ele>
        <time>2012-02-02T12:44:17Z</time>
      </trkpt>
      <trkpt lat="63.3752677886" lon="10.3178395313">
        <ele>215.2</ele>
        <time>2012-02-02T12:44:31Z</time>
      </trkpt>
      <trkpt lat="63.3752262982" lon="10.3177117073">
        <ele>215.4</ele>
        <time>2012-02-02T12:44:37Z</time>
      </trkpt>
      <trkpt lat="63.3752032479" lon="10.3176463285">
        <ele>216</ele>
        <time>2012-02-02T12:44:40Z</time>
      </trkpt>
      <trkpt lat="63.3751572313" lon="10.3174875753">
        <ele>216.6</ele>
        <time>2012-02-02T12:44:47Z</time>
      </trkpt>
      <trkpt lat="63.3751510287" lon="10.3174729908">
        <ele>217</ele>
        <time>2012-02-02T12:44:48Z</time>
      </trkpt>
      <trkpt lat="63.3751440717" lon="10.3174435703">
        <ele>217.4</ele>
        <time>2012-02-02T12:44:50Z</time>
      </trkpt>
      <trkpt lat="63.375135606" lon="10.3173908482">
        <ele>217.8</ele>
        <time>2012-02-02T12:44:52Z</time>
      </trkpt>
      <trkpt lat="63.3751174173" lon="10.3173294927">
        <ele>218.4</ele>
        <time>2012-02-02T12:44:56Z</time>
      </trkpt>
      <trkpt lat="63.3750801178" lon="10.3172344419">
        <ele>219.6</ele>
        <time>2012-02-02T12:45:02Z</time>
      </trkpt>
      <trkpt lat="63.375037873" lon="10.3171688955">
        <ele>220.4</ele>
        <time>2012-02-02T12:45:06Z</time>
      </trkpt>
      <trkpt lat="63.3749777748" lon="10.3171795405">
        <ele>221.6</ele>
        <time>2012-02-02T12:45:11Z</time>
      </trkpt>
      <trkpt lat="63.3749273158" lon="10.3172694783">
        <ele>222.2</ele>
        <time>2012-02-02T12:45:15Z</time>
      </trkpt>
      <trkpt lat="63.374951288" lon="10.3176403773">
        <ele>222.8</ele>
        <time>2012-02-02T12:45:20Z</time>
      </trkpt>
      <trkpt lat="63.3751023299" lon="10.3178882301">
        <ele>223</ele>
        <time>2012-02-02T12:45:23Z</time>
      </trkpt>
      <trkpt lat="63.3751648588" lon="10.3179696184">
        <ele>223</ele>
        <time>2012-02-02T12:45:24Z</time>
      </trkpt>
      <trkpt lat="63.3753019867" lon="10.3183329737">
        <ele>223.2</ele>
        <time>2012-02-02T12:45:27Z</time>
      </trkpt>
      <trkpt lat="63.3752977958" lon="10.3188550823">
        <ele>223.4</ele>
        <time>2012-02-02T12:45:30Z</time>
      </trkpt>
      <trkpt lat="63.3752763381" lon="10.3189823195">
        <ele>223.4</ele>
        <time>2012-02-02T12:45:31Z</time>
      </trkpt>
      <trkpt lat="63.3751755038" lon="10.3192448406">
        <ele>223.4</ele>
        <time>2012-02-02T12:45:35Z</time>
      </trkpt>
      <trkpt lat="63.3750804531" lon="10.3194005763">
        <ele>223.2</ele>
        <time>2012-02-02T12:45:39Z</time>
      </trkpt>
      <trkpt lat="63.3749203588" lon="10.3197260455">
        <ele>222.2</ele>
        <time>2012-02-02T12:45:49Z</time>
      </trkpt>
      <trkpt lat="63.3748574107" lon="10.3199178234">
        <ele>222</ele>
        <time>2012-02-02T12:45:52Z</time>
      </trkpt>
      <trkpt lat="63.3747876733" lon="10.3202068313">
        <ele>221.8</ele>
        <time>2012-02-02T12:45:57Z</time>
      </trkpt>
      <trkpt lat="63.3747056145" lon="10.3206309554">
        <ele>221.8</ele>
        <time>2012-02-02T12:46:01Z</time>
      </trkpt>
      <trkpt lat="63.3746440076" lon="10.3208647266">
        <ele>221.8</ele>
        <time>2012-02-02T12:46:04Z</time>
      </trkpt>
      <trkpt lat="63.3744933848" lon="10.3213557383">
        <ele>221.8</ele>
        <time>2012-02-02T12:46:09Z</time>
      </trkpt>
      <trkpt lat="63.3743456957" lon="10.3216779386">
        <ele>221.2</ele>
        <time>2012-02-02T12:46:11Z</time>
      </trkpt>
      <trkpt lat="63.3742790596" lon="10.3217653618">
        <ele>221</ele>
        <time>2012-02-02T12:46:13Z</time>
      </trkpt>
      <trkpt lat="63.3740976753" lon="10.3218866479">
        <ele>220.6</ele>
        <time>2012-02-02T12:46:15Z</time>
      </trkpt>
      <trkpt lat="63.3740011158" lon="10.3219827044">
        <ele>220</ele>
        <time>2012-02-02T12:46:17Z</time>
      </trkpt>
      <trkpt lat="63.3737148739" lon="10.3223552799">
        <ele>219</ele>
        <time>2012-02-02T12:46:22Z</time>
      </trkpt>
      <trkpt lat="63.3735469845" lon="10.3225811721">
        <ele>217.8</ele>
        <time>2012-02-02T12:46:26Z</time>
      </trkpt>
      <trkpt lat="63.3734039893" lon="10.322966069">
        <ele>217</ele>
        <time>2012-02-02T12:46:30Z</time>
      </trkpt>
      <trkpt lat="63.3733714675" lon="10.3230927195">
        <ele>216.8</ele>
        <time>2012-02-02T12:46:31Z</time>
      </trkpt>
      <trkpt lat="63.3733037418" lon="10.3235710745">
        <ele>215.8</ele>
        <time>2012-02-02T12:46:34Z</time>
      </trkpt>
      <trkpt lat="63.3732722258" lon="10.3237407241">
        <ele>215.6</ele>
        <time>2012-02-02T12:46:35Z</time>
      </trkpt>
      <trkpt lat="63.3729743331" lon="10.3245473982">
        <ele>213.8</ele>
        <time>2012-02-02T12:46:40Z</time>
      </trkpt>
      <trkpt lat="63.3728722415" lon="10.3249254219">
        <ele>212.8</ele>
        <time>2012-02-02T12:46:42Z</time>
      </trkpt>
      <trkpt lat="63.3728095449" lon="10.3250659025">
        <ele>212.4</ele>
        <time>2012-02-02T12:46:44Z</time>
      </trkpt>
      <trkpt lat="63.3726253108" lon="10.3253309382">
        <ele>211</ele>
        <time>2012-02-02T12:46:46Z</time>
      </trkpt>
      <trkpt lat="63.372569152" lon="10.3254012624">
        <ele>210.6</ele>
        <time>2012-02-02T12:46:48Z</time>
      </trkpt>
      <trkpt lat="63.3724456866" lon="10.3256057807">
        <ele>209.2</ele>
        <time>2012-02-02T12:46:51Z</time>
      </trkpt>
      <trkpt lat="63.3724273303" lon="10.3256295015">
        <ele>208.8</ele>
        <time>2012-02-02T12:46:52Z</time>
      </trkpt>
      <trkpt lat="63.3724071299" lon="10.3256523841">
        <ele>208.4</ele>
        <time>2012-02-02T12:46:53Z</time>
      </trkpt>
      <trkpt lat="63.3722981652" lon="10.3258229557">
        <ele>206.8</ele>
        <time>2012-02-02T12:47:00Z</time>
      </trkpt>
      <trkpt lat="63.3721706765" lon="10.3259335968">
        <ele>206</ele>
        <time>2012-02-02T12:47:05Z</time>
      </trkpt>
      <trkpt lat="63.3719994343" lon="10.3259940303">
        <ele>205.6</ele>
        <time>2012-02-02T12:47:10Z</time>
      </trkpt>
      <trkpt lat="63.3718853566" lon="10.3260495185">
        <ele>205.4</ele>
        <time>2012-02-02T12:47:12Z</time>
      </trkpt>
      <trkpt lat="63.3718385018" lon="10.3262770033">
        <ele>205.4</ele>
        <time>2012-02-02T12:47:15Z</time>
      </trkpt>
      <trkpt lat="63.3718440339" lon="10.3263172364">
        <ele>205.2</ele>
        <time>2012-02-02T12:47:16Z</time>
      </trkpt>
      <trkpt lat="63.3716359113" lon="10.3272205538">
        <ele>204.6</ele>
        <time>2012-02-02T12:47:26Z</time>
      </trkpt>
      <trkpt lat="63.3714763199" lon="10.3275558298">
        <ele>204.2</ele>
        <time>2012-02-02T12:47:30Z</time>
      </trkpt>
      <trkpt lat="63.3712620785" lon="10.3279792833">
        <ele>203.4</ele>
        <time>2012-02-02T12:47:34Z</time>
      </trkpt>
      <trkpt lat="63.3711321591" lon="10.3282226937">
        <ele>203</ele>
        <time>2012-02-02T12:47:35Z</time>
      </trkpt>
      <trkpt lat="63.3708104618" lon="10.3284301457">
        <ele>201.8</ele>
        <time>2012-02-02T12:47:39Z</time>
      </trkpt>
      <trkpt lat="63.3706689753" lon="10.3283129668">
        <ele>201.2</ele>
        <time>2012-02-02T12:47:41Z</time>
      </trkpt>
      <trkpt lat="63.3705612679" lon="10.328209618">
        <ele>200.6</ele>
        <time>2012-02-02T12:47:43Z</time>
      </trkpt>
      <trkpt lat="63.3702733496" lon="10.3281742463">
        <ele>198.8</ele>
        <time>2012-02-02T12:47:49Z</time>
      </trkpt>
      <trkpt lat="63.3702169394" lon="10.3281899205">
        <ele>198.4</ele>
        <time>2012-02-02T12:47:50Z</time>
      </trkpt>
      <trkpt lat="63.3700590244" lon="10.3282340093">
        <ele>197</ele>
        <time>2012-02-02T12:47:54Z</time>
      </trkpt>
      <trkpt lat="63.3698900453" lon="10.3283373581">
        <ele>196</ele>
        <time>2012-02-02T12:47:57Z</time>
      </trkpt>
      <trkpt lat="63.3697134387" lon="10.3284915013">
        <ele>195</ele>
        <time>2012-02-02T12:48:00Z</time>
      </trkpt>
      <trkpt lat="63.3695112673" lon="10.3286984504">
        <ele>194</ele>
        <time>2012-02-02T12:48:03Z</time>
      </trkpt>
      <trkpt lat="63.3694056553" lon="10.3287868794">
        <ele>193</ele>
        <time>2012-02-02T12:48:04Z</time>
      </trkpt>
      <trkpt lat="63.3692959363" lon="10.3288369193">
        <ele>192.2</ele>
        <time>2012-02-02T12:48:06Z</time>
      </trkpt>
      <trkpt lat="63.3690996322" lon="10.3288503304">
        <ele>190.4</ele>
        <time>2012-02-02T12:48:10Z</time>
      </trkpt>
      <trkpt lat="63.3690184954" lon="10.3288106002">
        <ele>188.6</ele>
        <time>2012-02-02T12:48:15Z</time>
      </trkpt>
      <trkpt lat="63.3688498515" lon="10.328787047">
        <ele>186.6</ele>
        <time>2012-02-02T12:48:23Z</time>
      </trkpt>
      <trkpt lat="63.3687054314" lon="10.3287411142">
        <ele>185.2</ele>
        <time>2012-02-02T12:48:28Z</time>
      </trkpt>
      <trkpt lat="63.3685779427" lon="10.3285482467">
        <ele>184.2</ele>
        <time>2012-02-02T12:48:33Z</time>
      </trkpt>
      <trkpt lat="63.3684830596" lon="10.3283486737">
        <ele>183.6</ele>
        <time>2012-02-02T12:48:38Z</time>
      </trkpt>
      <trkpt lat="63.3684147471" lon="10.3281979671">
        <ele>183.2</ele>
        <time>2012-02-02T12:48:42Z</time>
      </trkpt>
      <trkpt lat="63.3683558224" lon="10.3280773516">
        <ele>183</ele>
        <time>2012-02-02T12:48:45Z</time>
      </trkpt>
      <trkpt lat="63.3682583409" lon="10.3277807161">
        <ele>182.8</ele>
        <time>2012-02-02T12:48:51Z</time>
      </trkpt>
      <trkpt lat="63.3681817303" lon="10.3276544009">
        <ele>183.4</ele>
        <time>2012-02-02T12:48:57Z</time>
      </trkpt>
      <trkpt lat="63.3681593506" lon="10.3276424148">
        <ele>183.6</ele>
        <time>2012-02-02T12:48:58Z</time>
      </trkpt>
      <trkpt lat="63.3681414134" lon="10.3276631181">
        <ele>184</ele>
        <time>2012-02-02T12:49:01Z</time>
      </trkpt>
      <trkpt lat="63.3680834944" lon="10.3276771158">
        <ele>185.4</ele>
        <time>2012-02-02T12:49:08Z</time>
      </trkpt>
      <trkpt lat="63.368048961" lon="10.3277135771">
        <ele>186.4</ele>
        <time>2012-02-02T12:49:13Z</time>
      </trkpt>
      <trkpt lat="63.3680298503" lon="10.3277699035">
        <ele>187.4</ele>
        <time>2012-02-02T12:49:17Z</time>
      </trkpt>
      <trkpt lat="63.3680220551" lon="10.3278545607">
        <ele>188.2</ele>
        <time>2012-02-02T12:49:20Z</time>
      </trkpt>
      <trkpt lat="63.3680946424" lon="10.3280995636">
        <ele>189.4</ele>
        <time>2012-02-02T12:49:25Z</time>
      </trkpt>
      <trkpt lat="63.3683940438" lon="10.3283148946">
        <ele>190.2</ele>
        <time>2012-02-02T12:49:30Z</time>
      </trkpt>
      <trkpt lat="63.3686024179" lon="10.3286139608">
        <ele>190.4</ele>
        <time>2012-02-02T12:49:34Z</time>
      </trkpt>
      <trkpt lat="63.3686487698" lon="10.3286893141">
        <ele>190.6</ele>
        <time>2012-02-02T12:49:35Z</time>
      </trkpt>
      <trkpt lat="63.3687062696" lon="10.3287613984">
        <ele>190.6</ele>
        <time>2012-02-02T12:49:37Z</time>
      </trkpt>
      <trkpt lat="63.3689331676" lon="10.3288258552">
        <ele>190.8</ele>
        <time>2012-02-02T12:49:40Z</time>
      </trkpt>
      <trkpt lat="63.369222427" lon="10.3288315549">
        <ele>191</ele>
        <time>2012-02-02T12:49:45Z</time>
      </trkpt>
      <trkpt lat="63.3694576231" lon="10.3288014639">
        <ele>191</ele>
        <time>2012-02-02T12:49:48Z</time>
      </trkpt>
      <trkpt lat="63.3695179728" lon="10.3287693612">
        <ele>190.8</ele>
        <time>2012-02-02T12:49:49Z</time>
      </trkpt>
      <trkpt lat="63.3695751374" lon="10.3287009649">
        <ele>190.4</ele>
        <time>2012-02-02T12:49:50Z</time>
      </trkpt>
      <trkpt lat="63.3696166278" lon="10.3286487457">
        <ele>190.2</ele>
        <time>2012-02-02T12:49:51Z</time>
      </trkpt>
      <trkpt lat="63.3697598744" lon="10.3284849634">
        <ele>189</ele>
        <time>2012-02-02T12:49:55Z</time>
      </trkpt>
      <trkpt lat="63.3697980959" lon="10.3284276312">
        <ele>188.8</ele>
        <time>2012-02-02T12:49:57Z</time>
      </trkpt>
      <trkpt lat="63.3698604572" lon="10.3283685388">
        <ele>187.8</ele>
        <time>2012-02-02T12:49:58Z</time>
      </trkpt>
      <trkpt lat="63.3699867725" lon="10.3282509407">
        <ele>185.6</ele>
        <time>2012-02-02T12:50:04Z</time>
      </trkpt>
      <trkpt lat="63.3700757044" lon="10.3282224423">
        <ele>184</ele>
        <time>2012-02-02T12:50:10Z</time>
      </trkpt>
      <trkpt lat="63.3702100663" lon="10.3281903396">
        <ele>183.2</ele>
        <time>2012-02-02T12:50:15Z</time>
      </trkpt>
      <trkpt lat="63.3703697415" lon="10.3281493521">
        <ele>182.6</ele>
        <time>2012-02-02T12:50:18Z</time>
      </trkpt>
      <trkpt lat="63.3705393911" lon="10.3282221908">
        <ele>181.6</ele>
        <time>2012-02-02T12:50:22Z</time>
      </trkpt>
      <trkpt lat="63.3707782753" lon="10.3284345043">
        <ele>180.8</ele>
        <time>2012-02-02T12:50:28Z</time>
      </trkpt>
      <trkpt lat="63.3708174188" lon="10.3284454846">
        <ele>180.6</ele>
        <time>2012-02-02T12:50:30Z</time>
      </trkpt>
      <trkpt lat="63.370942812" lon="10.3284259548">
        <ele>180.4</ele>
        <time>2012-02-02T12:50:34Z</time>
      </trkpt>
      <trkpt lat="63.3710562191" lon="10.3283197561">
        <ele>180.2</ele>
        <time>2012-02-02T12:50:40Z</time>
      </trkpt>
      <trkpt lat="63.3711355957" lon="10.3281860648">
        <ele>180</ele>
        <time>2012-02-02T12:50:45Z</time>
      </trkpt>
      <trkpt lat="63.3712211749" lon="10.327986408">
        <ele>180</ele>
        <time>2012-02-02T12:50:50Z</time>
      </trkpt>
      <trkpt lat="63.371313292" lon="10.3277983181">
        <ele>180.6</ele>
        <time>2012-02-02T12:50:57Z</time>
      </trkpt>
      <trkpt lat="63.3713940097" lon="10.3276459352">
        <ele>181.2</ele>
        <time>2012-02-02T12:51:03Z</time>
      </trkpt>
      <trkpt lat="63.37146425" lon="10.3275160995">
        <ele>182.6</ele>
        <time>2012-02-02T12:51:10Z</time>
      </trkpt>
      <trkpt lat="63.3715338197" lon="10.3273819891">
        <ele>184.2</ele>
        <time>2012-02-02T12:51:15Z</time>
      </trkpt>
      <trkpt lat="63.3716165491" lon="10.3272255829">
        <ele>185.8</ele>
        <time>2012-02-02T12:51:22Z</time>
      </trkpt>
      <trkpt lat="63.3716932435" lon="10.3270080726">
        <ele>187</ele>
        <time>2012-02-02T12:51:28Z</time>
      </trkpt>
      <trkpt lat="63.3717215743" lon="10.3269008681">
        <ele>187.6</ele>
        <time>2012-02-02T12:51:31Z</time>
      </trkpt>
      <trkpt lat="63.3717255976" lon="10.3268844396">
        <ele>187.6</ele>
        <time>2012-02-02T12:51:33Z</time>
      </trkpt>
      <trkpt lat="63.3717292018" lon="10.3268698551">
        <ele>188</ele>
        <time>2012-02-02T12:51:34Z</time>
      </trkpt>
      <trkpt lat="63.3717654116" lon="10.3267541848">
        <ele>189.4</ele>
        <time>2012-02-02T12:51:40Z</time>
      </trkpt>
      <trkpt lat="63.3717893001" lon="10.3266521771">
        <ele>190.6</ele>
        <time>2012-02-02T12:51:45Z</time>
      </trkpt>
      <trkpt lat="63.3717920661" lon="10.3266380955">
        <ele>190.8</ele>
        <time>2012-02-02T12:51:46Z</time>
      </trkpt>
      <trkpt lat="63.3717924014" lon="10.3266033106">
        <ele>191</ele>
        <time>2012-02-02T12:51:48Z</time>
      </trkpt>
      <trkpt lat="63.3718140267" lon="10.3264826951">
        <ele>192.6</ele>
        <time>2012-02-02T12:51:54Z</time>
      </trkpt>
      <trkpt lat="63.371843028" lon="10.3263844592">
        <ele>194.4</ele>
        <time>2012-02-02T12:52:00Z</time>
      </trkpt>
      <trkpt lat="63.3718954987" lon="10.3262982095">
        <ele>196.4</ele>
        <time>2012-02-02T12:52:06Z</time>
      </trkpt>
      <trkpt lat="63.371928272" lon="10.3262564676">
        <ele>197.6</ele>
        <time>2012-02-02T12:52:10Z</time>
      </trkpt>
      <trkpt lat="63.3719573572" lon="10.3262149772">
        <ele>198.8</ele>
        <time>2012-02-02T12:52:15Z</time>
      </trkpt>
      <trkpt lat="63.3720267593" lon="10.3261569745">
        <ele>201</ele>
        <time>2012-02-02T12:52:22Z</time>
      </trkpt>
      <trkpt lat="63.3721002685" lon="10.3261087785">
        <ele>202.4</ele>
        <time>2012-02-02T12:52:28Z</time>
      </trkpt>
      <trkpt lat="63.3721272583" lon="10.3260830461">
        <ele>203.2</ele>
        <time>2012-02-02T12:52:32Z</time>
      </trkpt>
      <trkpt lat="63.3721456984" lon="10.3260703056">
        <ele>204</ele>
        <time>2012-02-02T12:52:35Z</time>
      </trkpt>
      <trkpt lat="63.3721580198" lon="10.3260700542">
        <ele>206.4</ele>
        <time>2012-02-02T12:52:48Z</time>
      </trkpt>
      <trkpt lat="63.3721629652" lon="10.3260433159">
        <ele>208.4</ele>
        <time>2012-02-02T12:53:00Z</time>
      </trkpt>
      <trkpt lat="63.3722446887" lon="10.3260067708">
        <ele>215.4</ele>
        <time>2012-02-02T12:54:39Z</time>
      </trkpt>
      <trkpt lat="63.3722854247" lon="10.3259843073">
        <ele>215.4</ele>
        <time>2012-02-02T12:54:40Z</time>
      </trkpt>
      <trkpt lat="63.3724240613" lon="10.3257718262">
        <ele>215.6</ele>
        <time>2012-02-02T12:54:45Z</time>
      </trkpt>
      <trkpt lat="63.3725993269" lon="10.325445435">
        <ele>215.6</ele>
        <time>2012-02-02T12:54:48Z</time>
      </trkpt>
      <trkpt lat="63.3727557331" lon="10.3251688323">
        <ele>215.8</ele>
        <time>2012-02-02T12:54:50Z</time>
      </trkpt>
      <trkpt lat="63.3729976348" lon="10.3247844383">
        <ele>215.2</ele>
        <time>2012-02-02T12:54:52Z</time>
      </trkpt>
      <trkpt lat="63.3731699666" lon="10.3246891361">
        <ele>214.8</ele>
        <time>2012-02-02T12:54:55Z</time>
      </trkpt>
      <trkpt lat="63.3733218467" lon="10.3248175468">
        <ele>214.6</ele>
        <time>2012-02-02T12:54:57Z</time>
      </trkpt>
      <trkpt lat="63.3733825316" lon="10.324867503">
        <ele>214.6</ele>
        <time>2012-02-02T12:54:58Z</time>
      </trkpt>
      <trkpt lat="63.3735537738" lon="10.3250398348">
        <ele>214.4</ele>
        <time>2012-02-02T12:55:00Z</time>
      </trkpt>
      <trkpt lat="63.3737438753" lon="10.3251959896">
        <ele>213.4</ele>
        <time>2012-02-02T12:55:04Z</time>
      </trkpt>
      <trkpt lat="63.3738485653" lon="10.3252772102">
        <ele>212.8</ele>
        <time>2012-02-02T12:55:08Z</time>
      </trkpt>
      <trkpt lat="63.3738935761" lon="10.3256196947">
        <ele>211.8</ele>
        <time>2012-02-02T12:55:12Z</time>
      </trkpt>
      <trkpt lat="63.3737649139" lon="10.3264132091">
        <ele>209.8</ele>
        <time>2012-02-02T12:55:19Z</time>
      </trkpt>
      <trkpt lat="63.3736192365" lon="10.3270257584">
        <ele>208.6</ele>
        <time>2012-02-02T12:55:22Z</time>
      </trkpt>
      <trkpt lat="63.3734552865" lon="10.3273319492">
        <ele>207.6</ele>
        <time>2012-02-02T12:55:25Z</time>
      </trkpt>
      <trkpt lat="63.3733670251" lon="10.3274472841">
        <ele>207.4</ele>
        <time>2012-02-02T12:55:27Z</time>
      </trkpt>
      <trkpt lat="63.3731909214" lon="10.3276717514">
        <ele>205.4</ele>
        <time>2012-02-02T12:55:32Z</time>
      </trkpt>
      <trkpt lat="63.3729879118" lon="10.3279173411">
        <ele>203.6</ele>
        <time>2012-02-02T12:55:37Z</time>
      </trkpt>
      <trkpt lat="63.372793787" lon="10.3281853104">
        <ele>202.2</ele>
        <time>2012-02-02T12:55:40Z</time>
      </trkpt>
      <trkpt lat="63.372632603" lon="10.3283996356">
        <ele>201.2</ele>
        <time>2012-02-02T12:55:44Z</time>
      </trkpt>
      <trkpt lat="63.372504779" lon="10.3286312275">
        <ele>200.4</ele>
        <time>2012-02-02T12:55:46Z</time>
      </trkpt>
      <trkpt lat="63.372300596" lon="10.3291448704">
        <ele>198.8</ele>
        <time>2012-02-02T12:55:49Z</time>
      </trkpt>
      <trkpt lat="63.3722140948" lon="10.3293192139">
        <ele>198.4</ele>
        <time>2012-02-02T12:55:50Z</time>
      </trkpt>
      <trkpt lat="63.372011169" lon="10.3295565893">
        <ele>197.4</ele>
        <time>2012-02-02T12:55:52Z</time>
      </trkpt>
      <trkpt lat="63.3718346461" lon="10.3297259875">
        <ele>196.2</ele>
        <time>2012-02-02T12:55:54Z</time>
      </trkpt>
      <trkpt lat="63.3715675988" lon="10.3300015005">
        <ele>194.6</ele>
        <time>2012-02-02T12:55:57Z</time>
      </trkpt>
      <trkpt lat="63.3715292935" lon="10.3300380456">
        <ele>194</ele>
        <time>2012-02-02T12:55:58Z</time>
      </trkpt>
      <trkpt lat="63.3712639226" lon="10.3301317553">
        <ele>192.2</ele>
        <time>2012-02-02T12:56:02Z</time>
      </trkpt>
      <trkpt lat="63.3711958615" lon="10.3301488543">
        <ele>191.6</ele>
        <time>2012-02-02T12:56:03Z</time>
      </trkpt>
      <trkpt lat="63.3709581509" lon="10.3301857347">
        <ele>189.8</ele>
        <time>2012-02-02T12:56:07Z</time>
      </trkpt>
      <trkpt lat="63.3706980605" lon="10.3302672068">
        <ele>187.6</ele>
        <time>2012-02-02T12:56:13Z</time>
      </trkpt>
      <trkpt lat="63.3706465956" lon="10.3302517003">
        <ele>187</ele>
        <time>2012-02-02T12:56:14Z</time>
      </trkpt>
      <trkpt lat="63.3704072924" lon="10.3301657858">
        <ele>185</ele>
        <time>2012-02-02T12:56:22Z</time>
      </trkpt>
      <trkpt lat="63.3702733496" lon="10.3300987306">
        <ele>183.8</ele>
        <time>2012-02-02T12:56:28Z</time>
      </trkpt>
      <trkpt lat="63.3701558354" lon="10.3300302505">
        <ele>182.6</ele>
        <time>2012-02-02T12:56:34Z</time>
      </trkpt>
      <trkpt lat="63.3700017761" lon="10.3299199446">
        <ele>181.2</ele>
        <time>2012-02-02T12:56:40Z</time>
      </trkpt>
      <trkpt lat="63.3699741996" lon="10.3299127362">
        <ele>181.2</ele>
        <time>2012-02-02T12:56:42Z</time>
      </trkpt>
      <trkpt lat="63.3698469624" lon="10.329847525">
        <ele>180.6</ele>
        <time>2012-02-02T12:56:48Z</time>
      </trkpt>
      <trkpt lat="63.3697687592" lon="10.3298305098">
        <ele>180.4</ele>
        <time>2012-02-02T12:56:52Z</time>
      </trkpt>
      <trkpt lat="63.3696457968" lon="10.3298177693">
        <ele>180.2</ele>
        <time>2012-02-02T12:57:00Z</time>
      </trkpt>
      <trkpt lat="63.3695535121" lon="10.3298666358">
        <ele>180.2</ele>
        <time>2012-02-02T12:57:04Z</time>
      </trkpt>
      <trkpt lat="63.3694732135" lon="10.3299119818">
        <ele>180</ele>
        <time>2012-02-02T12:57:10Z</time>
      </trkpt>
      <trkpt lat="63.3693945074" lon="10.3299852396">
        <ele>180.4</ele>
        <time>2012-02-02T12:57:15Z</time>
      </trkpt>
      <trkpt lat="63.3692223432" lon="10.3301600861">
        <ele>181.6</ele>
        <time>2012-02-02T12:57:25Z</time>
      </trkpt>
      <trkpt lat="63.3690868079" lon="10.330258322">
        <ele>183</ele>
        <time>2012-02-02T12:57:34Z</time>
      </trkpt>
      <trkpt lat="63.3690196688" lon="10.330286569">
        <ele>183.4</ele>
        <time>2012-02-02T12:57:37Z</time>
      </trkpt>
      <trkpt lat="63.3688928507" lon="10.3303097868">
        <ele>184.8</ele>
        <time>2012-02-02T12:57:44Z</time>
      </trkpt>
      <trkpt lat="63.3687541302" lon="10.3304024068">
        <ele>185.2</ele>
        <time>2012-02-02T12:57:46Z</time>
      </trkpt>
      <trkpt lat="63.3686015797" lon="10.3305765827">
        <ele>185.6</ele>
        <time>2012-02-02T12:57:50Z</time>
      </trkpt>
      <trkpt lat="63.3684779466" lon="10.3307345815">
        <ele>186</ele>
        <time>2012-02-02T12:57:57Z</time>
      </trkpt>
      <trkpt lat="63.3684729175" lon="10.3307489984">
        <ele>186.2</ele>
        <time>2012-02-02T12:57:58Z</time>
      </trkpt>
      <trkpt lat="63.368435618" lon="10.330782526">
        <ele>186.2</ele>
        <time>2012-02-02T12:58:03Z</time>
      </trkpt>
      <trkpt lat="63.3684083769" lon="10.3308219209">
        <ele>186.4</ele>
        <time>2012-02-02T12:58:05Z</time>
      </trkpt>
      <trkpt lat="63.368393038" lon="10.3308375951">
        <ele>186.8</ele>
        <time>2012-02-02T12:58:07Z</time>
      </trkpt>
      <trkpt lat="63.3683649586" lon="10.3308909039">
        <ele>187.4</ele>
        <time>2012-02-02T12:58:12Z</time>
      </trkpt>
      <trkpt lat="63.3683502903" lon="10.3309130322">
        <ele>187.8</ele>
        <time>2012-02-02T12:58:14Z</time>
      </trkpt>
      <trkpt lat="63.3683130747" lon="10.3309804226">
        <ele>189</ele>
        <time>2012-02-02T12:58:20Z</time>
      </trkpt>
      <trkpt lat="63.3682476959" lon="10.3311012058">
        <ele>190.4</ele>
        <time>2012-02-02T12:58:28Z</time>
      </trkpt>
      <trkpt lat="63.3681669782" lon="10.3312376631">
        <ele>191.6</ele>
        <time>2012-02-02T12:58:34Z</time>
      </trkpt>
      <trkpt lat="63.3680596898" lon="10.3314255853">
        <ele>192.2</ele>
        <time>2012-02-02T12:58:40Z</time>
      </trkpt>
      <trkpt lat="63.3679367274" lon="10.3316356358">
        <ele>193.4</ele>
        <time>2012-02-02T12:58:48Z</time>
      </trkpt>
      <trkpt lat="63.3678467058" lon="10.3317852527">
        <ele>194.4</ele>
        <time>2012-02-02T12:58:55Z</time>
      </trkpt>
      <trkpt lat="63.3677356456" lon="10.3319668046">
        <ele>195.8</ele>
        <time>2012-02-02T12:59:02Z</time>
      </trkpt>
      <trkpt lat="63.3676612143" lon="10.3321520446">
        <ele>196.4</ele>
        <time>2012-02-02T12:59:05Z</time>
      </trkpt>
      <trkpt lat="63.3675274392" lon="10.3324107939">
        <ele>197.2</ele>
        <time>2012-02-02T12:59:10Z</time>
      </trkpt>
      <trkpt lat="63.3673762297" lon="10.3324230314">
        <ele>197.6</ele>
        <time>2012-02-02T12:59:12Z</time>
      </trkpt>
      <trkpt lat="63.3673029719" lon="10.3323744164">
        <ele>197.8</ele>
        <time>2012-02-02T12:59:13Z</time>
      </trkpt>
      <trkpt lat="63.367116307" lon="10.3321882544">
        <ele>198</ele>
        <time>2012-02-02T12:59:16Z</time>
      </trkpt>
      <trkpt lat="63.3670575499" lon="10.332098149">
        <ele>198.2</ele>
        <time>2012-02-02T12:59:17Z</time>
      </trkpt>
      <trkpt lat="63.3670068394" lon="10.3319359592">
        <ele>198.4</ele>
        <time>2012-02-02T12:59:18Z</time>
      </trkpt>
      <trkpt lat="63.3669234395" lon="10.3315125056">
        <ele>198.4</ele>
        <time>2012-02-02T12:59:22Z</time>
      </trkpt>
      <trkpt lat="63.3667911731" lon="10.3313139384">
        <ele>198.2</ele>
        <time>2012-02-02T12:59:25Z</time>
      </trkpt>
      <trkpt lat="63.3666478426" lon="10.3312151997">
        <ele>198</ele>
        <time>2012-02-02T12:59:27Z</time>
      </trkpt>
      <trkpt lat="63.3665029195" lon="10.3310512497">
        <ele>197.2</ele>
        <time>2012-02-02T12:59:29Z</time>
      </trkpt>
      <trkpt lat="63.3663576612" lon="10.3306523551">
        <ele>195.8</ele>
        <time>2012-02-02T12:59:34Z</time>
      </trkpt>
      <trkpt lat="63.3663333537" lon="10.3305373554">
        <ele>194.8</ele>
        <time>2012-02-02T12:59:38Z</time>
      </trkpt>
      <trkpt lat="63.3662731717" lon="10.3302393789">
        <ele>193.8</ele>
        <time>2012-02-02T12:59:44Z</time>
      </trkpt>
      <trkpt lat="63.3662231317" lon="10.3299622732">
        <ele>193.2</ele>
        <time>2012-02-02T12:59:49Z</time>
      </trkpt>
      <trkpt lat="63.3661674759" lon="10.3297233891">
        <ele>192.2</ele>
        <time>2012-02-02T12:59:54Z</time>
      </trkpt>
      <trkpt lat="63.3660678989" lon="10.3294641369">
        <ele>191.4</ele>
        <time>2012-02-02T13:00:00Z</time>
      </trkpt>
      <trkpt lat="63.366018781" lon="10.329249225">
        <ele>191</ele>
        <time>2012-02-02T13:00:04Z</time>
      </trkpt>
      <trkpt lat="63.3660015143" lon="10.329003803">
        <ele>190.8</ele>
        <time>2012-02-02T13:00:10Z</time>
      </trkpt>
      <trkpt lat="63.3660279173" lon="10.3288170542">
        <ele>190.6</ele>
        <time>2012-02-02T13:00:14Z</time>
      </trkpt>
      <trkpt lat="63.3660466089" lon="10.3287440479">
        <ele>190.6</ele>
        <time>2012-02-02T13:00:15Z</time>
      </trkpt>
      <trkpt lat="63.3661908614" lon="10.328599963">
        <ele>191.6</ele>
        <time>2012-02-02T13:00:24Z</time>
      </trkpt>
      <trkpt lat="63.3662704056" lon="10.3286020585">
        <ele>192</ele>
        <time>2012-02-02T13:00:30Z</time>
      </trkpt>
      <trkpt lat="63.3663380476" lon="10.3286309761">
        <ele>193.2</ele>
        <time>2012-02-02T13:00:37Z</time>
      </trkpt>
      <trkpt lat="63.3663533026" lon="10.3286377654">
        <ele>193.4</ele>
        <time>2012-02-02T13:00:39Z</time>
      </trkpt>
      <trkpt lat="63.3664073659" lon="10.3286770765">
        <ele>195</ele>
        <time>2012-02-02T13:00:45Z</time>
      </trkpt>
      <trkpt lat="63.3664482696" lon="10.3286981989">
        <ele>196.4</ele>
        <time>2012-02-02T13:00:50Z</time>
      </trkpt>
      <trkpt lat="63.3664557295" lon="10.3287132025">
        <ele>196.6</ele>
        <time>2012-02-02T13:00:52Z</time>
      </trkpt>
      <trkpt lat="63.3664935318" lon="10.3287075866">
        <ele>197.8</ele>
        <time>2012-02-02T13:00:55Z</time>
      </trkpt>
      <trkpt lat="63.366507781" lon="10.3287344925">
        <ele>198.4</ele>
        <time>2012-02-02T13:00:58Z</time>
      </trkpt>
      <trkpt lat="63.3665268918" lon="10.3287524298">
        <ele>199.4</ele>
        <time>2012-02-02T13:01:00Z</time>
      </trkpt>
      <trkpt lat="63.3665525404" lon="10.3287360013">
        <ele>200.6</ele>
        <time>2012-02-02T13:01:04Z</time>
      </trkpt>
      <trkpt lat="63.3665973836" lon="10.328756034">
        <ele>202.4</ele>
        <time>2012-02-02T13:01:10Z</time>
      </trkpt>
      <trkpt lat="63.3666463339" lon="10.3287767373">
        <ele>204.2</ele>
        <time>2012-02-02T13:01:17Z</time>
      </trkpt>
      <trkpt lat="63.3666778498" lon="10.3287932497">
        <ele>205.6</ele>
        <time>2012-02-02T13:01:22Z</time>
      </trkpt>
      <trkpt lat="63.3667335056" lon="10.3288178924">
        <ele>207.4</ele>
        <time>2012-02-02T13:01:28Z</time>
      </trkpt>
      <trkpt lat="63.3667786002" lon="10.3288313873">
        <ele>208.4</ele>
        <time>2012-02-02T13:01:33Z</time>
      </trkpt>
      <trkpt lat="63.3668335855" lon="10.3288480673">
        <ele>210</ele>
        <time>2012-02-02T13:01:39Z</time>
      </trkpt>
      <trkpt lat="63.366889409" lon="10.3288623165">
        <ele>211.4</ele>
        <time>2012-02-02T13:01:45Z</time>
      </trkpt>
      <trkpt lat="63.3669288039" lon="10.3288886357">
        <ele>212.4</ele>
        <time>2012-02-02T13:01:50Z</time>
      </trkpt>
      <trkpt lat="63.3670423786" lon="10.3289211574">
        <ele>213.8</ele>
        <time>2012-02-02T13:01:57Z</time>
      </trkpt>
      <trkpt lat="63.3671560372" lon="10.3289929065">
        <ele>214.8</ele>
        <time>2012-02-02T13:02:04Z</time>
      </trkpt>
      <trkpt lat="63.3672873816" lon="10.3291338062">
        <ele>215.2</ele>
        <time>2012-02-02T13:02:08Z</time>
      </trkpt>
      <trkpt lat="63.3673582086" lon="10.3292141048">
        <ele>215.4</ele>
        <time>2012-02-02T13:02:10Z</time>
      </trkpt>
      <trkpt lat="63.3674463862" lon="10.3290646556">
        <ele>215.4</ele>
        <time>2012-02-02T13:02:13Z</time>
      </trkpt>
      <trkpt lat="63.3674417762" lon="10.3287577104">
        <ele>215.6</ele>
        <time>2012-02-02T13:02:15Z</time>
      </trkpt>
      <trkpt lat="63.3674486493" lon="10.3285668545">
        <ele>215.6</ele>
        <time>2012-02-02T13:02:17Z</time>
      </trkpt>
      <trkpt lat="63.3674831828" lon="10.3280909302">
        <ele>215.6</ele>
        <time>2012-02-02T13:02:20Z</time>
      </trkpt>
      <trkpt lat="63.3674954203" lon="10.3280000705">
        <ele>215.4</ele>
        <time>2012-02-02T13:02:22Z</time>
      </trkpt>
      <trkpt lat="63.367500198" lon="10.3277924508">
        <ele>215</ele>
        <time>2012-02-02T13:02:25Z</time>
      </trkpt>
      <trkpt lat="63.3675024611" lon="10.327683067">
        <ele>214.8</ele>
        <time>2012-02-02T13:02:27Z</time>
      </trkpt>
      <trkpt lat="63.3675192249" lon="10.3273275068">
        <ele>214.2</ele>
        <time>2012-02-02T13:02:34Z</time>
      </trkpt>
      <trkpt lat="63.3675437839" lon="10.3269877884">
        <ele>214</ele>
        <time>2012-02-02T13:02:40Z</time>
      </trkpt>
      <trkpt lat="63.3675558538" lon="10.3267710325">
        <ele>213.8</ele>
        <time>2012-02-02T13:02:45Z</time>
      </trkpt>
      <trkpt lat="63.3675615535" lon="10.3265970242">
        <ele>213.8</ele>
        <time>2012-02-02T13:02:49Z</time>
      </trkpt>
      <trkpt lat="63.367553926" lon="10.3263775023">
        <ele>213.8</ele>
        <time>2012-02-02T13:02:55Z</time>
      </trkpt>
      <trkpt lat="63.3675322169" lon="10.3262067629">
        <ele>213.8</ele>
        <time>2012-02-02T13:03:00Z</time>
      </trkpt>
      <trkpt lat="63.3674667542" lon="10.3261148973">
        <ele>214.2</ele>
        <time>2012-02-02T13:03:06Z</time>
      </trkpt>
      <trkpt lat="63.3674034709" lon="10.3261472515">
        <ele>215</ele>
        <time>2012-02-02T13:03:13Z</time>
      </trkpt>
      <trkpt lat="63.3673935802" lon="10.3261697149">
        <ele>215</ele>
        <time>2012-02-02T13:03:14Z</time>
      </trkpt>
      <trkpt lat="63.3673815103" lon="10.326197459">
        <ele>215.2</ele>
        <time>2012-02-02T13:03:15Z</time>
      </trkpt>
      <trkpt lat="63.3673661714" lon="10.3262273824">
        <ele>215.4</ele>
        <time>2012-02-02T13:03:17Z</time>
      </trkpt>
      <trkpt lat="63.3673339011" lon="10.3262876483">
        <ele>216.2</ele>
        <time>2012-02-02T13:03:22Z</time>
      </trkpt>
      <trkpt lat="63.367297356" lon="10.3264000496">
        <ele>217.2</ele>
        <time>2012-02-02T13:03:29Z</time>
      </trkpt>
      <trkpt lat="63.3672696958" lon="10.3264824436">
        <ele>217.6</ele>
        <time>2012-02-02T13:03:34Z</time>
      </trkpt>
      <trkpt lat="63.367208005" lon="10.3266250198">
        <ele>219</ele>
        <time>2012-02-02T13:03:42Z</time>
      </trkpt>
      <trkpt lat="63.3671444702" lon="10.3267460544">
        <ele>219.4</ele>
        <time>2012-02-02T13:03:46Z</time>
      </trkpt>
      <trkpt lat="63.367063501" lon="10.3267737147">
        <ele>220.6</ele>
        <time>2012-02-02T13:03:52Z</time>
      </trkpt>
      <trkpt lat="63.3670010559" lon="10.3267270275">
        <ele>221.2</ele>
        <time>2012-02-02T13:03:57Z</time>
      </trkpt>
      <trkpt lat="63.3669144708" lon="10.3266722937">
        <ele>222.2</ele>
        <time>2012-02-02T13:04:04Z</time>
      </trkpt>
      <trkpt lat="63.3668419674" lon="10.3266213317">
        <ele>223</ele>
        <time>2012-02-02T13:04:10Z</time>
      </trkpt>
      <trkpt lat="63.3667900834" lon="10.3265876365">
        <ele>223.4</ele>
        <time>2012-02-02T13:04:13Z</time>
      </trkpt>
      <trkpt lat="63.3666644388" lon="10.326491999">
        <ele>223.8</ele>
        <time>2012-02-02T13:04:19Z</time>
      </trkpt>
      <trkpt lat="63.3665693042" lon="10.3263904104">
        <ele>224</ele>
        <time>2012-02-02T13:04:24Z</time>
      </trkpt>
      <trkpt lat="63.3664620997" lon="10.3261984649">
        <ele>225</ele>
        <time>2012-02-02T13:04:30Z</time>
      </trkpt>
      <trkpt lat="63.3663546437" lon="10.3259322557">
        <ele>225.6</ele>
        <time>2012-02-02T13:04:34Z</time>
      </trkpt>
      <trkpt lat="63.3662761892" lon="10.325652887">
        <ele>225.8</ele>
        <time>2012-02-02T13:04:37Z</time>
      </trkpt>
      <trkpt lat="63.3662209524" lon="10.3253752785">
        <ele>225.6</ele>
        <time>2012-02-02T13:04:40Z</time>
      </trkpt>
      <trkpt lat="63.3661112334" lon="10.325112925">
        <ele>225.2</ele>
        <time>2012-02-02T13:04:44Z</time>
      </trkpt>
      <trkpt lat="63.3660176075" lon="10.3249563511">
        <ele>224.8</ele>
        <time>2012-02-02T13:04:46Z</time>
      </trkpt>
      <trkpt lat="63.3659853372" lon="10.3244960172">
        <ele>223.8</ele>
        <time>2012-02-02T13:04:50Z</time>
      </trkpt>
      <trkpt lat="63.3660606905" lon="10.3243436342">
        <ele>223.6</ele>
        <time>2012-02-02T13:04:52Z</time>
      </trkpt>
      <trkpt lat="63.3661248959" lon="10.3242544508">
        <ele>223.4</ele>
        <time>2012-02-02T13:04:55Z</time>
      </trkpt>
      <trkpt lat="63.3662228803" lon="10.3241505152">
        <ele>222.8</ele>
        <time>2012-02-02T13:05:00Z</time>
      </trkpt>
      <trkpt lat="63.3663699826" lon="10.3240054246">
        <ele>222.6</ele>
        <time>2012-02-02T13:05:07Z</time>
      </trkpt>
      <trkpt lat="63.366551786" lon="10.3237254691">
        <ele>221.8</ele>
        <time>2012-02-02T13:05:12Z</time>
      </trkpt>
      <trkpt lat="63.3665885826" lon="10.3235219566">
        <ele>221.4</ele>
        <time>2012-02-02T13:05:13Z</time>
      </trkpt>
      <trkpt lat="63.3665956234" lon="10.3233292567">
        <ele>221.4</ele>
        <time>2012-02-02T13:05:14Z</time>
      </trkpt>
      <trkpt lat="63.3665614252" lon="10.3228462916">
        <ele>221.2</ele>
        <time>2012-02-02T13:05:17Z</time>
      </trkpt>
      <trkpt lat="63.3665346031" lon="10.3226474729">
        <ele>221</ele>
        <time>2012-02-02T13:05:19Z</time>
      </trkpt>
      <trkpt lat="63.3664928613" lon="10.3224479837">
        <ele>220.8</ele>
        <time>2012-02-02T13:05:20Z</time>
      </trkpt>
      <trkpt lat="63.3663843995" lon="10.3221817746">
        <ele>220</ele>
        <time>2012-02-02T13:05:24Z</time>
      </trkpt>
      <trkpt lat="63.3663214514" lon="10.3220462392">
        <ele>219.2</ele>
        <time>2012-02-02T13:05:30Z</time>
      </trkpt>
      <trkpt lat="63.3662901031" lon="10.3219843808">
        <ele>218.8</ele>
        <time>2012-02-02T13:05:34Z</time>
      </trkpt>
      <trkpt lat="63.3662776141" lon="10.3219563015">
        <ele>218.8</ele>
        <time>2012-02-02T13:05:37Z</time>
      </trkpt>
      <trkpt lat="63.3662737584" lon="10.3219312396">
        <ele>218.8</ele>
        <time>2012-02-02T13:05:39Z</time>
      </trkpt>
      <trkpt lat="63.366247104" lon="10.3218350154">
        <ele>219.4</ele>
        <time>2012-02-02T13:05:44Z</time>
      </trkpt>
      <trkpt lat="63.3662108103" lon="10.3217729055">
        <ele>220.4</ele>
        <time>2012-02-02T13:05:49Z</time>
      </trkpt>
      <trkpt lat="63.366186419" lon="10.3217226141">
        <ele>221</ele>
        <time>2012-02-02T13:05:52Z</time>
      </trkpt>
      <trkpt lat="63.3661305955" lon="10.3216502783">
        <ele>222.4</ele>
        <time>2012-02-02T13:05:57Z</time>
      </trkpt>
      <trkpt lat="63.3661130774" lon="10.3216117215">
        <ele>222.8</ele>
        <time>2012-02-02T13:05:58Z</time>
      </trkpt>
      <trkpt lat="63.3661031867" lon="10.3213893497">
        <ele>224.4</ele>
        <time>2012-02-02T13:06:04Z</time>
      </trkpt>
      <trkpt lat="63.3661078806" lon="10.3213581691">
        <ele>224.6</ele>
        <time>2012-02-02T13:06:05Z</time>
      </trkpt>
      <trkpt lat="63.3661150052" lon="10.3213254797">
        <ele>225.2</ele>
        <time>2012-02-02T13:06:08Z</time>
      </trkpt>
      <trkpt lat="63.3661316014" lon="10.3212758588">
        <ele>226.2</ele>
        <time>2012-02-02T13:06:12Z</time>
      </trkpt>
      <trkpt lat="63.3661397318" lon="10.321029431">
        <ele>229.4</ele>
        <time>2012-02-02T13:06:24Z</time>
      </trkpt>
      <trkpt lat="63.3661231357" lon="10.3209503058">
        <ele>230</ele>
        <time>2012-02-02T13:06:26Z</time>
      </trkpt>
      <trkpt lat="63.3661056175" lon="10.3206242499">
        <ele>231.8</ele>
        <time>2012-02-02T13:06:34Z</time>
      </trkpt>
      <trkpt lat="63.3661167654" lon="10.3205348989">
        <ele>232.2</ele>
        <time>2012-02-02T13:06:35Z</time>
      </trkpt>
      <trkpt lat="63.3661143347" lon="10.320457031">
        <ele>232.4</ele>
        <time>2012-02-02T13:06:39Z</time>
      </trkpt>
      <trkpt lat="63.3661424978" lon="10.320320406">
        <ele>233.6</ele>
        <time>2012-02-02T13:06:44Z</time>
      </trkpt>
      <trkpt lat="63.3661541487" lon="10.3202962662">
        <ele>234.2</ele>
        <time>2012-02-02T13:06:46Z</time>
      </trkpt>
      <trkpt lat="63.3662037695" lon="10.3202344916">
        <ele>234.8</ele>
        <time>2012-02-02T13:06:52Z</time>
      </trkpt>
      <trkpt lat="63.3662488642" lon="10.3201966892">
        <ele>235.8</ele>
        <time>2012-02-02T13:06:58Z</time>
      </trkpt>
      <trkpt lat="63.3662590063" lon="10.3201956834">
        <ele>236</ele>
        <time>2012-02-02T13:07:00Z</time>
      </trkpt>
      <trkpt lat="63.3663077889" lon="10.3201492476">
        <ele>236.6</ele>
        <time>2012-02-02T13:07:04Z</time>
      </trkpt>
      <trkpt lat="63.3663111417" lon="10.3201417877">
        <ele>236.8</ele>
        <time>2012-02-02T13:07:05Z</time>
      </trkpt>
      <trkpt lat="63.3663521292" lon="10.3201003812">
        <ele>237</ele>
        <time>2012-02-02T13:07:10Z</time>
      </trkpt>
      <trkpt lat="63.3663976429" lon="10.3200062524">
        <ele>237.2</ele>
        <time>2012-02-02T13:07:15Z</time>
      </trkpt>
      <trkpt lat="63.3664322601" lon="10.3196459145">
        <ele>238.8</ele>
        <time>2012-02-02T13:07:31Z</time>
      </trkpt>
      <trkpt lat="63.3664208607" lon="10.3194940345">
        <ele>240.4</ele>
        <time>2012-02-02T13:07:38Z</time>
      </trkpt>
      <trkpt lat="63.3664056895" lon="10.3193747601">
        <ele>242</ele>
        <time>2012-02-02T13:07:45Z</time>
      </trkpt>
      <trkpt lat="63.3663996545" lon="10.3193323477">
        <ele>242.8</ele>
        <time>2012-02-02T13:07:46Z</time>
      </trkpt>
      <trkpt lat="63.3663773587" lon="10.3191495384">
        <ele>245</ele>
        <time>2012-02-02T13:07:55Z</time>
      </trkpt>
      <trkpt lat="63.3663668813" lon="10.3190150927">
        <ele>246.6</ele>
        <time>2012-02-02T13:08:00Z</time>
      </trkpt>
      <trkpt lat="63.3663455075" lon="10.318925155">
        <ele>247.8</ele>
        <time>2012-02-02T13:08:05Z</time>
      </trkpt>
      <trkpt lat="63.3663410651" lon="10.3188742768">
        <ele>248.2</ele>
        <time>2012-02-02T13:08:08Z</time>
      </trkpt>
      <trkpt lat="63.3663330184" lon="10.3186990113">
        <ele>249.4</ele>
        <time>2012-02-02T13:08:14Z</time>
      </trkpt>
      <trkpt lat="63.3663772749" lon="10.3184395077">
        <ele>250.8</ele>
        <time>2012-02-02T13:08:20Z</time>
      </trkpt>
      <trkpt lat="63.3665494391" lon="10.3180643338">
        <ele>252.4</ele>
        <time>2012-02-02T13:08:34Z</time>
      </trkpt>
      <trkpt lat="63.3665643589" lon="10.3180324826">
        <ele>252.4</ele>
        <time>2012-02-02T13:08:35Z</time>
      </trkpt>
      <trkpt lat="63.3667091981" lon="10.3178512659">
        <ele>252.6</ele>
        <time>2012-02-02T13:08:44Z</time>
      </trkpt>
      <trkpt lat="63.3667821206" lon="10.3176971228">
        <ele>253.6</ele>
        <time>2012-02-02T13:08:50Z</time>
      </trkpt>
      <trkpt lat="63.3668251198" lon="10.3175347654">
        <ele>254</ele>
        <time>2012-02-02T13:08:54Z</time>
      </trkpt>
      <trkpt lat="63.3668827873" lon="10.3172732501">
        <ele>254.4</ele>
        <time>2012-02-02T13:09:00Z</time>
      </trkpt>
      <trkpt lat="63.3669261217" lon="10.3169897743">
        <ele>255.2</ele>
        <time>2012-02-02T13:09:04Z</time>
      </trkpt>
      <trkpt lat="63.3670138802" lon="10.31653975">
        <ele>255.8</ele>
        <time>2012-02-02T13:09:09Z</time>
      </trkpt>
      <trkpt lat="63.3671275387" lon="10.3162656619">
        <ele>256</ele>
        <time>2012-02-02T13:09:12Z</time>
      </trkpt>
      <trkpt lat="63.3671681071" lon="10.3161966789">
        <ele>256.2</ele>
        <time>2012-02-02T13:09:13Z</time>
      </trkpt>
      <trkpt lat="63.3672565362" lon="10.3160634905">
        <ele>256.2</ele>
        <time>2012-02-02T13:09:15Z</time>
      </trkpt>
      <trkpt lat="63.3674058178" lon="10.3160196531">
        <ele>256</ele>
        <time>2012-02-02T13:09:18Z</time>
      </trkpt>
      <trkpt lat="63.3674966776" lon="10.3161204874">
        <ele>255.8</ele>
        <time>2012-02-02T13:09:22Z</time>
      </trkpt>
      <trkpt lat="63.3676219032" lon="10.3163800748">
        <ele>255.2</ele>
        <time>2012-02-02T13:09:28Z</time>
      </trkpt>
      <trkpt lat="63.3676721946" lon="10.3165922207">
        <ele>255</ele>
        <time>2012-02-02T13:09:33Z</time>
      </trkpt>
      <trkpt lat="63.3676806603" lon="10.3168611121">
        <ele>255</ele>
        <time>2012-02-02T13:09:37Z</time>
      </trkpt>
      <trkpt lat="63.3676307042" lon="10.3171450909">
        <ele>254.8</ele>
        <time>2012-02-02T13:09:43Z</time>
      </trkpt>
      <trkpt lat="63.3675574464" lon="10.3173698934">
        <ele>254.8</ele>
        <time>2012-02-02T13:09:46Z</time>
      </trkpt>
      <trkpt lat="63.3674490684" lon="10.3175092006">
        <ele>254.8</ele>
        <time>2012-02-02T13:09:52Z</time>
      </trkpt>
      <trkpt lat="63.3673229208" lon="10.3175097873">
        <ele>254.8</ele>
        <time>2012-02-02T13:09:58Z</time>
      </trkpt>
      <trkpt lat="63.3672033111" lon="10.3175114637">
        <ele>254.8</ele>
        <time>2012-02-02T13:10:02Z</time>
      </trkpt>
      <trkpt lat="63.3670891496" lon="10.3176351806">
        <ele>254.8</ele>
        <time>2012-02-02T13:10:05Z</time>
      </trkpt>
      <trkpt lat="63.3670226812" lon="10.3178212587">
        <ele>254.8</ele>
        <time>2012-02-02T13:10:09Z</time>
      </trkpt>
      <trkpt lat="63.3671104397" lon="10.3180914074">
        <ele>254.8</ele>
        <time>2012-02-02T13:10:13Z</time>
      </trkpt>
      <trkpt lat="63.3672130341" lon="10.3180821873">
        <ele>254.8</ele>
        <time>2012-02-02T13:10:15Z</time>
      </trkpt>
      <trkpt lat="63.3673110185" lon="10.3179739769">
        <ele>254.8</ele>
        <time>2012-02-02T13:10:18Z</time>
      </trkpt>
      <trkpt lat="63.3674736274" lon="10.3176941891">
        <ele>254.8</ele>
        <time>2012-02-02T13:10:24Z</time>
      </trkpt>
      <trkpt lat="63.3677033753" lon="10.3170273252">
        <ele>254.8</ele>
        <time>2012-02-02T13:10:33Z</time>
      </trkpt>
      <trkpt lat="63.3677185465" lon="10.3168569211">
        <ele>254.8</ele>
        <time>2012-02-02T13:10:34Z</time>
      </trkpt>
      <trkpt lat="63.3677459553" lon="10.3165572682">
        <ele>254.8</ele>
        <time>2012-02-02T13:10:38Z</time>
      </trkpt>
      <trkpt lat="63.3677504815" lon="10.3163264307">
        <ele>254.2</ele>
        <time>2012-02-02T13:10:40Z</time>
      </trkpt>
      <trkpt lat="63.3677910499" lon="10.3159233451">
        <ele>253.6</ele>
        <time>2012-02-02T13:10:43Z</time>
      </trkpt>
      <trkpt lat="63.3678431015" lon="10.3156513525">
        <ele>252.6</ele>
        <time>2012-02-02T13:10:45Z</time>
      </trkpt>
      <trkpt lat="63.3679075583" lon="10.3152616779">
        <ele>250.8</ele>
        <time>2012-02-02T13:10:50Z</time>
      </trkpt>
      <trkpt lat="63.3679608672" lon="10.3149890985">
        <ele>249.6</ele>
        <time>2012-02-02T13:10:55Z</time>
      </trkpt>
      <trkpt lat="63.368000346" lon="10.3148349554">
        <ele>248</ele>
        <time>2012-02-02T13:11:00Z</time>
      </trkpt>
      <trkpt lat="63.3680053751" lon="10.3148008411">
        <ele>247.8</ele>
        <time>2012-02-02T13:11:02Z</time>
      </trkpt>
      <trkpt lat="63.3680671497" lon="10.3147161839">
        <ele>247.2</ele>
        <time>2012-02-02T13:11:05Z</time>
      </trkpt>
      <trkpt lat="63.3681817303" lon="10.3147069638">
        <ele>247.6</ele>
        <time>2012-02-02T13:11:10Z</time>
      </trkpt>
      <trkpt lat="63.3682117375" lon="10.3146937204">
        <ele>247.8</ele>
        <time>2012-02-02T13:11:12Z</time>
      </trkpt>
      <trkpt lat="63.3685174254" lon="10.3145536588">
        <ele>248.2</ele>
        <time>2012-02-02T13:11:22Z</time>
      </trkpt>
      <trkpt lat="63.3686373704" lon="10.3145244898">
        <ele>248.2</ele>
        <time>2012-02-02T13:11:26Z</time>
      </trkpt>
      <trkpt lat="63.3688247058" lon="10.3145405831">
        <ele>248.2</ele>
        <time>2012-02-02T13:11:32Z</time>
      </trkpt>
      <trkpt lat="63.3689954452" lon="10.3145974962">
        <ele>248.4</ele>
        <time>2012-02-02T13:11:35Z</time>
      </trkpt>
      <trkpt lat="63.3691778353" lon="10.3146582649">
        <ele>248.4</ele>
        <time>2012-02-02T13:11:39Z</time>
      </trkpt>
      <trkpt lat="63.3692367601" lon="10.314666563">
        <ele>248.4</ele>
        <time>2012-02-02T13:11:40Z</time>
      </trkpt>
      <trkpt lat="63.3694561144" lon="10.3147319418">
        <ele>247.6</ele>
        <time>2012-02-02T13:11:43Z</time>
      </trkpt>
      <trkpt lat="63.3695313838" lon="10.3147269127">
        <ele>247.4</ele>
        <time>2012-02-02T13:11:44Z</time>
      </trkpt>
      <trkpt lat="63.3696087488" lon="10.3147197043">
        <ele>247.4</ele>
        <time>2012-02-02T13:11:45Z</time>
      </trkpt>
      <trkpt lat="63.3698705993" lon="10.3149156731">
        <ele>246</ele>
        <time>2012-02-02T13:11:49Z</time>
      </trkpt>
      <trkpt lat="63.3699244949" lon="10.3149915293">
        <ele>245.8</ele>
        <time>2012-02-02T13:11:50Z</time>
      </trkpt>
      <trkpt lat="63.3700742795" lon="10.3151973888">
        <ele>245.2</ele>
        <time>2012-02-02T13:11:52Z</time>
      </trkpt>
      <trkpt lat="63.3702303505" lon="10.3152808725">
        <ele>244.8</ele>
        <time>2012-02-02T13:11:55Z</time>
      </trkpt>
      <trkpt lat="63.3703657182" lon="10.3152888353">
        <ele>244.6</ele>
        <time>2012-02-02T13:11:58Z</time>
      </trkpt>
      <trkpt lat="63.370604267" lon="10.3154021586">
        <ele>244.2</ele>
        <time>2012-02-02T13:12:04Z</time>
      </trkpt>
      <trkpt lat="63.3707310014" lon="10.3157039908">
        <ele>244</ele>
        <time>2012-02-02T13:12:09Z</time>
      </trkpt>
      <trkpt lat="63.3707993138" lon="10.3159276199">
        <ele>244</ele>
        <time>2012-02-02T13:12:10Z</time>
      </trkpt>
      <trkpt lat="63.3711815285" lon="10.3164845133">
        <ele>243.8</ele>
        <time>2012-02-02T13:12:18Z</time>
      </trkpt>
      <trkpt lat="63.371243806" lon="10.3164301148">
        <ele>243.8</ele>
        <time>2012-02-02T13:12:20Z</time>
      </trkpt>
      <trkpt lat="63.3712734779" lon="10.3163727826">
        <ele>243.8</ele>
        <time>2012-02-02T13:12:22Z</time>
      </trkpt>
      <trkpt lat="63.3712974502" lon="10.316313774">
        <ele>243.8</ele>
        <time>2012-02-02T13:12:23Z</time>
      </trkpt>
      <trkpt lat="63.3713438859" lon="10.3161078307">
        <ele>243.8</ele>
        <time>2012-02-02T13:12:29Z</time>
      </trkpt>
      <trkpt lat="63.371332738" lon="10.3159176454">
        <ele>244.4</ele>
        <time>2012-02-02T13:12:33Z</time>
      </trkpt>
      <trkpt lat="63.3712775851" lon="10.3156637577">
        <ele>245.6</ele>
        <time>2012-02-02T13:12:40Z</time>
      </trkpt>
      <trkpt lat="63.371166022" lon="10.3154590717">
        <ele>246.6</ele>
        <time>2012-02-02T13:12:45Z</time>
      </trkpt>
      <trkpt lat="63.3709866493" lon="10.315220439">
        <ele>247.2</ele>
        <time>2012-02-02T13:12:50Z</time>
      </trkpt>
      <trkpt lat="63.3708226994" lon="10.3151304174">
        <ele>247.4</ele>
        <time>2012-02-02T13:12:55Z</time>
      </trkpt>
      <trkpt lat="63.3706859906" lon="10.3151319261">
        <ele>247.6</ele>
        <time>2012-02-02T13:12:58Z</time>
      </trkpt>
      <trkpt lat="63.3705328532" lon="10.3149793755">
        <ele>247.8</ele>
        <time>2012-02-02T13:13:03Z</time>
      </trkpt>
      <trkpt lat="63.3704471902" lon="10.3147253201">
        <ele>247.8</ele>
        <time>2012-02-02T13:13:07Z</time>
      </trkpt>
      <trkpt lat="63.3703161811" lon="10.3144319536">
        <ele>247.8</ele>
        <time>2012-02-02T13:13:12Z</time>
      </trkpt>
      <trkpt lat="63.3701558354" lon="10.3143906309">
        <ele>248</ele>
        <time>2012-02-02T13:13:16Z</time>
      </trkpt>
      <trkpt lat="63.3701254929" lon="10.3143977555">
        <ele>248</ele>
        <time>2012-02-02T13:13:17Z</time>
      </trkpt>
      <trkpt lat="63.3699296917" lon="10.314571177">
        <ele>247.4</ele>
        <time>2012-02-02T13:13:24Z</time>
      </trkpt>
      <trkpt lat="63.3697770573" lon="10.3147158486">
        <ele>246.8</ele>
        <time>2012-02-02T13:13:29Z</time>
      </trkpt>
      <trkpt lat="63.369615119" lon="10.3147911181">
        <ele>246.4</ele>
        <time>2012-02-02T13:13:34Z</time>
      </trkpt>
      <trkpt lat="63.3694682681" lon="10.3148108155">
        <ele>246.2</ele>
        <time>2012-02-02T13:13:39Z</time>
      </trkpt>
      <trkpt lat="63.3693474011" lon="10.314793465">
        <ele>246.2</ele>
        <time>2012-02-02T13:13:44Z</time>
      </trkpt>
      <trkpt lat="63.3692490814" lon="10.3147598536">
        <ele>246</ele>
        <time>2012-02-02T13:13:49Z</time>
      </trkpt>
      <trkpt lat="63.3691754884" lon="10.3147154295">
        <ele>246</ele>
        <time>2012-02-02T13:13:52Z</time>
      </trkpt>
      <trkpt lat="63.3690786774" lon="10.3145613702">
        <ele>246.8</ele>
        <time>2012-02-02T13:13:58Z</time>
      </trkpt>
      <trkpt lat="63.3690423" lon="10.314348889">
        <ele>247.2</ele>
        <time>2012-02-02T13:14:02Z</time>
      </trkpt>
      <trkpt lat="63.3690412103" lon="10.314066419">
        <ele>247.8</ele>
        <time>2012-02-02T13:14:06Z</time>
      </trkpt>
      <trkpt lat="63.3691152225" lon="10.3137109426">
        <ele>248.8</ele>
        <time>2012-02-02T13:14:10Z</time>
      </trkpt>
      <trkpt lat="63.3693332357" lon="10.3130242974">
        <ele>249.4</ele>
        <time>2012-02-02T13:14:18Z</time>
      </trkpt>
      <trkpt lat="63.3696145323" lon="10.3127432523">
        <ele>249.6</ele>
        <time>2012-02-02T13:14:22Z</time>
      </trkpt>
      <trkpt lat="63.3698592838" lon="10.3127921187">
        <ele>249.8</ele>
        <time>2012-02-02T13:14:24Z</time>
      </trkpt>
      <trkpt lat="63.3701042867" lon="10.3129456751">
        <ele>249.8</ele>
        <time>2012-02-02T13:14:28Z</time>
      </trkpt>
      <trkpt lat="63.3702922927" lon="10.3131196834">
        <ele>250</ele>
        <time>2012-02-02T13:14:31Z</time>
      </trkpt>
      <trkpt lat="63.3703585097" lon="10.3131679631">
        <ele>250</ele>
        <time>2012-02-02T13:14:32Z</time>
      </trkpt>
      <trkpt lat="63.3705571608" lon="10.3131164144">
        <ele>250</ele>
        <time>2012-02-02T13:14:35Z</time>
      </trkpt>
      <trkpt lat="63.3707241282" lon="10.3128766921">
        <ele>250</ele>
        <time>2012-02-02T13:14:38Z</time>
      </trkpt>
      <trkpt lat="63.3707999844" lon="10.3123393285">
        <ele>250</ele>
        <time>2012-02-02T13:14:42Z</time>
      </trkpt>
      <trkpt lat="63.3707382098" lon="10.3119810023">
        <ele>250</ele>
        <time>2012-02-02T13:14:45Z</time>
      </trkpt>
      <trkpt lat="63.3706103858" lon="10.3116711234">
        <ele>249.4</ele>
        <time>2012-02-02T13:14:48Z</time>
      </trkpt>
      <trkpt lat="63.3705524669" lon="10.3115633322">
        <ele>249.4</ele>
        <time>2012-02-02T13:14:49Z</time>
      </trkpt>
      <trkpt lat="63.3704081306" lon="10.311315228">
        <ele>248.6</ele>
        <time>2012-02-02T13:14:51Z</time>
      </trkpt>
      <trkpt lat="63.3701019398" lon="10.3111590732">
        <ele>247.8</ele>
        <time>2012-02-02T13:14:55Z</time>
      </trkpt>
      <trkpt lat="63.3700340464" lon="10.3111965402">
        <ele>247.6</ele>
        <time>2012-02-02T13:14:56Z</time>
      </trkpt>
      <trkpt lat="63.3698968347" lon="10.3112650204">
        <ele>246.8</ele>
        <time>2012-02-02T13:14:58Z</time>
      </trkpt>
      <trkpt lat="63.3696022947" lon="10.3111253779">
        <ele>245.6</ele>
        <time>2012-02-02T13:15:02Z</time>
      </trkpt>
      <trkpt lat="63.3695346528" lon="10.3110620108">
        <ele>245.4</ele>
        <time>2012-02-02T13:15:03Z</time>
      </trkpt>
      <trkpt lat="63.3694667594" lon="10.3110131443">
        <ele>245.2</ele>
        <time>2012-02-02T13:15:04Z</time>
      </trkpt>
      <trkpt lat="63.3692047412" lon="10.3109600868">
        <ele>243.6</ele>
        <time>2012-02-02T13:15:09Z</time>
      </trkpt>
      <trkpt lat="63.3690661046" lon="10.3109460053">
        <ele>242.2</ele>
        <time>2012-02-02T13:15:13Z</time>
      </trkpt>
      <trkpt lat="63.3688761707" lon="10.3109112204">
        <ele>240.6</ele>
        <time>2012-02-02T13:15:21Z</time>
      </trkpt>
      <trkpt lat="63.3687977161" lon="10.3109386292">
        <ele>240</ele>
        <time>2012-02-02T13:15:25Z</time>
      </trkpt>
      <trkpt lat="63.3687513642" lon="10.3109570694">
        <ele>239.8</ele>
        <time>2012-02-02T13:15:29Z</time>
      </trkpt>
      <trkpt lat="63.3687101253" lon="10.311011887">
        <ele>239.6</ele>
        <time>2012-02-02T13:15:34Z</time>
      </trkpt>
      <trkpt lat="63.3687023301" lon="10.3110223644">
        <ele>239.6</ele>
        <time>2012-02-02T13:15:35Z</time>
      </trkpt>
      <trkpt lat="63.3686196846" lon="10.3109931954">
        <ele>239.8</ele>
        <time>2012-02-02T13:15:40Z</time>
      </trkpt>
      <trkpt lat="63.3685716563" lon="10.3109242123">
        <ele>240</ele>
        <time>2012-02-02T13:15:42Z</time>
      </trkpt>
      <trkpt lat="63.3686139849" lon="10.3106549857">
        <ele>240.4</ele>
        <time>2012-02-02T13:15:46Z</time>
      </trkpt>
      <trkpt lat="63.3687536273" lon="10.3106624456">
        <ele>240.6</ele>
        <time>2012-02-02T13:15:49Z</time>
      </trkpt>
      <trkpt lat="63.3688113786" lon="10.3106713304">
        <ele>240.8</ele>
        <time>2012-02-02T13:15:50Z</time>
      </trkpt>
      <trkpt lat="63.3689475845" lon="10.3106888486">
        <ele>240.8</ele>
        <time>2012-02-02T13:15:52Z</time>
      </trkpt>
      <trkpt lat="63.3692283782" lon="10.3107865815">
        <ele>241</ele>
        <time>2012-02-02T13:15:55Z</time>
      </trkpt>
      <trkpt lat="63.3694432062" lon="10.3108759326">
        <ele>241</ele>
        <time>2012-02-02T13:15:57Z</time>
      </trkpt>
      <trkpt lat="63.369557703" lon="10.3109102984">
        <ele>241</ele>
        <time>2012-02-02T13:15:59Z</time>
      </trkpt>
      <trkpt lat="63.3698545061" lon="10.3107808818">
        <ele>241</ele>
        <time>2012-02-02T13:16:03Z</time>
      </trkpt>
      <trkpt lat="63.3700614552" lon="10.3104932988">
        <ele>241.2</ele>
        <time>2012-02-02T13:16:06Z</time>
      </trkpt>
      <trkpt lat="63.3701314441" lon="10.3103868487">
        <ele>241.2</ele>
        <time>2012-02-02T13:16:07Z</time>
      </trkpt>
      <trkpt lat="63.3702011815" lon="10.3103064663">
        <ele>241.2</ele>
        <time>2012-02-02T13:16:08Z</time>
      </trkpt>
      <trkpt lat="63.3703775366" lon="10.3102180372">
        <ele>241.2</ele>
        <time>2012-02-02T13:16:11Z</time>
      </trkpt>
      <trkpt lat="63.3704336116" lon="10.3102081466">
        <ele>241.2</ele>
        <time>2012-02-02T13:16:12Z</time>
      </trkpt>
      <trkpt lat="63.3705319312" lon="10.310207476">
        <ele>241.2</ele>
        <time>2012-02-02T13:16:14Z</time>
      </trkpt>
      <trkpt lat="63.3706450869" lon="10.310307053">
        <ele>240.6</ele>
        <time>2012-02-02T13:16:17Z</time>
      </trkpt>
      <trkpt lat="63.3707072806" lon="10.3104037801">
        <ele>240.2</ele>
        <time>2012-02-02T13:16:20Z</time>
      </trkpt>
      <trkpt lat="63.3709052611" lon="10.3109253858">
        <ele>239.4</ele>
        <time>2012-02-02T13:16:28Z</time>
      </trkpt>
      <trkpt lat="63.371005341" lon="10.3110988073">
        <ele>239</ele>
        <time>2012-02-02T13:16:30Z</time>
      </trkpt>
      <trkpt lat="63.3712855479" lon="10.311399969">
        <ele>238.2</ele>
        <time>2012-02-02T13:16:34Z</time>
      </trkpt>
      <trkpt lat="63.3715666768" lon="10.3115052456">
        <ele>237.6</ele>
        <time>2012-02-02T13:16:38Z</time>
      </trkpt>
      <trkpt lat="63.3716549382" lon="10.3115090175">
        <ele>237.2</ele>
        <time>2012-02-02T13:16:39Z</time>
      </trkpt>
      <trkpt lat="63.37182266" lon="10.3114703769">
        <ele>236.8</ele>
        <time>2012-02-02T13:16:41Z</time>
      </trkpt>
      <trkpt lat="63.3720238256" lon="10.3113687883">
        <ele>236.4</ele>
        <time>2012-02-02T13:16:43Z</time>
      </trkpt>
      <trkpt lat="63.3723411644" lon="10.3114368493">
        <ele>235.4</ele>
        <time>2012-02-02T13:16:46Z</time>
      </trkpt>
      <trkpt lat="63.3725404859" lon="10.3116039844">
        <ele>234.8</ele>
        <time>2012-02-02T13:16:48Z</time>
      </trkpt>
      <trkpt lat="63.3726257299" lon="10.3117096802">
        <ele>234.4</ele>
        <time>2012-02-02T13:16:49Z</time>
      </trkpt>
      <trkpt lat="63.372838211" lon="10.3119384222">
        <ele>233.2</ele>
        <time>2012-02-02T13:16:52Z</time>
      </trkpt>
      <trkpt lat="63.3731728165" lon="10.3118650806">
        <ele>232</ele>
        <time>2012-02-02T13:16:56Z</time>
      </trkpt>
      <trkpt lat="63.3732831223" lon="10.3115938423">
        <ele>231.6</ele>
        <time>2012-02-02T13:16:57Z</time>
      </trkpt>
      <trkpt lat="63.3733603196" lon="10.3112673673">
        <ele>230.8</ele>
        <time>2012-02-02T13:16:59Z</time>
      </trkpt>
      <trkpt lat="63.3734091861" lon="10.3109731626">
        <ele>229.6</ele>
        <time>2012-02-02T13:17:02Z</time>
      </trkpt>
      <trkpt lat="63.3735128702" lon="10.3104741881">
        <ele>227.6</ele>
        <time>2012-02-02T13:17:06Z</time>
      </trkpt>
      <trkpt lat="63.3735329029" lon="10.3103404968">
        <ele>227</ele>
        <time>2012-02-02T13:17:07Z</time>
      </trkpt>
      <trkpt lat="63.3735022251" lon="10.3100375749">
        <ele>225</ele>
        <time>2012-02-02T13:17:10Z</time>
      </trkpt>
      <trkpt lat="63.3733905782" lon="10.3099391714">
        <ele>223.2</ele>
        <time>2012-02-02T13:17:13Z</time>
      </trkpt>
      <trkpt lat="63.3731816175" lon="10.310104714">
        <ele>220.6</ele>
        <time>2012-02-02T13:17:17Z</time>
      </trkpt>
      <trkpt lat="63.3731601598" lon="10.3101429354">
        <ele>219.8</ele>
        <time>2012-02-02T13:17:18Z</time>
      </trkpt>
      <trkpt lat="63.3730663663" lon="10.3103202964">
        <ele>217.4</ele>
        <time>2012-02-02T13:17:22Z</time>
      </trkpt>
      <trkpt lat="63.3730620916" lon="10.3103321149">
        <ele>216.8</ele>
        <time>2012-02-02T13:17:23Z</time>
      </trkpt>
      <trkpt lat="63.3730042565" lon="10.310377461">
        <ele>214.4</ele>
        <time>2012-02-02T13:17:28Z</time>
      </trkpt>
      <trkpt lat="63.3729878279" lon="10.3103808976">
        <ele>213.8</ele>
        <time>2012-02-02T13:17:30Z</time>
      </trkpt>
      <trkpt lat="63.3729548871" lon="10.3103757008">
        <ele>213.2</ele>
        <time>2012-02-02T13:17:33Z</time>
      </trkpt>
      <trkpt lat="63.3728876642" lon="10.3103557519">
        <ele>212.2</ele>
        <time>2012-02-02T13:17:40Z</time>
      </trkpt>
      <trkpt lat="63.3728149093" lon="10.3103074721">
        <ele>211.6</ele>
        <time>2012-02-02T13:17:46Z</time>
      </trkpt>
      <trkpt lat="63.3727147456" lon="10.3102314483">
        <ele>211.4</ele>
        <time>2012-02-02T13:17:51Z</time>
      </trkpt>
      <trkpt lat="63.3726037693" lon="10.3101604536">
        <ele>211.4</ele>
        <time>2012-02-02T13:17:56Z</time>
      </trkpt>
      <trkpt lat="63.3724722573" lon="10.3100466274">
        <ele>211.2</ele>
        <time>2012-02-02T13:18:02Z</time>
      </trkpt>
      <trkpt lat="63.3723605265" lon="10.3099616349">
        <ele>211.2</ele>
        <time>2012-02-02T13:18:08Z</time>
      </trkpt>
      <trkpt lat="63.3721996779" lon="10.30983423">
        <ele>211.4</ele>
        <time>2012-02-02T13:18:16Z</time>
      </trkpt>
      <trkpt lat="63.3720490551" lon="10.3096934979">
        <ele>212.4</ele>
        <time>2012-02-02T13:18:23Z</time>
      </trkpt>
      <trkpt lat="63.3720027032" lon="10.3096520914">
        <ele>212.6</ele>
        <time>2012-02-02T13:18:25Z</time>
      </trkpt>
      <trkpt lat="63.372184339" lon="10.3096169712">
        <ele>213.4</ele>
        <time>2012-02-02T13:18:35Z</time>
      </trkpt>
      <trkpt lat="63.3723651366" lon="10.309719398">
        <ele>214.2</ele>
        <time>2012-02-02T13:18:40Z</time>
      </trkpt>
      <trkpt lat="63.3725348701" lon="10.3098689311">
        <ele>214.6</ele>
        <time>2012-02-02T13:18:45Z</time>
      </trkpt>
      <trkpt lat="63.3726786196" lon="10.3099677537">
        <ele>214.8</ele>
        <time>2012-02-02T13:18:47Z</time>
      </trkpt>
      <trkpt lat="63.3729900072" lon="10.3099471342">
        <ele>215</ele>
        <time>2012-02-02T13:18:51Z</time>
      </trkpt>
      <trkpt lat="63.3730593255" lon="10.3098830127">
        <ele>215</ele>
        <time>2012-02-02T13:18:52Z</time>
      </trkpt>
      <trkpt lat="63.3733428014" lon="10.3096866248">
        <ele>215.2</ele>
        <time>2012-02-02T13:18:57Z</time>
      </trkpt>
      <trkpt lat="63.3734595613" lon="10.3096231738">
        <ele>215</ele>
        <time>2012-02-02T13:19:00Z</time>
      </trkpt>
      <trkpt lat="63.3736360841" lon="10.3095411988">
        <ele>214.2</ele>
        <time>2012-02-02T13:19:05Z</time>
      </trkpt>
      <trkpt lat="63.3738508284" lon="10.3094731378">
        <ele>213.8</ele>
        <time>2012-02-02T13:19:10Z</time>
      </trkpt>
      <trkpt lat="63.3740613817" lon="10.309342464">
        <ele>213</ele>
        <time>2012-02-02T13:19:16Z</time>
      </trkpt>
      <trkpt lat="63.3743015231" lon="10.3090405479">
        <ele>212</ele>
        <time>2012-02-02T13:19:23Z</time>
      </trkpt>
      <trkpt lat="63.3744801414" lon="10.3088972174">
        <ele>211.8</ele>
        <time>2012-02-02T13:19:26Z</time>
      </trkpt>
      <trkpt lat="63.3748907707" lon="10.3089259674">
        <ele>210.8</ele>
        <time>2012-02-02T13:19:33Z</time>
      </trkpt>
      <trkpt lat="63.3751242904" lon="10.309009032">
        <ele>210.4</ele>
        <time>2012-02-02T13:19:36Z</time>
      </trkpt>
      <trkpt lat="63.3753655215" lon="10.3090868998">
        <ele>209.8</ele>
        <time>2012-02-02T13:19:39Z</time>
      </trkpt>
      <trkpt lat="63.3755863846" lon="10.3091953616">
        <ele>209.2</ele>
        <time>2012-02-02T13:19:41Z</time>
      </trkpt>
      <trkpt lat="63.3756515119" lon="10.309220172">
        <ele>209</ele>
        <time>2012-02-02T13:19:42Z</time>
      </trkpt>
      <trkpt lat="63.3759478121" lon="10.3093541986">
        <ele>208.4</ele>
        <time>2012-02-02T13:19:45Z</time>
      </trkpt>
      <trkpt lat="63.3761429427" lon="10.3093392788">
        <ele>207.4</ele>
        <time>2012-02-02T13:19:48Z</time>
      </trkpt>
      <trkpt lat="63.3762348922" lon="10.3095147958">
        <ele>207</ele>
        <time>2012-02-02T13:19:50Z</time>
      </trkpt>
      <trkpt lat="63.3762110876" lon="10.3097578709">
        <ele>206.6</ele>
        <time>2012-02-02T13:19:52Z</time>
      </trkpt>
      <trkpt lat="63.376108996" lon="10.3097748862">
        <ele>206</ele>
        <time>2012-02-02T13:19:54Z</time>
      </trkpt>
      <trkpt lat="63.3760526697" lon="10.3097328091">
        <ele>205.6</ele>
        <time>2012-02-02T13:19:55Z</time>
      </trkpt>
      <trkpt lat="63.3759086686" lon="10.3096759798">
        <ele>205</ele>
        <time>2012-02-02T13:19:57Z</time>
      </trkpt>
      <trkpt lat="63.3757093471" lon="10.3096799193">
        <ele>204</ele>
        <time>2012-02-02T13:20:01Z</time>
      </trkpt>
      <trkpt lat="63.3756471534" lon="10.3096961801">
        <ele>203.6</ele>
        <time>2012-02-02T13:20:02Z</time>
      </trkpt>
      <trkpt lat="63.37539863" lon="10.3097253492">
        <ele>202</ele>
        <time>2012-02-02T13:20:07Z</time>
      </trkpt>
      <trkpt lat="63.3753101172" lon="10.3097415262">
        <ele>201.2</ele>
        <time>2012-02-02T13:20:09Z</time>
      </trkpt>
      <trkpt lat="63.3751424792" lon="10.309802295">
        <ele>200</ele>
        <time>2012-02-02T13:20:13Z</time>
      </trkpt>
      <trkpt lat="63.3751123881" lon="10.3098231659">
        <ele>199.6</ele>
        <time>2012-02-02T13:20:14Z</time>
      </trkpt>
      <trkpt lat="63.3749907668" lon="10.3098799952">
        <ele>198.4</ele>
        <time>2012-02-02T13:20:17Z</time>
      </trkpt>
      <trkpt lat="63.3749708178" lon="10.3098890477">
        <ele>197.8</ele>
        <time>2012-02-02T13:20:18Z</time>
      </trkpt>
      <trkpt lat="63.3748347796" lon="10.3099776443">
        <ele>195.6</ele>
        <time>2012-02-02T13:20:23Z</time>
      </trkpt>
      <trkpt lat="63.3746911977" lon="10.3100397542">
        <ele>193.4</ele>
        <time>2012-02-02T13:20:30Z</time>
      </trkpt>
      <trkpt lat="63.3746015951" lon="10.3100711025">
        <ele>192.6</ele>
        <time>2012-02-02T13:20:34Z</time>
      </trkpt>
      <trkpt lat="63.3744222225" lon="10.3101110842">
        <ele>192</ele>
        <time>2012-02-02T13:20:42Z</time>
      </trkpt>
      <trkpt lat="63.3743421753" lon="10.3101047978">
        <ele>191.8</ele>
        <time>2012-02-02T13:20:46Z</time>
      </trkpt>
      <trkpt lat="63.3742360605" lon="10.310086609">
        <ele>191.6</ele>
        <time>2012-02-02T13:20:51Z</time>
      </trkpt>
      <trkpt lat="63.3741018663" lon="10.3099794884">
        <ele>191.4</ele>
        <time>2012-02-02T13:20:57Z</time>
      </trkpt>
      <trkpt lat="63.3740141078" lon="10.3099581983">
        <ele>192.6</ele>
        <time>2012-02-02T13:21:04Z</time>
      </trkpt>
      <trkpt lat="63.373970941" lon="10.3099618026">
        <ele>193.6</ele>
        <time>2012-02-02T13:21:08Z</time>
      </trkpt>
      <trkpt lat="63.3739335577" lon="10.3099309572">
        <ele>194.4</ele>
        <time>2012-02-02T13:21:12Z</time>
      </trkpt>
      <trkpt lat="63.3738948333" lon="10.3099165403">
        <ele>195.6</ele>
        <time>2012-02-02T13:21:16Z</time>
      </trkpt>
      <trkpt lat="63.3738160435" lon="10.3099493135">
        <ele>197.6</ele>
        <time>2012-02-02T13:21:23Z</time>
      </trkpt>
      <trkpt lat="63.3737500779" lon="10.3099947434">
        <ele>199</ele>
        <time>2012-02-02T13:21:27Z</time>
      </trkpt>
      <trkpt lat="63.3737156283" lon="10.3100809094">
        <ele>200</ele>
        <time>2012-02-02T13:21:32Z</time>
      </trkpt>
      <trkpt lat="63.3738444581" lon="10.3102960727">
        <ele>200.6</ele>
        <time>2012-02-02T13:21:36Z</time>
      </trkpt>
      <trkpt lat="63.3739484775" lon="10.3103591884">
        <ele>200.8</ele>
        <time>2012-02-02T13:21:37Z</time>
      </trkpt>
      <trkpt lat="63.3742188776" lon="10.3104715059">
        <ele>201.2</ele>
        <time>2012-02-02T13:21:41Z</time>
      </trkpt>
      <trkpt lat="63.3744007648" lon="10.3104990823">
        <ele>201.4</ele>
        <time>2012-02-02T13:21:43Z</time>
      </trkpt>
      <trkpt lat="63.3744886071" lon="10.3104938018">
        <ele>201.4</ele>
        <time>2012-02-02T13:21:44Z</time>
      </trkpt>
      <trkpt lat="63.3747963905" lon="10.3103363059">
        <ele>201.6</ele>
        <time>2012-02-02T13:21:48Z</time>
      </trkpt>
      <trkpt lat="63.3750211931" lon="10.310209823">
        <ele>201.2</ele>
        <time>2012-02-02T13:21:51Z</time>
      </trkpt>
      <trkpt lat="63.3751672058" lon="10.3101415943">
        <ele>200.8</ele>
        <time>2012-02-02T13:21:53Z</time>
      </trkpt>
      <trkpt lat="63.3754595664" lon="10.3100910515">
        <ele>200.2</ele>
        <time>2012-02-02T13:21:57Z</time>
      </trkpt>
      <trkpt lat="63.3754950219" lon="10.3100876987">
        <ele>200</ele>
        <time>2012-02-02T13:21:58Z</time>
      </trkpt>
      <trkpt lat="63.3757329002" lon="10.3101094078">
        <ele>199.2</ele>
        <time>2012-02-02T13:22:02Z</time>
      </trkpt>
      <trkpt lat="63.3759752209" lon="10.3101325419">
        <ele>198.6</ele>
        <time>2012-02-02T13:22:05Z</time>
      </trkpt>
      <trkpt lat="63.3761922283" lon="10.3101518202">
        <ele>198</ele>
        <time>2012-02-02T13:22:09Z</time>
      </trkpt>
      <trkpt lat="63.3764451941" lon="10.310222312">
        <ele>197.4</ele>
        <time>2012-02-02T13:22:12Z</time>
      </trkpt>
      <trkpt lat="63.3765422565" lon="10.3102154389">
        <ele>197.2</ele>
        <time>2012-02-02T13:22:13Z</time>
      </trkpt>
      <trkpt lat="63.3767549891" lon="10.3101081505">
        <ele>196.4</ele>
        <time>2012-02-02T13:22:15Z</time>
      </trkpt>
      <trkpt lat="63.3769711583" lon="10.3102433506">
        <ele>195.4</ele>
        <time>2012-02-02T13:22:17Z</time>
      </trkpt>
      <trkpt lat="63.3770374591" lon="10.3105276646">
        <ele>194.6</ele>
        <time>2012-02-02T13:22:19Z</time>
      </trkpt>
      <trkpt lat="63.3769382174" lon="10.3108610128">
        <ele>193.6</ele>
        <time>2012-02-02T13:22:23Z</time>
      </trkpt>
      <trkpt lat="63.3768218766" lon="10.3108726636">
        <ele>192.2</ele>
        <time>2012-02-02T13:22:25Z</time>
      </trkpt>
      <trkpt lat="63.3766466111" lon="10.3107373798">
        <ele>189.4</ele>
        <time>2012-02-02T13:22:34Z</time>
      </trkpt>
      <trkpt lat="63.3766312722" lon="10.3107301713">
        <ele>189.2</ele>
        <time>2012-02-02T13:22:35Z</time>
      </trkpt>
      <trkpt lat="63.3766192023" lon="10.310734027">
        <ele>189</ele>
        <time>2012-02-02T13:22:36Z</time>
      </trkpt>
      <trkpt lat="63.3766004268" lon="10.3107217894">
        <ele>188.6</ele>
        <time>2012-02-02T13:22:38Z</time>
      </trkpt>
      <trkpt lat="63.3765524824" lon="10.31070578">
        <ele>188</ele>
        <time>2012-02-02T13:22:42Z</time>
      </trkpt>
      <trkpt lat="63.3765109081" lon="10.3106730906">
        <ele>187.6</ele>
        <time>2012-02-02T13:22:47Z</time>
      </trkpt>
      <trkpt lat="63.3764909592" lon="10.3106588414">
        <ele>187.4</ele>
        <time>2012-02-02T13:22:50Z</time>
      </trkpt>
      <trkpt lat="63.3764152707" lon="10.310622883">
        <ele>187.2</ele>
        <time>2012-02-02T13:22:56Z</time>
      </trkpt>
      <trkpt lat="63.3763357264" lon="10.3106005872">
        <ele>187</ele>
        <time>2012-02-02T13:23:02Z</time>
      </trkpt>
      <trkpt lat="63.3762046335" lon="10.3105869247">
        <ele>187</ele>
        <time>2012-02-02T13:23:08Z</time>
      </trkpt>
      <trkpt lat="63.376111343" lon="10.3105318556">
        <ele>187</ele>
        <time>2012-02-02T13:23:13Z</time>
      </trkpt>
      <trkpt lat="63.3760939086" lon="10.3105332805">
        <ele>187</ele>
        <time>2012-02-02T13:23:14Z</time>
      </trkpt>
      <trkpt lat="63.3759575351" lon="10.3105317718">
        <ele>187</ele>
        <time>2012-02-02T13:23:17Z</time>
      </trkpt>
      <trkpt lat="63.3758789129" lon="10.3105254015">
        <ele>187</ele>
        <time>2012-02-02T13:23:20Z</time>
      </trkpt>
      <trkpt lat="63.3757187348" lon="10.310508973">
        <ele>187</ele>
        <time>2012-02-02T13:23:25Z</time>
      </trkpt>
      <trkpt lat="63.3755550363" lon="10.3104882697">
        <ele>187</ele>
        <time>2012-02-02T13:23:30Z</time>
      </trkpt>
      <trkpt lat="63.3754445628" lon="10.3104461087">
        <ele>187</ele>
        <time>2012-02-02T13:23:34Z</time>
      </trkpt>
      <trkpt lat="63.3753084408" lon="10.3104235614">
        <ele>187</ele>
        <time>2012-02-02T13:23:40Z</time>
      </trkpt>
      <trkpt lat="63.3752076903" lon="10.3104887726">
        <ele>187</ele>
        <time>2012-02-02T13:23:44Z</time>
      </trkpt>
      <trkpt lat="63.3751833828" lon="10.3105300116">
        <ele>187</ele>
        <time>2012-02-02T13:23:45Z</time>
      </trkpt>
      <trkpt lat="63.3752056787" lon="10.3107767747">
        <ele>187</ele>
        <time>2012-02-02T13:23:48Z</time>
      </trkpt>
      <trkpt lat="63.3753252046" lon="10.3108603422">
        <ele>186.6</ele>
        <time>2012-02-02T13:23:50Z</time>
      </trkpt>
      <trkpt lat="63.3754689542" lon="10.3109097954">
        <ele>186.2</ele>
        <time>2012-02-02T13:23:52Z</time>
      </trkpt>
      <trkpt lat="63.3757428747" lon="10.3110325065">
        <ele>185.8</ele>
        <time>2012-02-02T13:23:56Z</time>
      </trkpt>
      <trkpt lat="63.3759328085" lon="10.3111319996">
        <ele>185.2</ele>
        <time>2012-02-02T13:23:59Z</time>
      </trkpt>
      <trkpt lat="63.3761230776" lon="10.3112130526">
        <ele>184.6</ele>
        <time>2012-02-02T13:24:02Z</time>
      </trkpt>
      <trkpt lat="63.3763202199" lon="10.3112874839">
        <ele>184.2</ele>
        <time>2012-02-02T13:24:05Z</time>
      </trkpt>
      <trkpt lat="63.3765181166" lon="10.3113649326">
        <ele>183.4</ele>
        <time>2012-02-02T13:24:08Z</time>
      </trkpt>
      <trkpt lat="63.3766821504" lon="10.3114654316">
        <ele>182.4</ele>
        <time>2012-02-02T13:24:12Z</time>
      </trkpt>
      <trkpt lat="63.3767163485" lon="10.311495355">
        <ele>182</ele>
        <time>2012-02-02T13:24:13Z</time>
      </trkpt>
      <trkpt lat="63.37692313" lon="10.3117023041">
        <ele>180.8</ele>
        <time>2012-02-02T13:24:17Z</time>
      </trkpt>
      <trkpt lat="63.3769459288" lon="10.311694006">
        <ele>180.4</ele>
        <time>2012-02-02T13:24:18Z</time>
      </trkpt>
      <trkpt lat="63.3769855751" lon="10.3114561277">
        <ele>179.4</ele>
        <time>2012-02-02T13:24:22Z</time>
      </trkpt>
      <trkpt lat="63.3769881735" lon="10.3111701373">
        <ele>177.8</ele>
        <time>2012-02-02T13:24:29Z</time>
      </trkpt>
      <trkpt lat="63.3770165044" lon="10.3109616794">
        <ele>177</ele>
        <time>2012-02-02T13:24:36Z</time>
      </trkpt>
      <trkpt lat="63.3771058554" lon="10.3107472704">
        <ele>176.6</ele>
        <time>2012-02-02T13:24:43Z</time>
      </trkpt>
      <trkpt lat="63.3771476811" lon="10.3106867531">
        <ele>176.4</ele>
        <time>2012-02-02T13:24:47Z</time>
      </trkpt>
      <trkpt lat="63.3772263871" lon="10.3106357073">
        <ele>176.4</ele>
        <time>2012-02-02T13:24:54Z</time>
      </trkpt>
      <trkpt lat="63.3772884132" lon="10.3106303429">
        <ele>176.4</ele>
        <time>2012-02-02T13:24:57Z</time>
      </trkpt>
      <trkpt lat="63.3774065142" lon="10.3106840709">
        <ele>177.2</ele>
        <time>2012-02-02T13:25:04Z</time>
      </trkpt>
      <trkpt lat="63.377515898" lon="10.3106876751">
        <ele>177.6</ele>
        <time>2012-02-02T13:25:08Z</time>
      </trkpt>
      <trkpt lat="63.3776406206" lon="10.310652052">
        <ele>177.8</ele>
        <time>2012-02-02T13:25:13Z</time>
      </trkpt>
      <trkpt lat="63.3778356674" lon="10.3105523912">
        <ele>178</ele>
        <time>2012-02-02T13:25:18Z</time>
      </trkpt>
      <trkpt lat="63.3779872122" lon="10.3106263196">
        <ele>178.2</ele>
        <time>2012-02-02T13:25:23Z</time>
      </trkpt>
      <trkpt lat="63.3780286188" lon="10.3106484478">
        <ele>178.2</ele>
        <time>2012-02-02T13:25:25Z</time>
      </trkpt>
      <trkpt lat="63.37803918" lon="10.3106466038">
        <ele>178.2</ele>
        <time>2012-02-02T13:25:33Z</time>
      </trkpt>
      <trkpt lat="63.3780529263" lon="10.310652052">
        <ele>178.2</ele>
        <time>2012-02-02T13:25:39Z</time>
      </trkpt>
      <trkpt lat="63.3780721208" lon="10.3106343662">
        <ele>178.2</ele>
        <time>2012-02-02T13:25:45Z</time>
      </trkpt>
      <trkpt lat="63.378139679" lon="10.3106415746">
        <ele>178.2</ele>
        <time>2012-02-02T13:25:51Z</time>
      </trkpt>
      <trkpt lat="63.3782768907" lon="10.310598827">
        <ele>178.2</ele>
        <time>2012-02-02T13:26:03Z</time>
      </trkpt>
      <trkpt lat="63.3783705165" lon="10.3105442608">
        <ele>178.2</ele>
        <time>2012-02-02T13:26:12Z</time>
      </trkpt>
      <trkpt lat="63.3784475461" lon="10.3105485356">
        <ele>178.2</ele>
        <time>2012-02-02T13:26:21Z</time>
      </trkpt>
      <trkpt lat="63.3784853485" lon="10.3106027665">
        <ele>178.2</ele>
        <time>2012-02-02T13:26:31Z</time>
      </trkpt>
      <trkpt lat="63.3785483804" lon="10.3106486993">
        <ele>178.2</ele>
        <time>2012-02-02T13:26:37Z</time>
      </trkpt>
      <trkpt lat="63.3786125019" lon="10.3107140781">
        <ele>178.8</ele>
        <time>2012-02-02T13:26:46Z</time>
      </trkpt>
      <trkpt lat="63.3787697464" lon="10.3108684727">
        <ele>179.4</ele>
        <time>2012-02-02T13:26:50Z</time>
      </trkpt>
      <trkpt lat="63.3789433355" lon="10.3108156667">
        <ele>179.6</ele>
        <time>2012-02-02T13:26:53Z</time>
      </trkpt>
      <trkpt lat="63.3791383823" lon="10.3107172632">
        <ele>179.6</ele>
        <time>2012-02-02T13:26:57Z</time>
      </trkpt>
      <trkpt lat="63.3791664617" lon="10.3107024272">
        <ele>179.4</ele>
        <time>2012-02-02T13:26:58Z</time>
      </trkpt>
      <trkpt lat="63.3793507797" lon="10.310630762">
        <ele>179</ele>
        <time>2012-02-02T13:27:02Z</time>
      </trkpt>
      <trkpt lat="63.3794115485" lon="10.3106294209">
        <ele>178.8</ele>
        <time>2012-02-02T13:27:03Z</time>
      </trkpt>
      <trkpt lat="63.379703993" lon="10.3107515452">
        <ele>178</ele>
        <time>2012-02-02T13:27:07Z</time>
      </trkpt>
      <trkpt lat="63.3797664381" lon="10.3107855757">
        <ele>177.8</ele>
        <time>2012-02-02T13:27:08Z</time>
      </trkpt>
      <trkpt lat="63.3798251952" lon="10.3108058599">
        <ele>177.6</ele>
        <time>2012-02-02T13:27:09Z</time>
      </trkpt>
      <trkpt lat="63.3801095093" lon="10.3107421574">
        <ele>176.4</ele>
        <time>2012-02-02T13:27:14Z</time>
      </trkpt>
      <trkpt lat="63.3803704378" lon="10.3104736014">
        <ele>175.2</ele>
        <time>2012-02-02T13:27:20Z</time>
      </trkpt>
      <trkpt lat="63.380531957" lon="10.3102449431">
        <ele>173.4</ele>
        <time>2012-02-02T13:27:26Z</time>
      </trkpt>
      <trkpt lat="63.3806589428" lon="10.3100836754">
        <ele>172.6</ele>
        <time>2012-02-02T13:27:33Z</time>
      </trkpt>
      <trkpt lat="63.3807350505" lon="10.3099883732">
        <ele>172.4</ele>
        <time>2012-02-02T13:27:37Z</time>
      </trkpt>
      <trkpt lat="63.3808614495" lon="10.3098190588">
        <ele>172</ele>
        <time>2012-02-02T13:27:45Z</time>
      </trkpt>
      <trkpt lat="63.3810425824" lon="10.3095621536">
        <ele>171.8</ele>
        <time>2012-02-02T13:27:50Z</time>
      </trkpt>
      <trkpt lat="63.3812033472" lon="10.3093381054">
        <ele>171.8</ele>
        <time>2012-02-02T13:27:54Z</time>
      </trkpt>
      <trkpt lat="63.3812786167" lon="10.3092326611">
        <ele>171.4</ele>
        <time>2012-02-02T13:27:56Z</time>
      </trkpt>
      <trkpt lat="63.3814943668" lon="10.3090941083">
        <ele>170.8</ele>
        <time>2012-02-02T13:28:00Z</time>
      </trkpt>
      <trkpt lat="63.3817553792" lon="10.3091250375">
        <ele>170.2</ele>
        <time>2012-02-02T13:28:04Z</time>
      </trkpt>
      <trkpt lat="63.3819738953" lon="10.3092119578">
        <ele>169.2</ele>
        <time>2012-02-02T13:28:08Z</time>
      </trkpt>
      <trkpt lat="63.3821049882" lon="10.3092511013">
        <ele>168.6</ele>
        <time>2012-02-02T13:28:10Z</time>
      </trkpt>
      <trkpt lat="63.3822732129" lon="10.309222519">
        <ele>168.2</ele>
        <time>2012-02-02T13:28:16Z</time>
      </trkpt>
      <trkpt lat="63.3823328082" lon="10.3092048332">
        <ele>168</ele>
        <time>2012-02-02T13:28:17Z</time>
      </trkpt>
      <trkpt lat="63.3827106643" lon="10.3085146675">
        <ele>167</ele>
        <time>2012-02-02T13:28:31Z</time>
      </trkpt>
      <trkpt lat="63.3828342973" lon="10.3082883562">
        <ele>166.2</ele>
        <time>2012-02-02T13:28:35Z</time>
      </trkpt>
      <trkpt lat="63.3830415817" lon="10.3080374021">
        <ele>165.6</ele>
        <time>2012-02-02T13:28:43Z</time>
      </trkpt>
      <trkpt lat="63.3831454335" lon="10.3080400843">
        <ele>165.4</ele>
        <time>2012-02-02T13:28:49Z</time>
      </trkpt>
      <trkpt lat="63.3832055317" lon="10.3080485501">
        <ele>165.4</ele>
        <time>2012-02-02T13:28:55Z</time>
      </trkpt>
      <trkpt lat="63.3832103932" lon="10.3080441915">
        <ele>165.2</ele>
        <time>2012-02-02T13:28:56Z</time>
      </trkpt>
      <trkpt lat="63.3832510454" lon="10.3080629669">
        <ele>165.2</ele>
        <time>2012-02-02T13:29:02Z</time>
      </trkpt>
      <trkpt lat="63.3832838186" lon="10.3080548365">
        <ele>166.2</ele>
        <time>2012-02-02T13:29:08Z</time>
      </trkpt>
      <trkpt lat="63.3833094672" lon="10.3080665711">
        <ele>166.8</ele>
        <time>2012-02-02T13:29:12Z</time>
      </trkpt>
      <trkpt lat="63.3833696493" lon="10.3080676608">
        <ele>168.2</ele>
        <time>2012-02-02T13:29:20Z</time>
      </trkpt>
      <trkpt lat="63.3833848205" lon="10.3080623802">
        <ele>168.6</ele>
        <time>2012-02-02T13:29:21Z</time>
      </trkpt>
      <trkpt lat="63.3834328488" lon="10.3080547527">
        <ele>170.2</ele>
        <time>2012-02-02T13:29:28Z</time>
      </trkpt>
      <trkpt lat="63.3834667955" lon="10.3080515675">
        <ele>171.6</ele>
        <time>2012-02-02T13:29:33Z</time>
      </trkpt>
      <trkpt lat="63.3835284863" lon="10.3080322892">
        <ele>173</ele>
        <time>2012-02-02T13:29:41Z</time>
      </trkpt>
      <trkpt lat="63.3835671268" lon="10.3079868593">
        <ele>174</ele>
        <time>2012-02-02T13:29:45Z</time>
      </trkpt>
      <trkpt lat="63.3836030014" lon="10.3079519068">
        <ele>174.8</ele>
        <time>2012-02-02T13:29:50Z</time>
      </trkpt>
      <trkpt lat="63.3836281471" lon="10.3079273478">
        <ele>175.2</ele>
        <time>2012-02-02T13:29:53Z</time>
      </trkpt>
      <trkpt lat="63.3837058473" lon="10.3078716082">
        <ele>176.8</ele>
        <time>2012-02-02T13:30:01Z</time>
      </trkpt>
      <trkpt lat="63.3837653588" lon="10.307809163">
        <ele>178</ele>
        <time>2012-02-02T13:30:07Z</time>
      </trkpt>
      <trkpt lat="63.3838697973" lon="10.3077102566">
        <ele>179.8</ele>
        <time>2012-02-02T13:30:15Z</time>
      </trkpt>
      <trkpt lat="63.3840416262" lon="10.3075699436">
        <ele>181</ele>
        <time>2012-02-02T13:30:22Z</time>
      </trkpt>
      <trkpt lat="63.3840961924" lon="10.3075334823">
        <ele>181.4</ele>
        <time>2012-02-02T13:30:25Z</time>
      </trkpt>
      <trkpt lat="63.3842443005" lon="10.3074850349">
        <ele>181.8</ele>
        <time>2012-02-02T13:30:31Z</time>
      </trkpt>
      <trkpt lat="63.3844473102" lon="10.3076401001">
        <ele>182</ele>
        <time>2012-02-02T13:30:35Z</time>
      </trkpt>
      <trkpt lat="63.3845535927" lon="10.3077625596">
        <ele>182</ele>
        <time>2012-02-02T13:30:38Z</time>
      </trkpt>
      <trkpt lat="63.3846915587" lon="10.3078651541">
        <ele>182.2</ele>
        <time>2012-02-02T13:30:45Z</time>
      </trkpt>
      <trkpt lat="63.3847637269" lon="10.3079057225">
        <ele>182.2</ele>
        <time>2012-02-02T13:30:52Z</time>
      </trkpt>
      <trkpt lat="63.3848013616" lon="10.3079236598">
        <ele>182.2</ele>
        <time>2012-02-02T13:30:59Z</time>
      </trkpt>
      <trkpt lat="63.3848534132" lon="10.3079417647">
        <ele>182.2</ele>
        <time>2012-02-02T13:31:05Z</time>
      </trkpt>
      <trkpt lat="63.3848623819" lon="10.3079454527">
        <ele>182.4</ele>
        <time>2012-02-02T13:31:06Z</time>
      </trkpt>
      <trkpt lat="63.3849131762" lon="10.3079737835">
        <ele>183.4</ele>
        <time>2012-02-02T13:31:12Z</time>
      </trkpt>
      <trkpt lat="63.38497252" lon="10.3079993483">
        <ele>184.6</ele>
        <time>2012-02-02T13:31:19Z</time>
      </trkpt>
      <trkpt lat="63.3851036129" lon="10.308068499">
        <ele>187.4</ele>
        <time>2012-02-02T13:31:33Z</time>
      </trkpt>
      <trkpt lat="63.3851363023" lon="10.308074953">
        <ele>187.8</ele>
        <time>2012-02-02T13:31:37Z</time>
      </trkpt>
      <trkpt lat="63.3852048663" lon="10.3080876097">
        <ele>189.2</ele>
        <time>2012-02-02T13:31:44Z</time>
      </trkpt>
      <trkpt lat="63.3852332809" lon="10.3080876097">
        <ele>189.6</ele>
        <time>2012-02-02T13:31:47Z</time>
      </trkpt>
      <trkpt lat="63.3853036889" lon="10.3080609553">
        <ele>190.2</ele>
        <time>2012-02-02T13:31:54Z</time>
      </trkpt>
      <trkpt lat="63.3853841551" lon="10.3080491368">
        <ele>191.6</ele>
        <time>2012-02-02T13:32:02Z</time>
      </trkpt>
      <trkpt lat="63.3853947163" lon="10.3080468737">
        <ele>191.6</ele>
        <time>2012-02-02T13:32:03Z</time>
      </trkpt>
      <trkpt lat="63.3855066985" lon="10.307991134">
        <ele>193.2</ele>
        <time>2012-02-02T13:32:10Z</time>
      </trkpt>
      <trkpt lat="63.385629661" lon="10.3079111707">
        <ele>193.8</ele>
        <time>2012-02-02T13:32:16Z</time>
      </trkpt>
      <trkpt lat="63.3857440739" lon="10.3078382482">
        <ele>194.2</ele>
        <time>2012-02-02T13:32:22Z</time>
      </trkpt>
      <trkpt lat="63.3859345945" lon="10.3079276831">
        <ele>194.4</ele>
        <time>2012-02-02T13:32:31Z</time>
      </trkpt>
      <trkpt lat="63.385987149" lon="10.308071265">
        <ele>194.6</ele>
        <time>2012-02-02T13:32:37Z</time>
      </trkpt>
      <trkpt lat="63.386016318" lon="10.3082042019">
        <ele>194.6</ele>
        <time>2012-02-02T13:32:43Z</time>
      </trkpt>
      <trkpt lat="63.3860484207" lon="10.308357926">
        <ele>195.4</ele>
        <time>2012-02-02T13:32:49Z</time>
      </trkpt>
      <trkpt lat="63.3860857202" lon="10.3085502068">
        <ele>196</ele>
        <time>2012-02-02T13:32:55Z</time>
      </trkpt>
      <trkpt lat="63.3861175714" lon="10.3087610116">
        <ele>196.4</ele>
        <time>2012-02-02T13:33:00Z</time>
      </trkpt>
      <trkpt lat="63.3861180743" lon="10.3090198446">
        <ele>197.2</ele>
        <time>2012-02-02T13:33:06Z</time>
      </trkpt>
      <trkpt lat="63.3860917551" lon="10.3091736525">
        <ele>198</ele>
        <time>2012-02-02T13:33:11Z</time>
      </trkpt>
      <trkpt lat="63.386077003" lon="10.3092386122">
        <ele>198.6</ele>
        <time>2012-02-02T13:33:15Z</time>
      </trkpt>
      <trkpt lat="63.3860448165" lon="10.3093029014">
        <ele>199.8</ele>
        <time>2012-02-02T13:33:21Z</time>
      </trkpt>
      <trkpt lat="63.3859941898" lon="10.3094437173">
        <ele>202.6</ele>
        <time>2012-02-02T13:33:32Z</time>
      </trkpt>
      <trkpt lat="63.3859864785" lon="10.3094715452">
        <ele>203.6</ele>
        <time>2012-02-02T13:33:36Z</time>
      </trkpt>
      <trkpt lat="63.3859553816" lon="10.3095388519">
        <ele>205.2</ele>
        <time>2012-02-02T13:33:41Z</time>
      </trkpt>
      <trkpt lat="63.3859099517" lon="10.3096158815">
        <ele>207</ele>
        <time>2012-02-02T13:33:47Z</time>
      </trkpt>
      <trkpt lat="63.3858393761" lon="10.309691151">
        <ele>208.6</ele>
        <time>2012-02-02T13:33:54Z</time>
      </trkpt>
      <trkpt lat="63.3857227001" lon="10.3097493214">
        <ele>210.2</ele>
        <time>2012-02-02T13:34:00Z</time>
      </trkpt>
      <trkpt lat="63.3856284875" lon="10.309857867">
        <ele>211</ele>
        <time>2012-02-02T13:34:05Z</time>
      </trkpt>
      <trkpt lat="63.3856010787" lon="10.3099198931">
        <ele>211.2</ele>
        <time>2012-02-02T13:34:07Z</time>
      </trkpt>
      <trkpt lat="63.3855839796" lon="10.3102180372">
        <ele>212.6</ele>
        <time>2012-02-02T13:34:15Z</time>
      </trkpt>
      <trkpt lat="63.3855845664" lon="10.3105036924">
        <ele>213.4</ele>
        <time>2012-02-02T13:34:21Z</time>
      </trkpt>
      <trkpt lat="63.3855926968" lon="10.3109212787">
        <ele>215</ele>
        <time>2012-02-02T13:34:30Z</time>
      </trkpt>
      <trkpt lat="63.3856338519" lon="10.3112358514">
        <ele>215.6</ele>
        <time>2012-02-02T13:34:36Z</time>
      </trkpt>
      <trkpt lat="63.3857317525" lon="10.3114576364">
        <ele>215.8</ele>
        <time>2012-02-02T13:34:41Z</time>
      </trkpt>
      <trkpt lat="63.3858351852" lon="10.3116473188">
        <ele>216</ele>
        <time>2012-02-02T13:34:45Z</time>
      </trkpt>
      <trkpt lat="63.386006595" lon="10.3119628135">
        <ele>216</ele>
        <time>2012-02-02T13:34:50Z</time>
      </trkpt>
      <trkpt lat="63.3861253665" lon="10.3121670804">
        <ele>216</ele>
        <time>2012-02-02T13:34:53Z</time>
      </trkpt>
      <trkpt lat="63.3863171444" lon="10.3123866862">
        <ele>216.2</ele>
        <time>2012-02-02T13:34:57Z</time>
      </trkpt>
      <trkpt lat="63.386346984" lon="10.3124102394">
        <ele>216.2</ele>
        <time>2012-02-02T13:34:58Z</time>
      </trkpt>
      <trkpt lat="63.3865929927" lon="10.3125814816">
        <ele>216.2</ele>
        <time>2012-02-02T13:35:04Z</time>
      </trkpt>
      <trkpt lat="63.3866422783" lon="10.3126440106">
        <ele>216.2</ele>
        <time>2012-02-02T13:35:05Z</time>
      </trkpt>
      <trkpt lat="63.3867154523" lon="10.3128932044">
        <ele>216.2</ele>
        <time>2012-02-02T13:35:08Z</time>
      </trkpt>
      <trkpt lat="63.3867240018" lon="10.3130039293">
        <ele>216.2</ele>
        <time>2012-02-02T13:35:09Z</time>
      </trkpt>
      <trkpt lat="63.3867002811" lon="10.3132646903">
        <ele>216.2</ele>
        <time>2012-02-02T13:35:11Z</time>
      </trkpt>
      <trkpt lat="63.3865994468" lon="10.3136345835">
        <ele>216.2</ele>
        <time>2012-02-02T13:35:14Z</time>
      </trkpt>
      <trkpt lat="63.3865739658" lon="10.3137578812">
        <ele>216.2</ele>
        <time>2012-02-02T13:35:15Z</time>
      </trkpt>
      <trkpt lat="63.3865649134" lon="10.3138332345">
        <ele>216</ele>
        <time>2012-02-02T13:35:16Z</time>
      </trkpt>
      <trkpt lat="63.3865458865" lon="10.3140678439">
        <ele>215.6</ele>
        <time>2012-02-02T13:35:17Z</time>
      </trkpt>
      <trkpt lat="63.3865821801" lon="10.3146178642">
        <ele>215.2</ele>
        <time>2012-02-02T13:35:22Z</time>
      </trkpt>
      <trkpt lat="63.386788291" lon="10.3154971255">
        <ele>214.2</ele>
        <time>2012-02-02T13:35:29Z</time>
      </trkpt>
      <trkpt lat="63.3868260934" lon="10.3156841257">
        <ele>214</ele>
        <time>2012-02-02T13:35:30Z</time>
      </trkpt>
      <trkpt lat="63.3868946573" lon="10.316103556">
        <ele>213.6</ele>
        <time>2012-02-02T13:35:32Z</time>
      </trkpt>
      <trkpt lat="63.3869626345" lon="10.3165151073">
        <ele>213.4</ele>
        <time>2012-02-02T13:35:34Z</time>
      </trkpt>
      <trkpt lat="63.3870380716" lon="10.3169038598">
        <ele>213</ele>
        <time>2012-02-02T13:35:36Z</time>
      </trkpt>
      <trkpt lat="63.3871398279" lon="10.31735204">
        <ele>212.2</ele>
        <time>2012-02-02T13:35:39Z</time>
      </trkpt>
      <trkpt lat="63.387231945" lon="10.3176989668">
        <ele>211.6</ele>
        <time>2012-02-02T13:35:42Z</time>
      </trkpt>
      <trkpt lat="63.3872596053" lon="10.3177868929">
        <ele>211.4</ele>
        <time>2012-02-02T13:35:43Z</time>
      </trkpt>
      <trkpt lat="63.3873644628" lon="10.3181583787">
        <ele>210.2</ele>
        <time>2012-02-02T13:35:48Z</time>
      </trkpt>
      <trkpt lat="63.3873823163" lon="10.3182284514">
        <ele>209.8</ele>
        <time>2012-02-02T13:35:49Z</time>
      </trkpt>
      <trkpt lat="63.3874427498" lon="10.3185425212">
        <ele>209</ele>
        <time>2012-02-02T13:35:55Z</time>
      </trkpt>
      <trkpt lat="63.38750838" lon="10.3188159388">
        <ele>208.4</ele>
        <time>2012-02-02T13:36:01Z</time>
      </trkpt>
      <trkpt lat="63.3876018382" lon="10.3190865065">
        <ele>208.2</ele>
        <time>2012-02-02T13:36:06Z</time>
      </trkpt>
      <trkpt lat="63.3877398043" lon="10.3193543082">
        <ele>207.2</ele>
        <time>2012-02-02T13:36:12Z</time>
      </trkpt>
      <trkpt lat="63.3878600007" lon="10.3195346867">
        <ele>206.6</ele>
        <time>2012-02-02T13:36:17Z</time>
      </trkpt>
      <trkpt lat="63.3879874894" lon="10.319672569">
        <ele>206.4</ele>
        <time>2012-02-02T13:36:22Z</time>
      </trkpt>
      <trkpt lat="63.3881578935" lon="10.3197231957">
        <ele>206.2</ele>
        <time>2012-02-02T13:36:28Z</time>
      </trkpt>
      <trkpt lat="63.3882403714" lon="10.3197275542">
        <ele>206</ele>
        <time>2012-02-02T13:36:33Z</time>
      </trkpt>
      <trkpt lat="63.3882394494" lon="10.3197919272">
        <ele>205.8</ele>
        <time>2012-02-02T13:36:52Z</time>
      </trkpt>
      <trkpt lat="63.3881867272" lon="10.3200572982">
        <ele>205.8</ele>
        <time>2012-02-02T13:37:01Z</time>
      </trkpt>
      <trkpt lat="63.3881879007" lon="10.3202711205">
        <ele>205.8</ele>
        <time>2012-02-02T13:37:09Z</time>
      </trkpt>
      <trkpt lat="63.3881913373" lon="10.3202868784">
        <ele>205.8</ele>
        <time>2012-02-02T13:37:10Z</time>
      </trkpt>
      <trkpt lat="63.3882526928" lon="10.3203876289">
        <ele>205.8</ele>
        <time>2012-02-02T13:37:18Z</time>
      </trkpt>
    </trkseg>
  </trk>
</gpx>